     2              OBSERVATION DATA    GPS                 RINEX VERSION / TYPE
teqc 1999Jul19 19991123 03:22:29UTC                         PGM / RUN BY / DATE
                                                            COMMENT
Original Marker Name: O2O1                                  COMMENT
Campaign Name: HPGN 1991                                    COMMENT
4-Character Station Name: 0201                              COMMENT
6-Character Antenna Code: TRMSST                            COMMENT
Vertical Measurement Point: TGP                             COMMENT
Vertical Offset to Rinex Ref. Point: 0.0629                 COMMENT
Radial Measurement Point: OGP                               COMMENT
Radial Offset to Rinex Ref. Point: 0.2413                   COMMENT
Antenna Height from Field Measurement: 1.7110 m             COMMENT
                                                            COMMENT
Original XYZ: -2605399.2664 -3982520.6364 4232770.9303      COMMENT
New XYZ position is based on association with SCEC monument COMMENT
E1P2O3A6+0011. Position of that monument is believed to be  COMMENT
valid to within 1 m horizontally; vertical accuracy         COMMENT
should be no worse than 3-times this value.                 COMMENT
                                                            COMMENT
Revised Rinex header created by UCSD GPS archive for        COMMENT
GSAC on 10-Mar-2000 (2000:070) 04:24:18 GMT                 COMMENT
For assistance contact dagnew@ucsd.edu or hjohnson@ucsd.edu COMMENT
                                                            COMMENT
HPGN CA 02 01                                               MARKER NAME
O2O1                                                        MARKER NUMBER
-Unknown- CALIF DEPT TRANSPORTATION                         OBSERVER / AGENCY
282 TRIMBLE 4000 SST NP 4.30 / SP 4.20                      REC # / TYPE / VERS
136 TR 4000SST L1/L2 GEO                                    ANT # / TYPE
 -2605398.9707 -3982522.8871  4232772.2292                  APPROX POSITION XYZ
        1.6310        0.0000        0.0000                  ANTENNA: DELTA H/E/N
     1     1     0                                          WAVELENGTH FACT L1/2
     5    C1    L1    L2    S1    S2                        # / TYPES OF OBSERV
     0                                                      INTERVAL
  1991     6    27    15    41   15.000000                  TIME OF FIRST OBS
  1991     6    27    21    24   15.000000                  TIME OF LAST OBS
                                                            END OF HEADER
 91  6 27 15 41 15.0000000  0  5G18G 2G16G11G19
  21340848.188          -0.05817                        26.000
  23690189.398          -0.97216                        12.250
  23637269.625          -0.53215                        10.500
  24058412.445          -0.56815                        11.750
  20644788.258          -0.53017                        20.750
 91  6 27 15 41 30.0000000  0  5G18G 2G16G11G19
  21346820.828       31385.936 7        -0.39832        25.750           2.313
  23680656.195      -50084.910 6        -0.09731        12.000           0.594
  23632531.633      -24909.799 5                        10.500
  24051608.469      -35795.086 6                        12.000
  20645167.906        1986.779 6        -0.22431        19.000           1.281
 91  6 27 15 41 45.0000000  0  5G18G 2G16G11G19
  21352795.945       62799.822 7     24477.92922        25.500           2.344
  23671121.438     -100194.029 6    -39046.12021        12.500           0.625
  23627798.328      -49760.159 5        -0.06331         9.500           0.563
  24044796.484      -71562.445 5        -0.36931        11.750           0.656
  20645541.797        3969.840 7      1545.01621        20.250           1.219
 91  6 27 15 42  0.0000000  0  5G18G 2G16G11G19
  21358783.914       94261.998 7     48993.89022        24.750           2.281
  23661584.617     -150307.631 6    -78095.62121        13.000           0.594
  23623087.766      -74530.867 5    -19301.88621        10.250           0.500
  24038003.656     -107281.661 6    -27833.45821        12.500           0.750
  20645925.656        5969.197 6      3102.96121        19.500           1.219
 91  6 27 15 42 15.0000000  0  5G18G 2G16G11G19
  21364783.820      125785.790 7     73557.85922        25.500           2.250
  23652050.180     -200412.350 6   -117138.20521        13.250           0.625
  23618391.070      -99208.562 5    -38531.24121        11.000           0.531
  24031219.234     -142939.165 6    -55618.45121        12.250           0.719
  20646310.695        7997.822 7      4683.71721        20.000           1.406
 91  6 27 15 42 30.0000000  0  5G18G 2G16G11G19
  21370795.938      157376.976 7     98174.35522        26.000           2.313
  23642515.289     -250501.553 6   -156168.72021        12.500           0.625
  23613707.125     -123786.861 5    -57683.15121         9.500           0.563
  24024439.820     -178528.286 5    -83350.16521        11.500           0.688
  20646705.227       10062.310 6      6292.41521        18.750           1.281
 91  6 27 15 42 45.0000000  0  5G18G 2G16G11G19
  21376821.430      189047.480 7    122852.65122        25.000           2.313
  23632990.250     -300563.340 6   -195177.85921        12.250           0.656
  23609057.680     -148253.264 5    -76747.85721        10.500           0.563
  24017689.672     -214036.766 6   -111019.06621        12.000           0.781
  20647105.297       12174.499 6      7938.27421        19.750           1.313
 91  6 27 15 43  0.0000000  0  5G18G 2G16G11G19
  21382868.859      220821.825 7    147611.85722        26.250           2.250
  23623478.406     -350572.628 6   -234146.07521        12.500           0.656
  23604429.242     -172583.075 5    -95706.13921        10.750           0.531
  24010950.250     -249439.493 5   -138605.53721        11.750           0.750
  20647522.094       14359.103 6      9640.56021        19.000           1.250
 91  6 27 15 43 15.0000000  0  5G18G 2G16G11G19
  21388930.781      252676.600 7    172433.74222        25.750           2.281
  23613962.977     -400552.794 6   -273091.60321        12.750           0.656
  23599818.898     -196799.812 5   -114576.29221        10.000           0.469
  24004227.672     -284759.670 6   -166127.67821        12.000           0.719
  20647946.438       16592.578 6     11380.93221        19.750           1.313
 91  6 27 15 43 30.0000000  0  5G18G 2G16G11G19
  21395003.969      284584.783 7    197297.24222        26.250           2.375
  23604453.008     -450530.289 6   -312035.06621        12.750           0.688
  23595228.695     -220930.002 5   -133379.02421        10.750           0.375
  23997516.750     -320023.617 6   -193606.01721        12.250           0.781
  20648375.508       18848.065 6     13138.45921        18.500           1.250
 91  6 27 15 43 45.0000000  0  5G18G 2G16G11G19
  21401091.242      316582.466 7    222230.47222        25.000           2.281
  23594953.438     -500468.731 6   -350948.08121        13.750           0.719
  23590661.281     -244937.140 5   -152085.84821        10.500           0.500
  23990828.016     -355194.707 5   -221012.00821        11.750           0.594
  20648814.047       21161.947 6     14941.48221        19.500           1.344
 91  6 27 15 44  0.0000000  0  5G18G 2G16G11G19
  21407195.375      348650.336 7    247218.40922        25.500           2.344
  23585453.953     -550387.255 6   -389845.58021        13.250           0.656
  23586104.047     -268839.936 5   -170711.40221         9.750           0.438
  23984146.867     -390291.804 6   -248360.32721        12.250           0.688
  20649265.578       23514.809 6     16774.88521        19.500           1.281
 91  6 27 15 44 15.0000000  0  5G18G 2G16G11G19
  21413307.430      380781.574 7    272255.71722        24.500           2.313
  23575955.008     -600292.039 6   -428732.38221        12.750           0.594
  23581582.867     -292645.022 5   -189260.79921        11.750           0.469
  23977481.539     -425320.964 6   -275655.73721        13.000           0.625
  20649716.750       25900.240 7     18633.66421        20.000           1.219
 91  6 27 15 44 30.0000000  0  5G18G 2G16G11G19
  21419437.375      412991.563 7    297354.38322        24.500           2.438
  23566465.477     -650167.637 6   -467596.44221        12.500           0.688
  23577071.555     -316337.270 5   -207722.25121        11.250           0.500
  23970827.586     -460266.570 6   -302886.02521        13.000           0.656
  20650180.898       28333.201 6     20529.48221        19.500           1.219
 91  6 27 15 44 45.0000000  0  5G18G 2G16G11G19
  21425587.594      445304.803 7    322533.50522        24.500           2.344
  23556987.883     -699989.285 6   -506418.44821        13.500           0.594
  23572592.094     -339891.540 5   -226076.20821        10.750           0.563
  23964202.742     -495103.609 6   -330031.71521        14.250           0.625
  20650655.188       30838.466 6     22481.64121        19.750           1.250
 91  6 27 15 45  0.0000000  0  5G18G 2G16G11G19
  21431749.117      477695.506 7    347772.99322        24.000           2.313
  23547510.766     -749782.255 6   -545218.12621        14.500           0.688
  23568130.219     -363333.002 5   -244342.28821        11.250           0.406
  23957587.805     -529857.281 6   -357112.44421        14.250           0.625
  20651142.883       33390.613 6     24470.32321        18.750           1.281
 91  6 27 15 45 15.0000000  0  5G18G 2G16G11G19
  21437928.313      510167.420 7    373075.75822        24.000           2.438
  23538040.391     -799542.546 6   -583992.31821        14.000           0.656
  23563695.875     -386657.687 5   -262517.34521        11.750           0.375
  23950993.336     -564523.333 6   -384124.92221        13.750           0.656
  20651636.039       35993.447 6     26498.50621        19.750           1.219
 91  6 27 15 45 30.0000000  0  5G18G 2G16G11G19
  21444126.133      542729.175 7    398448.53122        25.750           2.281
  23528579.992     -849261.153 6   -622734.03721        13.500           0.688
  23559279.344     -409856.623 5   -280594.42521        11.500           0.375
  23944415.328     -599092.580 6   -411061.97021        13.750           0.625
  20652144.711       38655.634 6     28572.94321        19.250           1.156
 91  6 27 15 45 45.0000000  0  5G18G 2G16G11G19
  21450336.945      575367.778 7    423881.19322        25.750           2.250
  23519121.945     -898950.943 6   -661453.31921        13.250           0.688
  23554883.992     -432942.964 5   -298583.75821        11.250           0.469
  23937849.648     -633577.654 6   -437933.39221        12.750           0.656
  20652660.234       41364.231 7     30683.54321        20.250           1.156
 91  6 27 15 46  0.0000000  0  5G18G 2G16G11G19
  21456562.063      608082.779 7    449373.38022        25.000           2.438
  23509669.820     -948611.926 5   -700150.18021        11.750           0.750
  23550510.719     -455916.304 5   -316485.07621        11.750           0.406
  23931305.852     -667978.421 6   -464739.12621        13.750           0.594
  20653183.844       44118.819 7     32829.97721        20.000           1.344
 91  6 27 15 46 15.0000000  0  5G18G 2G16G11G19
  21462806.609      640891.825 7    474938.84122        24.750           2.438
  23500236.523     -998226.035 6   -738810.42721        13.500           0.656
  23546165.469     -478759.048 5   -334284.58621        11.500           0.531
  23924776.617     -702276.696 6   -491465.00121        13.750           0.688
  20653718.391       46937.274 6     35026.17321        19.500           1.281
 91  6 27 15 46 30.0000000  0  5G18G 2G16G11G19
  21469067.227      673788.919 7    500572.92222        25.250           2.375
  23490798.461    -1047798.814 6   -777438.51821        12.750           0.688
  23541844.102     -501476.605 6   -351986.56021        12.250           0.531
  23918267.289     -736478.053 6   -518115.38421        13.500           0.688
  20654270.781       49813.815 6     37267.63021        19.000           1.344
 91  6 27 15 46 45.0000000  0  5G18G 2G16G11G19
  21475342.117      706765.360 7    526268.81422        25.250           2.313
  23481365.273    -1097338.953 5   -816041.17821        11.500           0.781
  23537535.203     -524077.945 5   -369597.95321        11.000           0.500
  23911780.547     -770590.779 6   -544696.66521        14.500           0.688
  20654824.180       52739.522 6     39547.40721        19.500           1.281
 91  6 27 15 47  0.0000000  0  5G18G 2G16G11G19
  21481636.461      739846.382 7    552046.21322        25.000           2.250
  23471953.391    -1146820.452 6   -854598.15021        12.750           0.750
  23533266.023     -546536.553 5   -387098.17121        11.000           0.469
  23905309.508     -804588.588 6   -571188.42421        15.000           0.719
  20655398.852       55740.260 6     41885.64221        18.250           1.344
 91  6 27 15 47 15.0000000  0  5G18G 2G16G11G19
  21487947.242      773007.819 7    577886.27322        25.000           2.156
  23462543.086    -1196267.339 6   -893128.13421        12.500           0.844
  23529012.914     -568877.102 5   -404506.34821        11.250           0.563
  23898855.547     -838495.565 6   -597609.41121        14.750           0.750
  20655975.680       58791.690 6     44263.37721        19.500           1.250
 91  6 27 15 47 30.0000000  0  5G18G 2G16G11G19
  21494266.430      806218.299 7    603764.54622        25.500           2.156
  23453127.867    -1245710.949 6   -931655.58921        12.750           0.781
  23524777.555     -591130.710 5   -421846.81621        11.750           0.531
  23892412.938     -872342.903 6   -623983.91421        14.250           0.750
  20656561.820       61862.297 6     46656.05321        17.750           1.375
 91  6 27 15 47 45.0000000  0  5G18G 2G16G11G19
  21500602.719      839512.342 7    629707.93422        25.000           2.281
  23443735.180    -1295116.456 6   -970153.35221        13.500           0.750
  23520565.461     -613262.620 5   -439092.45521        10.750           0.500
  23885992.148     -906095.354 6   -650284.48921        14.500           0.750
  20657153.992       64986.782 6     49090.71421        19.250           1.313
 91  6 27 15 48  0.0000000  0  5G18G 2G16G11G19
  21506951.195      872885.569 7    655713.01422        24.750           2.250
  23434337.805    -1344487.576 6  -1008624.30521        14.000           0.813
  23516378.063     -635276.341 6   -456245.96121        12.000           0.656
  23879584.977     -939756.541 6   -676513.93621        14.750           0.781
  20657758.344       68161.219 6     51564.29021        19.250           1.281
 91  6 27 15 48 15.0000000  0  5G18G 2G16G11G19
  21513321.281      906354.118 7    681792.38522        24.000           2.031
  23424954.523    -1393807.954 6  -1047055.73721        14.250           0.750
  23512220.203     -657155.618 6   -473294.73821        12.250           0.563
  23873206.227     -973310.030 6   -702659.48921        15.750           0.906
  20658374.430       71401.657 6     54089.31221        19.500           1.281
 91  6 27 15 48 30.0000000  0  5G18G 2G16G11G19
  21519710.273      939932.182 7    707957.08922        23.750           2.156
  23415581.734    -1443063.158 6  -1085436.34721        14.750           0.844
  23508082.219     -678886.006 6   -490227.49721        12.000           0.531
  23866837.203    -1006741.078 6   -728709.61521        15.250           0.750
  20659009.789       74722.488 6     56676.97321        19.500           1.250
 91  6 27 15 48 45.0000000  0  5G18G 2G16G11G19
  21526113.602      973569.806 7    734168.20422        24.250           2.125
  23406216.625    -1492302.741 6  -1123804.82121        16.250           0.719
  23503961.711     -700517.394 5   -507083.11521        11.000           0.594
  23860489.758    -1040099.131 6   -754702.87221        14.500           0.813
  20659643.813       78073.862 6     59288.43321        18.750           1.219
 91  6 27 15 49  0.0000000  0  5G18G 2G16G11G19
  21532526.031     1007269.917 7    760428.00322        24.750           2.000
  23396848.734    -1541523.572 6  -1162158.67921        15.500           0.813
  23499866.781     -722046.337 5   -523858.90621        11.000           0.469
  23854160.953    -1073380.937 6   -780636.71321        15.000           0.750
  20660291.703       81458.648 6     61925.91121        17.250           1.250
 91  6 27 15 49 15.0000000  0  5G18G 2G16G11G19
  21538954.313     1041053.805 7    786753.08522        23.750           2.063
  23387487.945    -1590703.828 6  -1200480.91021        15.000           0.781
  23495792.898     -743451.339 5   -540538.09821        11.250           0.563
  23847844.883    -1106564.520 6   -806494.01421        14.000           0.750
  20660943.438       84898.296 6     64606.15421        19.500           1.313
 91  6 27 15 49 30.0000000  0  5G18G 2G16G11G19
  21545400.273     1074930.647 7    813150.59822        23.500           2.156
  23378140.602    -1639834.148 6  -1238764.23621        15.250           0.875
  23491748.305     -764723.118 5   -557113.50221        11.250           0.500
  23841548.648    -1139640.292 6   -832267.32521        14.000           0.813
  20661613.156       88402.102 6     67336.40021        18.750           1.344
 91  6 27 15 49 45.0000000  0  5G18G 2G16G11G19
  21551863.289     1108896.651 7    839617.59322        24.500           2.000
  23368796.555    -1688917.907 6  -1277011.28221        14.500           0.875
  23487723.031     -785864.765 5   -573587.48121        11.750           0.500
  23835273.547    -1172611.509 6   -857959.14121        13.750           0.781
  20662287.586       91966.434 6     70113.80221        18.750           1.250
 91  6 27 15 50  0.0000000  0  5G18G 2G16G11G19
  21558343.031     1142945.340 7    866149.02222        24.750           1.969
  23359464.281    -1737961.200 6  -1315226.78421        14.000           0.813
  23483726.266     -806882.529 6   -589964.93521        13.000           0.469
  23829018.563    -1205484.045 6   -883574.06921        14.000           0.719
  20662976.086       95584.999 6     72933.45421        18.250           1.313
 91  6 27 15 50 15.0000000  0  5G18G 2G16G11G19
  21564840.805     1177087.777 7    892753.50222        24.250           2.031
  23350140.164    -1786952.529 6  -1353401.79821        14.000           0.906
  23479755.133     -827764.655 6   -606236.73521        13.250           0.438
  23822787.391    -1238246.151 6   -909102.95721        13.750           0.688
  20663677.523       99269.249 6     75804.29621        19.250           1.281
 91  6 27 15 50 30.0000000  0  5G18G 2G16G11G19
  21571359.477     1211336.462 7    919440.75922        24.000           1.969
  23340829.609    -1835879.068 6  -1391526.33321        14.000           0.844
  23475807.289     -848498.788 6   -622393.16821        12.250           0.563
  23816576.102    -1270884.939 6   -934535.74721        14.500           0.688
  20664397.531      103031.860 6     78736.19921        19.000           1.344
 91  6 27 15 50 45.0000000  0  5G18G 2G16G11G19
  21577890.523     1245663.609 7    946189.16222        24.250           2.031
  23331528.695    -1884768.667 6  -1429622.08921        14.500           0.781
  23471885.898     -869112.623 6   -638455.88621        12.750           0.500
  23810380.438    -1303428.006 6   -959893.95321        13.750           0.625
  20665120.016      106844.578 6     81707.14021        19.250           1.438
 91  6 27 15 51  0.0000000  0  5G18G 2G16G11G19
  21584437.344     1280074.703 7    973002.97822        24.250           2.063
  23322229.977    -1933615.287 6  -1467684.34021        13.500           0.875
  23467987.523     -889600.322 6   -654420.31821        12.500           0.563
  23804208.469    -1335869.290 6   -985172.83721        14.000           0.719
  20665857.805      110713.167 6     84721.62221        18.500           1.344
 91  6 27 15 51 15.0000000  0  5G18G 2G16G11G19
  21591001.242     1314559.093 7    999873.90822        24.250           1.969
  23312945.117    -1982429.186 6  -1505721.09421        14.500           0.938
  23464103.891     -909972.373 5   -670294.61521        11.750           0.469
  23798052.461    -1368218.865 6  -1010380.27021        13.500           0.656
  20666600.648      114627.126 6     87771.46321        19.250           1.406
 91  6 27 15 51 30.0000000  0  5G18G 2G16G11G19
  21597579.203     1349123.974 7   1026807.56222        24.000           1.906
  23303662.563    -2031202.934 6  -1543726.57621        14.750           0.781
  23460253.547     -930220.913 6   -686072.68221        12.000           0.656
  23791916.617    -1400469.040 6  -1035510.24321        14.500           0.844
  20667357.609      118593.799 6     90862.36821        19.000           1.406
 91  6 27 15 51 45.0000000  0  5G18G 2G16G11G19
  21604168.039     1383751.648 7   1053790.14622        23.750           1.938
  23294387.727    -2079953.732 6  -1581714.17521        15.000           0.969
  23456423.727     -950363.437 6   -701768.14321        12.750           0.563
  23785796.539    -1432636.840 6  -1060576.00921        15.000           0.813
  20668117.594      122595.825 6     93980.82521        19.250           1.375
 91  6 27 15 52  0.0000000  0  5G18G 2G16G11G19
  21610771.742     1418455.849 7   1080832.35222        23.500           2.094
  23285114.586    -2128667.389 6  -1619672.80621        14.250           0.906
  23452609.500     -970385.654 6   -717369.84721        12.500           0.469
  23779691.398    -1464707.953 6  -1085566.45721        14.500           0.813
  20668890.203      126647.158 6     97137.70321        18.750           1.438
 91  6 27 15 52 15.0000000  0  5G18G 2G16G11G19
  21617386.063     1453224.089 7   1107924.45622        23.500           2.094
  23275849.328    -2177356.505 6  -1657612.34121        14.500           0.938
  23448822.430     -990300.194 6   -732887.65121        13.500           0.500
  23773605.961    -1496694.713 6  -1110491.16821        15.250           0.813
  20669665.320      130735.007 6    100323.02621        18.750           1.469
 91  6 27 15 52 30.0000000  0  5G18G 2G16G11G19
  21624017.531     1488066.750 7   1135074.55622        23.750           2.125
  23266594.219    -2226010.283 6  -1695524.32321        15.000           0.875
  23445060.984    -1010096.412 6   -748313.27121        14.250           0.500
  23767534.602    -1528586.197 6  -1135341.63621        14.500           0.688
  20670455.492      134869.935 6    103545.04921        17.750           1.344
 91  6 27 15 52 45.0000000  0  5G18G 2G16G11G19
  21630670.781     1523032.095 7   1162320.26322        23.750           2.031
  23257349.258    -2274579.866 6  -1733370.71421        15.000           0.938
  23441318.320    -1029725.664 6   -763608.76921        12.250           0.531
  23761495.977    -1560333.451 6  -1160079.72621        15.500           0.750
  20671258.789      139100.531 6    106841.61422        18.750           1.500
 91  6 27 15 53  0.0000000  0  5G18G 2G16G11G19
  21637343.258     1558093.649 7   1189640.92022        23.750           2.031
  23248120.555    -2323091.408 6  -1771171.87321        15.750           0.844
  23437612.430    -1049213.912 6   -778794.42421        13.000           0.594
  23755477.281    -1591962.404 6  -1184725.63121        15.500           0.844
  20672076.703      143400.418 6    110192.16722        17.750           1.500
 91  6 27 15 53 15.0000000  0  5G18G 2G16G11G19
  21644030.859     1593241.034 7   1217028.47522        23.750           1.969
  23238895.844    -2371554.857 6  -1808935.54321        14.750           1.000
  23433928.344    -1068571.204 6   -793878.00421        13.250           0.531
  23749478.211    -1623482.994 6  -1209287.10821        15.500           0.750
  20672907.008      147759.483 6    113588.83721        18.750           1.438
 91  6 27 15 53 30.0000000  0  5G18G 2G16G11G19
  21650732.742     1628457.818 7   1244470.09422        24.000           1.906
  23229678.875    -2419986.667 6  -1846674.57221        14.000           1.031
  23430265.430    -1087814.258 6   -808872.58021        12.500           0.469
  23743496.906    -1654911.621 6  -1233776.90521        15.250           0.781
  20673746.391      152160.879 6    117018.48621        17.750           1.469
 91  6 27 15 53 45.0000000  0  5G18G 2G16G11G19
  21657449.164     1663743.463 7   1271965.38422        23.750           1.938
  23220468.539    -2468386.722 6  -1884388.84721        14.250           1.000
  23426626.773    -1106942.882 5   -823777.97421        11.750           0.500
  23737534.031    -1686247.761 6  -1258194.65321        15.000           0.906
  20674590.914      156604.716 6    120481.21321        19.000           1.344
 91  6 27 15 54  0.0000000  0  5G18G 2G16G11G19
  21664179.836     1699109.363 7   1299523.20122        24.250           1.938
  23211266.422    -2516743.347 6  -1922069.27321        14.250           0.969
  23423012.094    -1125945.493 6   -838585.21721        12.000           0.500
  23731589.297    -1717479.699 6  -1282531.17121        15.000           0.906
  20675448.297      161102.432 6    123985.91421        19.000           1.344
 91  6 27 15 54 15.0000000  0  5G18G 2G16G11G19
  21670926.477     1734558.028 7   1327145.50922        24.250           1.969
  23202074.008    -2565053.727 6  -1959713.68621        15.250           0.813
  23419419.500    -1144819.234 5   -853292.01821        11.750           0.469
  23725667.484    -1748604.336 6  -1306784.09721        15.750           1.000
  20676311.406      165656.733 6    127534.71521        19.500           1.438
 91  6 27 15 54 30.0000000  0  5G18G 2G16G11G19
  21677683.258     1770086.302 7   1354829.85822        23.500           2.094
  23192889.781    -2613320.580 6  -1997324.18121        15.500           1.000
  23415845.797    -1163567.034 5   -867900.66421        10.750           0.531
  23719767.930    -1779624.432 6  -1330955.56921        16.500           1.063
  20677187.641      170264.663 6    131125.29821        18.250           1.406
 91  6 27 15 54 45.0000000  0  5G18G 2G16G11G19
  21684463.555     1805703.861 7   1382583.76922        23.500           1.938
  23183714.813    -2661534.085 6  -2034893.09221        15.000           0.938
  23412309.945    -1182178.948 5   -882403.44521        11.750           0.500
  23713885.172    -1810529.830 6  -1355037.67821        16.250           1.063
  20678076.992      174935.843 6    134765.17521        18.500           1.406
 91  6 27 15 55  0.0000000  0  5G18G 2G16G11G19
  21691258.266     1841407.437 7   1410404.70922        24.250           2.000
  23174547.891    -2709696.949 6  -2072422.53921        15.750           1.031
  23408795.148    -1200657.805 5   -896802.55221        11.500           0.469
  23708022.664    -1841323.155 6  -1379032.43421        15.250           0.906
  20678980.000      179667.236 6    138451.97321        17.500           1.406
 91  6 27 15 55 15.0000000  0  5G18G 2G16G11G19
  21698065.664     1877186.058 7   1438284.12822        24.250           1.938
  23165390.945    -2757819.987 6  -2109920.97021        15.000           0.969
  23405303.758    -1219014.498 6   -911106.46121        12.250           0.406
  23702185.117    -1872015.062 6  -1402948.17121        16.000           0.813
  20679886.148      184447.964 6    142177.20821        18.500           1.406
 91  6 27 15 55 30.0000000  0  5G18G 2G16G11G19
  21704889.461     1913046.068 7   1466226.96822        24.000           1.938
  23156241.258    -2805896.532 6  -2147383.14221        15.500           1.000
  23401830.656    -1237242.412 6   -925310.00521        12.000           0.469
  23696362.633    -1902598.674 6  -1426779.52921        15.750           0.906
  20680811.844      189284.542 6    145945.96821        18.250           1.344
 91  6 27 15 55 45.0000000  0  5G18G 2G16G11G19
  21711729.594     1948987.757 7   1494233.45622        24.500           1.938
  23147106.516    -2853925.695 6  -2184808.41721        16.750           1.000
  23398380.453    -1255340.866 5   -939412.68921        11.000           0.500
  23690565.188    -1933073.132 6  -1450525.82521        15.250           0.906
  20681740.289      194177.337 6    149758.51721        18.500           1.469
 91  6 27 15 56  0.0000000  0  5G18G 2G16G11G19
  21718585.195     1985013.654 7   1522305.55722        24.250           1.844
  23137974.445    -2901904.924 6  -2222194.76621        16.000           1.000
  23394965.398    -1273307.195 6   -953412.40921        12.000           0.531
  23684788.367    -1963435.571 6  -1474184.84621        15.250           0.906
  20682684.859      199128.936 6    153616.89321        18.250           1.469
 91  6 27 15 56 15.0000000  0  5G18G 2G16G11G19
  21725458.148     2021128.964 7   1550447.33322        24.250           1.875
  23128855.016    -2949828.673 6  -2259537.90121        15.250           1.000
  23391574.367    -1291135.976 6   -967304.94621        13.000           0.500
  23679031.125    -1993680.298 6  -1497752.13721        15.750           0.844
  20683637.484      204144.769 6    157525.33121        19.000           1.438
 91  6 27 15 56 30.0000000  0  5G18G 2G16G11G19
  21732348.063     2057327.980 7   1578654.33322        24.750           1.906
  23119744.617    -2997702.059 6  -2296841.77521        15.750           0.906
  23388208.484    -1308832.323 6   -981094.28821        13.000           0.594
  23673298.898    -2023812.447 6  -1521231.70521        15.000           0.875
  20684600.891      209219.236 6    161479.45121        17.500           1.469
 91  6 27 15 56 45.0000000  0  5G18G 2G16G11G19
  21739251.516     2093608.261 7   1606924.64422        24.500           1.906
  23110643.969    -3045527.401 6  -2334108.23321        16.500           0.906
  23384862.195    -1326398.525 6   -994782.22521        13.000           0.469
  23667581.789    -2053833.954 6  -1544625.06721        15.000           0.813
  20685576.070      214350.004 6    165477.44821        17.750           1.438
 91  6 27 15 57  0.0000000  0  5G18G 2G16G11G19
  21746167.328     2129972.095 7   1635260.07722        24.250           1.813
  23101550.445    -3093301.928 6  -2371335.09621        16.000           1.063
  23381545.906    -1343832.029 6  -1008366.77921        13.000           0.500
  23661893.805    -2083741.927 6  -1567929.96721        15.250           0.875
  20686566.633      219539.775 6    169521.41222        18.000           1.531
 91  6 27 15 57 15.0000000  0  5G18G 2G16G11G19
  21753105.039     2166419.548 7   1663660.66422        24.750           1.719
  23092465.125    -3141025.401 6  -2408522.16121        15.250           1.125
  23378252.078    -1361132.655 6  -1021847.76921        12.500           0.594
  23656222.555    -2113536.060 6  -1591146.15421        15.250           0.938
  20687564.148      224788.239 6    173611.12121        19.250           1.438
 91  6 27 15 57 30.0000000  0  5G18G 2G16G11G19
  21760057.992     2202947.313 7   1692123.83422        25.250           1.781
  23083399.547    -3188700.610 6  -2445671.61621        16.250           1.094
  23374982.766    -1378303.177 6  -1035227.38221        12.000           0.625
  23650574.156    -2143218.947 6  -1614275.64621        14.750           0.938
  20688576.313      230092.777 6    177744.52021        18.250           1.438
 91  6 27 15 57 45.0000000  0  5G18G 2G16G11G19
  21767022.313     2239556.601 7   1720650.52222        24.500           1.719
  23074335.320    -3236326.044 6  -2482782.28721        16.000           1.094
  23371747.930    -1395342.007 6  -1048504.38921        13.750           0.563
  23644946.594    -2172788.917 6  -1637317.14821        14.750           0.938
  20689595.273      235454.771 6    181922.68121        18.250           1.406
 91  6 27 15 58  0.0000000  0  5G18G 2G16G11G19
  21774004.172     2276247.461 7   1749240.78022        23.500           1.750
  23065278.289    -3283901.407 6  -2519853.95121        15.750           1.000
  23368525.930    -1412249.183 6  -1061678.79421        13.000           0.656
  23639342.828    -2202245.562 6  -1660270.35221        15.750           0.906
  20690626.805      240874.013 6    186145.46621        18.250           1.375
 91  6 27 15 58 15.0000000  0  5G18G 2G16G11G19
  21781001.195     2313014.476 7   1777890.36522        23.250           1.781
  23056234.516    -3331431.701 6  -2556890.50221        15.750           1.000
  23365333.688    -1429029.796 6  -1074754.59521        13.000           0.656
  23633756.313    -2231593.778 6  -1683139.07621        15.750           0.969
  20691666.234      246345.422 6    190408.90221        18.750           1.313
 91  6 27 15 58 30.0000000  0  5G18G 2G16G11G19
  21788014.219     2349868.706 7   1806607.91622        23.250           1.844
  23047202.414    -3378905.394 6  -2593882.93721        15.000           1.125
  23362164.742    -1445672.380 6  -1087722.83521        13.000           0.625
  23628192.750    -2260821.900 6  -1705914.22621        15.250           1.094
  20692719.969      251880.347 6    194721.82921        18.750           1.438
 91  6 27 15 58 45.0000000  0  5G18G 2G16G11G19
  21795040.211     2386797.623 7   1835383.66522        22.500           1.938
  23038178.813    -3426334.793 6  -2630840.84821        16.500           1.063
  23359021.719    -1462189.370 6  -1100593.19821        13.250           0.656
  23622656.414    -2289942.125 6  -1728605.29321        15.500           0.969
  20693783.438      257466.172 6    199074.42122        19.250           1.500
 91  6 27 15 59  0.0000000  0  5G18G 2G16G11G19
  21802082.961     2423808.313 7   1864223.13722        22.750           1.813
  23029163.227    -3473712.498 6  -2667758.50121        16.500           1.094
  23355906.133    -1478573.530 6  -1113360.05121        13.250           0.531
  23617135.070    -2318946.761 6  -1751206.26921        16.000           1.094
  20694856.500      263110.177 6    203472.33821        18.000           1.406
 91  6 27 15 59 15.0000000  0  5G18G 2G16G11G19
  21809144.195     2460903.096 7   1893128.13622        23.250           1.781
  23020152.992    -3521035.921 6  -2704633.84221        16.250           1.188
  23352813.625    -1494821.813 6  -1126021.04221        13.250           0.531
  23611636.367    -2347832.924 6  -1773714.95721        15.750           1.000
  20695941.781      268814.794 6    207917.49221        19.000           1.438
 91  6 27 15 59 30.0000000  0  5G18G 2G16G11G19
  21816218.828     2498079.857 7   1922097.00722        23.250           1.844
  23011163.219    -3568306.484 6  -2741467.99121        17.250           1.063
  23349750.898    -1510936.116 6  -1138577.65021        12.750           0.563
  23606165.016    -2376602.077 6  -1796132.46421        16.250           1.063
  20697044.289      274578.314 6    212408.54021        18.000           1.438
 91  6 27 15 59 45.0000000  0  5G18G 2G16G11G19
  21823309.414     2535335.859 7   1951127.62522        23.250           1.875
  23002174.844    -3615526.666 6  -2778262.89821        17.000           1.063
  23346706.617    -1526918.814 6  -1151031.68221        12.750           0.563
  23600709.531    -2405256.543 6  -1818460.59421        15.750           1.094
  20698145.516      280398.010 6    216943.37121        19.000           1.375
 91  6 27 16  0  0.0000000  0  5G18G 2G16G11G19
  21830412.141     2572671.471 7   1980220.27822        24.250           1.719
  22993195.977    -3662695.933 6  -2815018.11221        16.500           1.000
  23343693.969    -1542769.653 6  -1163382.99421        13.000           0.563
  23595279.648    -2433795.752 6  -1840698.91621        14.750           1.094
  20699269.148      286274.475 6    221522.43121        17.750           1.406
 91  6 27 16  0 15.0000000  0  5G18G 2G16G11G19
  21837529.914     2610086.715 7   2009374.99122        24.000           1.750
  22984235.039    -3709813.738 6  -2851733.23721        18.250           1.094
  23340704.023    -1558488.208 6  -1175631.19621        12.250           0.469
  23589870.547    -2462218.992 6  -1862846.86821        14.000           1.156
  20700392.352      292207.950 6    226145.90521        18.000           1.469
 91  6 27 16  0 30.0000000  0  5G18G 2G16G11G19
  21844669.125     2647582.435 7   2038592.40122        24.500           1.719
  22975274.609    -3756879.121 6  -2888407.51321        17.750           1.156
  23337733.047    -1574073.378 6  -1187775.47021        12.000           0.469
  23584483.203    -2490525.040 6  -1884903.51521        14.250           1.094
  20701533.281      298199.349 6    230814.52421        18.250           1.469
 91  6 27 16  0 45.0000000  0  5G18G 2G16G11G19
  21851819.531     2685160.345 7   2067873.85222        24.500           1.688
  22966329.477    -3803890.163 6  -2925039.45221        17.000           1.188
  23334795.672    -1589523.166 5  -1199814.28121        11.750           0.531
  23579118.844    -2518711.870 6  -1906867.26021        14.500           1.063
  20702686.539      304250.197 6    235529.47521        18.750           1.406
 91  6 27 16  1  0.0000000  0  5G18G 2G16G11G19
  21858985.367     2722815.743 7   2097215.69722        23.500           1.750
  22957391.680    -3850851.162 6  -2961632.37621        17.000           1.156
  23331876.141    -1604842.160 5  -1211751.13321        11.250           0.469
  23573781.484    -2546783.693 6  -1928741.38921        15.000           1.000
  20703848.086      310356.025 6    240287.26321        18.750           1.313
 91  6 27 16  1 15.0000000  0  5G18G 2G16G11G19
  21866164.617     2760547.370 7   2126616.92822        22.750           1.750
  22948465.992    -3897762.660 6  -2998186.74221        17.000           1.094
  23328988.242    -1620031.224 5  -1223586.77321        11.500           0.500
  23568456.508    -2574740.891 6  -1950526.21121        14.500           0.969
  20705020.305      316516.070 6    245087.30321        19.000           1.344
 91  6 27 16  1 30.0000000  0  5G18G 2G16G11G19
  21873356.852     2798356.188 7   2156078.31122        22.750           1.844
  22939550.164    -3944623.593 6  -3034701.70121        17.500           1.156
  23326120.117    -1635089.285 5  -1235320.31321        11.250           0.563
  23563162.914    -2602582.308 6  -1972220.81721        15.000           1.063
  20706206.664      322731.187 6    249930.23621        17.000           1.438
 91  6 27 16  1 45.0000000  0  5G18G 2G16G11G19
  21880570.281     2836249.008 7   2185605.15322        23.250           1.719
  22930643.391    -3991426.860 6  -3071171.73921        18.000           1.219
  23323286.148    -1650009.112 5  -1246946.13921        11.750           0.625
  23557884.820    -2630300.546 6  -1993819.42321        14.500           1.094
  20707397.266      329008.497 6    254821.64321        18.500           1.438
 91  6 27 16  2  0.0000000  0  5G18G 2G16G11G19
  21887792.859     2874222.646 7   2215194.96522        23.500           1.750
  22921746.313    -4038175.139 6  -3107598.93021        17.000           1.219
  23320470.016    -1664793.474 5  -1258466.41121        11.750           0.594
  23552634.359    -2657898.289 6  -2015324.15421        14.500           1.063
  20708605.609      335344.959 6    259759.14921        18.500           1.438
 91  6 27 16  2 15.0000000  0  5G18G 2G16G11G19
  21895041.133     2912273.523 7   2244844.97322        24.750           1.750
  22912861.750    -4084871.660 6  -3143985.77821        17.750           1.063
  23317683.633    -1679445.921 5  -1269883.92321        11.750           0.500
  23547403.234    -2685378.722 6  -2036737.46021        14.000           1.094
  20709818.438      341737.142 6    264740.07821        18.000           1.344
 91  6 27 16  2 30.0000000  0  5G18G 2G16G11G19
  21902292.938     2950403.009 7   2274556.23322        23.250           1.688
  22903988.242    -4131514.883 6  -3180331.10121        18.000           1.188
  23314920.984    -1693965.195 5  -1281197.60421        11.750           0.594
  23542196.945    -2712740.258 6  -2058058.11921        14.750           1.031
  20711046.570      348186.399 6    269765.47621        18.000           1.438
 91  6 27 16  2 45.0000000  0  5G18G 2G16G11G19
  21909564.258     2988614.004 7   2304330.99922        23.250           1.750
  22895117.828    -4178101.522 6  -3216632.32921        17.500           1.188
  23312182.398    -1708347.926 5  -1292404.93921        11.500           0.594
  23537013.727    -2739979.249 6  -2079283.32521        14.750           1.000
  20712284.648      354695.789 6    274837.71022        18.250           1.500
 91  6 27 16  3  0.0000000  0  5G18G 2G16G11G19
  21916847.531     3026899.064 7   2334163.47722        22.500           1.750
  22886265.711    -4224638.382 6  -3252894.77821        18.500           1.250
  23309473.766    -1722600.873 5  -1303511.12321        11.750           0.594
  23531849.656    -2767102.449 6  -2100418.27521        14.500           1.000
  20713536.055      361258.175 6    279951.25921        18.250           1.375
 91  6 27 16  3 15.0000000  0  5G18G 2G16G11G19
  21924153.273     3065263.930 7   2364058.14322        22.750           1.719
  22877422.555    -4271119.369 6  -3289113.68621        18.500           1.219
  23306784.945    -1736717.907 5  -1314511.40521        11.750           0.594
  23526718.336    -2794103.516 6  -2121458.05121        15.250           1.031
  20714794.789      367879.711 6    285110.89621        18.250           1.438
 91  6 27 16  3 30.0000000  0  5G18G 2G16G11G19
  21931466.203     3103707.707 7   2394014.29122        23.000           1.688
  22868585.438    -4317545.172 6  -3325289.57621        17.750           1.219
  23304125.828    -1750699.751 5  -1325406.32921        11.750           0.625
  23521598.813    -2820983.039 6  -2142403.12121        15.750           1.094
  20716066.375      374559.617 6    290316.01721        17.750           1.344
 91  6 27 16  3 45.0000000  0  5G18G 2G16G11G19
  21938797.719     3142229.370 7   2424031.14322        23.000           1.688
  22859760.563    -4363916.560 6  -3361423.07821        17.250           1.250
  23301485.883    -1764547.200 5  -1336196.56221        11.250           0.625
  23516511.672    -2847741.606 6  -2163253.94421        16.500           0.813
  20717348.508      381296.844 6    295565.80021        18.000           1.469
 91  6 27 16  4  0.0000000  0  5G18G 2G16G11G19
  21946141.484     3180831.332 7   2454110.55522        22.250           1.656
  22850943.211    -4410230.709 6  -3397511.98721        16.750           1.156
  23298875.758    -1778258.129 5  -1346880.39421        10.750           0.625
  23511439.445    -2874376.369 6  -2184008.30221        16.000           0.813
  20718642.938      388093.880 6    300862.18221        18.750           1.438
 91  6 27 16  4 15.0000000  0  5G18G 2G16G11G19
  21953503.789     3219512.228 7   2484251.47722        22.250           1.563
  22842141.227    -4456489.037 6  -3433557.39321        17.000           1.156
  23296294.648    -1791833.661 5  -1357458.71721        11.750           0.656
  23506395.305    -2900888.509 6  -2204667.11021        16.000           0.938
  20719946.156      394949.372 6    306204.12921        19.000           1.438
 91  6 27 16  4 30.0000000  0  5G18G 2G16G11G19
  21960877.430     3258268.937 7   2514451.46922        22.500           1.688
  22833354.516    -4502694.116 6  -3469561.31121        17.750           1.250
  23293741.078    -1805276.235 5  -1367933.44821        11.750           0.688
  23501369.852    -2927280.397 6  -2225232.20721        15.000           0.875
  20721262.680      401860.619 6    311589.50821        18.500           1.438
 91  6 27 16  4 45.0000000  0  5G18G 2G16G11G19
  21968271.258     3297103.130 7   2544711.84922        23.250           1.688
  22824569.281    -4548843.688 6  -3505521.96621        17.000           1.313
  23291203.375    -1818584.315 5  -1378303.37221        11.000           0.594
  23496372.570    -2953549.956 6  -2245701.99421        15.250           0.906
  20722588.063      408829.506 6    317019.80822        18.750           1.531
 91  6 27 16  5  0.0000000  0  5G18G 2G16G11G19
  21975673.602     3336016.528 7   2575033.93722        22.000           1.625
  22815801.078    -4594935.282 6  -3541437.44521        18.250           1.281
  23288697.438    -1831755.098 5  -1388566.31421        11.000           0.656
  23491396.125    -2979694.509 6  -2266074.37321        15.750           1.000
  20723925.648      415858.265 6    322496.76222        18.250           1.500
 91  6 27 16  5 15.0000000  0  5G18G 2G16G11G19
  21983093.508     3375005.328 7   2605414.78822        21.750           1.656
  22807039.383    -4640972.780 6  -3577310.78021        17.750           1.188
  23286221.180    -1844792.620 6  -1398725.41421        13.000           0.563
  23486447.641    -3005717.790 6  -2286352.23321        16.000           0.844
  20725271.945      422942.903 6    328017.25121        19.000           1.469
 91  6 27 16  5 30.0000000  0  5G18G 2G16G11G19
  21990523.563     3414072.163 7   2635856.42922        20.750           1.656
  22798284.156    -4686953.430 6  -3613139.82021        16.750           1.281
  23283767.719    -1857694.363 6  -1408778.71321        13.250           0.563
  23481517.648    -3031616.920 6  -2306533.37821        16.500           0.906
  20726634.508      430085.990 6    333583.28821        19.000           1.406
 91  6 27 16  5 45.0000000  0  5G18G 2G16G11G19
  21997977.352     3453216.590 7   2666358.54922        21.500           1.750
  22789551.086    -4732877.014 6  -3648924.38021        18.250           1.313
  23281333.164    -1870460.245 6  -1418726.15921        12.000           0.594
  23476616.219    -3057391.583 6  -2326617.52121        16.750           0.875
  20728002.547      437287.522 6    339194.86922        18.500           1.531
 91  6 27 16  6  0.0000000  0  5G18G 2G16G11G19
  22005439.375     3492440.192 7   2696922.35022        21.500           1.719
  22780821.531    -4778741.840 6  -3684663.15121        17.750           1.219
  23278930.828    -1883088.437 6  -1428566.28921        12.500           0.594
  23471735.664    -3083039.987 6  -2346603.29421        17.000           0.906
  20729387.672      444549.041 6    344853.20321        18.000           1.438
 91  6 27 16  6 15.0000000  0  5G18G 2G16G11G19
  22012917.773     3531741.629 7   2727546.81722        22.000           1.594
  22772103.516    -4824548.979 6  -3720356.98621        17.250           1.344
  23276551.383    -1895580.360 6  -1438300.26321        12.500           0.594
  23466873.320    -3108563.051 6  -2366491.38521        15.500           0.906
  20730778.547      451869.356 6    350557.33922        18.750           1.500
 91  6 27 16  6 30.0000000  0  5G18G 2G16G11G19
  22020415.758     3571120.841 7   2758231.88122        23.250           1.563
  22763398.078    -4870297.969 6  -3756005.50821        17.000           1.344
  23274203.117    -1907935.804 6  -1447927.88121        12.250           0.594
  23462041.063    -3133960.061 6  -2386281.24421        15.750           0.906
  20732183.781      459248.818 6    356307.55722        18.000           1.500
 91  6 27 16  6 45.0000000  0  5G18G 2G16G11G19
  22027919.594     3610575.106 7   2788975.42722        22.750           1.563
  22754703.477    -4915990.999 6  -3791610.42321        17.000           1.188
  23271877.477    -1920156.849 6  -1457450.76921        12.250           0.625
  23457233.164    -3159233.023 6  -2405974.46021        15.500           0.906
  20733598.086      466684.918 6    362101.91522        18.000           1.531
 91  6 27 16  7  0.0000000  0  5G18G 2G16G11G19
  22035443.859     3650107.515 7   2819779.87222        22.250           1.719
  22746020.203    -4961625.112 6  -3827169.42721        18.000           1.281
  23269577.039    -1932240.220 5  -1466866.37221        11.750           0.656
  23452443.594    -3184378.776 6  -2425568.54121        15.000           0.906
  20735025.453      474180.660 6    367942.74421        18.000           1.438
 91  6 27 16  7 15.0000000  0  5G18G 2G16G11G19
  22042979.164     3689718.770 7   2850645.73822        21.000           1.656
  22737347.313    -5007198.739 6  -3862681.30521        17.750           1.188
  23267305.344    -1944184.493 6  -1476173.60521        12.500           0.625
  23447688.008    -3209395.864 6  -2445062.36421        16.250           0.875
  20736461.703      481737.141 6    373830.91721        18.000           1.438
 91  6 27 16  7 30.0000000  0  5G18G 2G16G11G19
  22050532.672     3729405.032 7   2881570.05922        21.250           1.531
  22728680.352    -5052715.470 6  -3898148.84821        17.000           1.219
  23265055.773    -1955994.011 6  -1485375.82721        12.500           0.656
  23442951.359    -3234287.777 6  -2464458.64921        16.250           0.906
  20737910.305      489350.627 6    379763.49422        17.750           1.531
 91  6 27 16  7 45.0000000  0  5G18G 2G16G11G19
  22058096.414     3769167.841 7   2912554.02222        21.000           1.625
  22720032.500    -5098173.576 6  -3933570.71521        17.000           1.313
  23262834.359    -1967666.806 6  -1494471.50521        12.500           0.813
  23438236.320    -3259052.824 6  -2483756.07421        15.500           0.938
  20739370.195      497022.690 6    385741.72022        18.500           1.500
 91  6 27 16  8  0.0000000  0  5G18G 2G16G11G19
  22065679.852     3809007.605 7   2943597.95222        21.500           1.656
  22711398.055    -5143572.117 6  -3968946.15021        17.250           1.219
  23260642.914    -1979202.188 6  -1503460.11121        13.250           0.656
  23433554.164    -3283689.895 6  -2502953.77021        16.250           0.906
  20740842.750      504754.212 6    391766.27722        18.250           1.500
 91  6 27 16  8 15.0000000  0  5G18G 2G16G11G19
  22073276.570     3848928.377 7   2974705.01122        22.000           1.563
  22702769.891    -5188906.690 6  -4004271.74221        17.500           1.219
  23258469.336    -1990595.794 5  -1512338.24921        11.500           0.656
  23428886.766    -3308194.368 6  -2522048.16321        16.500           0.969
  20742323.969      512549.439 6    397840.47722        18.500           1.594
 91  6 27 16  8 30.0000000  0  5G18G 2G16G11G19
  22080885.359     3888920.194 7   3005867.42622        22.000           1.531
  22694152.055    -5234187.266 6  -4039555.27921        17.500           1.188
  23256325.781    -2001857.754 6  -1521113.79621        12.000           0.688
  23424244.023    -3332575.981 6  -2541046.80921        15.750           0.906
  20743820.898      520398.177 6    403956.37721        18.250           1.469
 91  6 27 16  8 45.0000000  0  5G18G 2G16G11G19
  22088511.094     3928984.525 7   3037086.34422        21.750           1.563
  22685544.492    -5279411.859 6  -4074795.18521        17.750           1.281
  23254211.523    -2012985.978 6  -1529785.14421        12.500           0.656
  23419632.367    -3356832.580 6  -2559948.04921        16.000           0.938
  20745321.477      528302.260 6    410115.40422        18.250           1.563
 91  6 27 16  9  0.0000000  0  5G18G 2G16G11G19
  22096149.281     3969127.186 7   3068366.29822        22.000           1.500
  22676953.023    -5324574.253 6  -4109986.62221        18.750           1.313
  23252116.992    -2023974.461 5  -1538347.59921        11.750           0.656
  23415038.125    -3380957.911 6  -2578746.98621        15.250           0.969
  20746840.227      536267.705 6    416322.24322        17.750           1.531
 91  6 27 16  9 15.0000000  0  5G18G 2G16G11G19
  22103803.703     4009346.337 7   3099705.85722        21.500           1.500
  22668370.078    -5369675.749 6  -4145130.61521        17.750           1.406
  23250057.820    -2034824.944 6  -1546802.50421        13.000           0.750
  23410478.414    -3404953.323 6  -2597444.69921        16.500           0.969
  20748364.531      544293.078 6    422575.77722        18.000           1.594
 91  6 27 16  9 30.0000000  0  5G18G 2G16G11G19
  22111473.469     4049640.647 7   3131103.97122        22.000           1.500
  22659798.609    -5414717.466 6  -4180228.01222        18.000           1.500
  23248019.445    -2045538.313 6  -1555150.57721        13.500           0.750
  23405931.938    -3428819.728 6  -2616041.88421        15.500           0.938
  20749903.828      552377.030 6    428874.95522        17.000           1.750
 91  6 27 16  9 45.0000000  0  5G18G 2G16G11G19
  22119153.445     4090008.294 7   3162559.23321        22.000           1.406
  22651241.813    -5459701.036 6  -4215280.10222        19.500           1.500
  23246002.305    -2056116.522 6  -1563393.33521        12.750           0.688
  23401414.398    -3452558.807 6  -2634539.84421        15.250           1.031
  20751450.297      560517.690 6    435218.32322        17.250           1.688
 91  6 27 16 10  0.0000000  0  5G18G 2G16G11G19
  22126849.203     4130449.851 7   3194072.09321        22.500           1.469
  22642689.188    -5504625.438 6  -4250286.09121        18.750           1.406
  23244016.063    -2066558.528 6  -1571529.97221        13.000           0.688
  23396921.898    -3476169.193 6  -2652937.53321        15.500           1.000
  20753014.273      568715.996 6    441606.61022        17.000           1.531
 91  6 27 16 10 15.0000000  0  5G18G 2G16G11G19
  22134559.719     4170965.434 7   3225642.63122        21.500           1.563
  22634151.820    -5549489.982 6  -4285245.44622        19.000           1.500
  23242055.008    -2076863.740 6  -1579559.99221        12.500           0.750
  23392453.680    -3499650.151 6  -2671234.36821        15.750           1.031
  20754586.281      576972.516 6    448040.26822        17.750           1.594
 91  6 27 16 10 30.0000000  0  5G18G 2G16G11G19
  22142285.445     4211557.668 7   3257272.88621        21.750           1.469
  22625625.633    -5594291.860 6  -4320155.96221        18.000           1.406
  23240122.195    -2087029.790 6  -1587481.57421        12.500           0.656
  23388010.203    -3522998.833 6  -2689428.10621        15.500           0.938
  20756169.875      585289.853 6    454521.30222        18.000           1.531
 91  6 27 16 10 45.0000000  0  5G18G 2G16G11G19
  22150023.398     4252222.815 7   3288959.96522        21.750           1.563
  22617111.195    -5639034.669 6  -4355020.45121        18.000           1.344
  23238211.055    -2097060.059 5  -1595297.37121        11.750           0.719
  23383593.109    -3546218.602 6  -2707521.40821        15.500           1.031
  20757761.891      593664.366 6    461046.89422        18.000           1.531
 91  6 27 16 11  0.0000000  0  5G18G 2G16G11G19
  22157770.898     4292961.023 7   3320703.97922        20.500           1.500
  22608609.063    -5683717.712 6  -4389838.37022        18.250           1.531
  23236331.078    -2106954.348 6  -1603007.19821        12.750           0.719
  23379195.078    -3569308.692 6  -2725513.66821        15.250           0.781
  20759364.188      602096.464 6    467617.35822        18.500           1.594
 91  6 27 16 11 15.0000000  0  5G18G 2G16G11G19
  22165539.180     4333773.833 7   3352506.11821        20.250           1.375
  22600119.258    -5728338.988 6  -4424608.14122        19.000           1.625
  23234477.023    -2116710.528 6  -1610609.41721        13.250           0.688
  23374830.930    -3592267.074 6  -2743403.29521        15.500           0.750
  20760983.000      610588.009 6    474234.15122        18.250           1.656
 91  6 27 16 11 30.0000000  0  5G18G 2G16G11G19
  22173320.461     4374658.990 7   3384364.63921        21.250           1.469
  22591636.938    -5772900.400 6  -4459331.28622        18.250           1.563
  23232642.078    -2126330.616 6  -1618105.58821        12.250           0.656
  23370485.125    -3615095.625 6  -2761191.74821        15.250           0.750
  20762610.453      619136.904 6    480895.62122        17.500           1.656
 91  6 27 16 11 45.0000000  0  5G18G 2G16G11G19
  22181116.883     4415622.900 7   3416284.52321        21.750           1.438
  22583174.008    -5817395.458 6  -4494002.73322        18.000           1.500
  23230840.445    -2135807.963 6  -1625490.53521        12.750           0.625
  23366164.375    -3637787.480 6  -2778873.68121        14.750           0.844
  20764247.039      627749.494 6    487606.72522        18.000           1.563
 91  6 27 16 12  0.0000000  0  5G18G 2G16G11G19
  22188926.164     4456655.052 7   3448257.58521        21.500           1.438
  22574718.000    -5861834.052 6  -4528630.16722        18.750           1.500
  23229058.695    -2145152.730 6  -1632772.16721        12.250           0.688
  23361871.703    -3660352.608 6  -2796456.87021        14.750           0.938
  20765900.086      636415.446 6    494359.42422        17.750           1.563
 91  6 27 16 12 15.0000000  0  5G18G 2G16G11G19
  22196746.477     4497762.189 7   3480289.07021        20.500           1.344
  22566269.211    -5906209.181 6  -4563208.15622        18.500           1.625
  23227307.297    -2154358.225 5  -1639945.28421        11.500           0.656
  23357604.242    -3682783.877 6  -2813935.76521        15.250           0.969
  20767556.422      645141.778 6    501159.15722        18.000           1.625
 91  6 27 16 12 30.0000000  0  5G18G 2G16G11G19
  22204583.148     4538939.673 6   3512375.36921        19.750           1.406
  22557836.930    -5950525.070 6  -4597739.96922        18.500           1.531
  23225582.320    -2163429.036 6  -1647013.43621        12.250           0.688
  23353359.078    -3705085.551 6  -2831313.65221        15.750           0.969
  20769231.570      653924.198 6    508002.59622        16.500           1.625
 91  6 27 16 12 45.0000000  0  5G18G 2G16G11G19
  22212430.602     4580195.295 7   3544522.55321        20.000           1.375
  22549417.195    -5994773.726 6  -4632219.40522        18.750           1.531
  23223878.680    -2172357.109 5  -1653970.37621        11.500           0.719
  23349143.773    -3727249.452 6  -2848584.19721        15.000           0.938
  20770910.375      662770.488 6    514895.79922        18.000           1.688
 91  6 27 16 13  0.0000000  0  5G18G 2G16G11G19
  22220293.953     4621520.595 6   3576724.04521        19.750           1.344
  22541009.836    -6038963.318 6  -4666652.82122        18.500           1.500
  23222213.992    -2181150.733 6  -1660822.55221        13.750           0.688
  23344950.219    -3749283.681 6  -2865753.70921        14.750           0.875
  20772606.008      671672.237 6    521832.22522        18.750           1.656
 91  6 27 16 13 15.0000000  0  5G18G 2G16G11G19
  22228177.250     4662918.611 7   3608982.18321        20.000           1.250
  22532613.211    -6083090.362 6  -4701037.49122        18.750           1.531
  23220567.211    -2189806.290 6  -1667567.13521        13.750           0.625
  23340782.813    -3771184.522 6  -2882819.26821        16.000           0.906
  20774310.570      680632.984 6    528814.63222        18.250           1.625
 91  6 27 16 13 30.0000000  0  5G18G 2G16G11G19
  22236070.422     4704393.384 7   3641300.12621        21.250           1.188
  22524227.031    -6127150.344 6  -4735369.89922        18.500           1.656
  23218942.789    -2198319.561 6  -1674200.86421        12.750           0.625
  23336642.344    -3792947.510 6  -2899777.41421        16.250           0.906
  20776026.523      689656.907 6    535846.24722        17.500           1.656
 91  6 27 16 13 45.0000000  0  5G18G 2G16G11G19
  22243974.523     4745941.160 7   3673674.96921        21.000           1.219
  22515856.445    -6171146.889 6  -4769652.89422        19.000           1.656
  23217350.141    -2206694.247 6  -1680726.60521        13.250           0.719
  23332526.305    -3814576.083 6  -2916630.82021        16.750           0.906
  20777754.484      698740.228 6    542924.15622        17.250           1.594
 91  6 27 16 14  0.0000000  0  5G18G 2G16G11G19
  22251895.914     4787560.334 7   3706105.44721        21.500           1.094
  22507493.781    -6215081.116 6  -4803887.32022        18.000           1.594
  23215785.930    -2214931.860 6  -1687145.50821        13.750           0.656
  23328436.133    -3836071.267 6  -2933380.28421        17.250           0.969
  20779498.219      707881.689 6    550047.36922        16.000           1.656
 91  6 27 16 14 15.0000000  0  5G18G 2G16G11G19
  22259828.617     4829252.534 7   3738592.82421        20.500           1.250
  22499146.398    -6258950.974 6  -4838071.58522        18.500           1.594
  23214241.617    -2223030.454 6  -1693456.09521        12.500           0.781
  23324372.258    -3857431.026 6  -2950024.23721        16.750           0.938
  20781247.688      717083.084 6    557217.28422        18.000           1.656
 91  6 27 16 14 30.0000000  0  5G18G 2G16G11G19
  22267775.102     4871014.422 7   3771134.50321        20.000           1.219
  22490811.984    -6302759.497 6  -4872208.05822        19.500           1.563
  23212724.500    -2230993.193 6  -1699660.83121        12.500           0.750
  23320331.430    -3878658.381 6  -2966565.01621        17.250           0.844
  20783010.164      726341.212 6    564431.41222        17.500           1.656
 91  6 27 16 14 45.0000000  0  5G18G 2G16G11G19
  22275734.117     4912847.420 6   3803731.58121        19.750           1.344
  22482483.445    -6346504.919 6  -4906295.36222        18.250           1.625
  23211237.672    -2238818.232 6  -1705758.27521        13.250           0.656
  23316319.211    -3899751.327 6  -2983001.06521        17.000           0.781
  20784780.633      735657.801 6    571691.09422        17.500           1.594
 91  6 27 16 15  0.0000000  0  5G18G 2G16G11G19
  22283708.828     4954756.011 6   3836387.57221        19.750           1.375
  22474171.508    -6390182.359 6  -4940329.70022        18.250           1.656
  23209775.797    -2246500.936 6  -1711744.79321        13.250           0.719
  23312329.008    -3920704.922 6  -2999328.50521        17.000           0.813
  20786567.859      745037.474 6    578999.92022        17.750           1.656
 91  6 27 16 15 15.0000000  0  5G18G 2G16G11G19
  22291697.641     4996738.135 6   3869100.85121        19.250           1.250
  22465875.305    -6433793.699 6  -4974312.52422        19.500           1.719
  23208343.641    -2254043.384 6  -1717622.02721        13.500           0.750
  23308369.680    -3941520.915 6  -3015548.73721        17.000           0.875
  20788359.984      754478.353 6    586356.45022        18.000           1.625
 91  6 27 16 15 30.0000000  0  5G18G 2G16G11G19
  22299702.664     5038790.241 6   3901868.67221        19.500           1.281
  22457587.281    -6477341.916 6  -5008246.15722        19.250           1.625
  23206932.047    -2261448.561 6  -1723392.29621        13.000           0.625
  23304433.617    -3962202.175 6  -3031663.98921        17.250           0.875
  20790170.734      763977.218 6    593758.15622        17.500           1.719
 91  6 27 16 15 45.0000000  0  5G18G 2G16G11G19
  22307716.867     5080912.312 7   3934691.01221        20.250           1.219
  22449309.508    -6520826.749 6  -5042130.41922        18.250           1.625
  23205547.070    -2268716.404 6  -1729055.55321        13.000           0.688
  23300524.133    -3982748.171 6  -3047673.83621        16.250           0.875
  20791989.555      773534.205 6    601205.15722        18.250           1.656
 91  6 27 16 16  0.0000000  0  5G18G 2G16G11G19
  22315742.391     5123107.909 6   3967570.63321        19.250           1.250
  22441046.641    -6564244.595 6  -5075962.46822        19.000           1.656
  23204192.047    -2275843.978 6  -1734609.49821        13.500           0.688
  23296633.281    -4003155.411 6  -3063575.55521        15.000           0.844
  20793818.680      783152.789 6    608700.15222        18.000           1.625
 91  6 27 16 16 15.0000000  0  5G18G 2G16G11G19
  22323789.945     5165374.167 6   4000505.32521        19.500           1.188
  22432798.523    -6607597.738 6  -5109744.11622        19.750           1.719
  23202859.117    -2282833.315 6  -1740055.75421        12.500           0.688
  23292782.695    -4023426.104 6  -3079370.85921        16.500           0.781
  20795658.828      792830.485 6    616241.21722        17.750           1.688
 91  6 27 16 16 30.0000000  0  5G18G 2G16G11G19
  22331844.563     5207709.022 7   4033493.46121        20.000           1.094
  22424564.461    -6650887.679 7  -5143476.49422        20.250           1.750
  23201556.773    -2289686.117 6  -1745395.59021        13.250           0.625
  23288949.273    -4043561.692 6  -3095060.89121        16.250           0.844
  20797513.992      802565.535 6    623826.97022        17.750           1.688
 91  6 27 16 16 45.0000000  0  5G18G 2G16G11G19
  22339916.180     5250112.976 7   4066535.46121        20.250           1.125
  22416337.125    -6694113.583 6  -5177158.99222        19.500           1.594
  23200283.477    -2296401.597 6  -1750628.43621        14.250           0.625
  23285145.156    -4063561.297 6  -3110644.98521        16.750           0.906
  20799375.594      812358.675 6    631457.97722        17.750           1.688
 91  6 27 16 17  0.0000000  0  5G18G 2G16G11G19
  22347997.547     5292585.277 6   4099630.70521        19.250           1.125
  22408126.586    -6737275.825 7  -5210791.88422        20.250           1.656
  23199028.422    -2302980.089 6  -1755754.52221        13.500           0.656
  23281365.398    -4083425.172 6  -3126123.30321        18.000           0.906
  20801254.227      822209.408 6    639133.85822        17.500           1.719
 91  6 27 16 17 15.0000000  0  5G18G 2G16G11G19
  22356094.188     5335125.272 6   4132778.68521        19.750           1.125
  22399922.234    -6780374.940 6  -5244375.57822        19.250           1.688
  23197801.703    -2309422.513 6  -1760774.61021        13.750           0.719
  23277613.508    -4103153.777 6  -3141496.22521        18.500           0.813
  20803136.750      832117.130 6    646854.16222        17.750           1.656
 91  6 27 16 17 30.0000000  0  5G18G 2G16G11G19
  22364201.242     5377735.548 7   4165981.43121        20.000           1.156
  22391731.234    -6823407.836 6  -5277907.67822        19.000           1.656
  23196608.453    -2315726.005 6  -1765686.41521        15.250           0.531
  23273882.258    -4122743.977 6  -3156761.29621        17.000           0.844
  20805035.195      842084.626 6    654621.03622        17.500           1.781
 91  6 27 16 17 45.0000000  0  5G18G 2G16G11G19
  22372323.313     5420415.305 7   4199238.32721        20.250           1.219
  22383556.813    -6866375.213 7  -5311388.71022        20.500           1.656
  23195430.820    -2321891.236 6  -1770490.51221        13.500           0.563
  23270180.625    -4142196.255 6  -3171918.89221        16.500           0.906
  20806940.609      852111.128 6    662433.88922        17.500           1.688
 91  6 27 16 18  0.0000000  0  5G18G 2G16G11G19
  22380457.844     5463161.099 7   4232546.67721        20.500           1.250
  22375392.820    -6909280.141 7  -5344821.09022        20.250           1.688
  23194283.445    -2327921.728 6  -1775189.59521        14.000           0.656
  23266504.930    -4161513.629 6  -3186971.36621        16.750           0.969
  20808861.563      862193.337 6    670290.14022        17.500           1.781
 91  6 27 16 18 15.0000000  0  5G18G 2G16G11G19
  22388605.648     5505975.211 7   4265908.26221        20.250           1.281
  22367238.508    -6952119.687 6  -5378202.52422        19.500           1.688
  23193157.539    -2333814.544 6  -1779781.42021        12.750           0.563
  23262854.852    -4180693.198 6  -3201916.47521        17.000           0.938
  20810790.094      872333.988 6    678191.94422        18.500           1.781
 91  6 27 16 18 30.0000000  0  5G18G 2G16G11G19
  22396767.336     5548861.053 7   4299325.73021        20.500           1.313
  22359101.727    -6994890.123 6  -5411530.10722        19.750           1.781
  23192058.023    -2339566.240 5  -1784263.27321        11.750           0.719
  23259233.461    -4199731.146 6  -3216751.22021        18.000           1.031
  20812731.555      882536.859 6    686142.23422        17.500           1.813
 91  6 27 16 18 45.0000000  0  5G18G 2G16G11G19
  22404937.320     5591811.953 6   4332793.89521        19.750           1.281
  22350974.047    -7037597.865 7  -5444808.82622        20.500           1.625
  23190990.773    -2345183.146 5  -1788640.07221        11.750           0.594
  23255635.195    -4218633.803 6  -3231480.53621        17.500           0.938
  20814682.828      892795.324 6    694135.82822        18.250           1.750
 91  6 27 16 19  0.0000000  0  5G18G 2G16G11G19
  22413124.289     5634832.703 7   4366316.51021        20.500           1.313
  22342860.961    -7080237.710 7  -5478034.65122        20.000           1.625
  23189951.984    -2350660.477 6  -1792908.11921        12.500           0.688
  23252066.641    -4237395.952 6  -3246100.37521        17.250           0.844
  20816647.977      903114.300 6    702176.57922        17.500           1.656
 91  6 27 16 19 15.0000000  0  5G18G 2G16G11G19
  22421324.633     5677922.203 6   4399892.67521        19.250           1.188
  22334760.563    -7122810.565 7  -5511208.27322        20.500           1.750
  23188937.289    -2355999.181 6  -1797068.15721        12.250           0.563
  23248521.859    -4256018.346 6  -3260611.30421        17.250           0.906
  20818622.328      913492.935 6    710263.82722        18.250           1.688
 91  6 27 16 19 30.0000000  0  5G18G 2G16G11G19
  22429535.523     5721078.317 6   4433520.75121        18.000           1.281
  22326666.438    -7165317.955 7  -5544330.88222        20.500           1.594
  23187946.977    -2361200.759 6  -1801121.34021        13.250           0.688
  23245002.500    -4274502.504 6  -3275014.53121        17.250           0.969
  20820607.797      923929.396 6    718396.12522        17.750           1.781
 91  6 27 16 19 45.0000000  0  5G18G 2G16G11G19
  22437766.242     5764303.723 6   4467202.81221        19.250           1.156
  22318596.875    -7207757.109 7  -5577400.32022        21.750           1.719
  23186985.172    -2366262.678 6  -1805065.69621        12.000           0.594
  23241511.797    -4292845.430 6  -3289307.69521        17.500           0.969
  20822604.711      934426.488 6    726575.67122        18.000           1.656
 91  6 27 16 20  0.0000000  0  5G18G 2G16G11G19
  22446000.500     5807597.367 6   4500938.05021        19.250           1.156
  22310530.102    -7250128.632 7  -5610417.06522        20.750           1.656
  23186047.961    -2371185.993 6  -1808902.04721        12.500           0.625
  23238050.117    -4311047.736 6  -3303491.28921        17.750           1.000
  20824615.258      944983.223 6    734801.68522        17.250           1.688
 91  6 27 16 20 15.0000000  0  5G18G 2G16G11G19
  22454255.250     5850957.448 6   4534725.07321        19.250           1.250
  22302478.016    -7292433.950 7  -5643382.21322        20.250           1.688
  23185138.891    -2375971.972 6  -1812631.39221        12.250           0.531
  23234613.078    -4329110.834 6  -3317566.40721        17.750           1.000
  20826634.703      955598.057 6    743072.97522        18.000           1.781
 91  6 27 16 20 30.0000000  0  5G18G 2G16G11G19
  22462518.703     5894385.872 6   4568565.33221        19.000           1.188
  22294443.344    -7334670.826 7  -5676294.03622        20.750           1.656
  23184255.172    -2380618.621 6  -1816252.14421        12.250           0.656
  23231203.133    -4347032.292 6  -3331531.15521        17.750           1.094
  20828665.438      966273.352 6    751391.37622        17.500           1.656
 91  6 27 16 20 45.0000000  0  5G18G 2G16G11G19
  22470787.523     5937880.854 6   4602457.44421        18.250           1.250
  22286420.078    -7376840.703 7  -5709153.64722        21.750           1.656
  23183397.313    -2385127.401 6  -1819765.48921        13.000           0.594
  23227815.750    -4364813.491 6  -3345386.62221        16.750           1.031
  20830708.938      977007.308 6    759755.49122        17.750           1.688
 91  6 27 16 21  0.0000000  0  5G18G 2G16G11G19
  22479085.875     5981447.905 7   4636405.73921        20.250           1.219
  22278405.547    -7418937.752 7  -5741956.51422        20.500           1.594
  23182564.227    -2389492.748 6  -1823167.06821        12.250           0.563
  23224462.719    -4382448.635 6  -3359128.26921        18.000           0.906
  20832762.586      987805.578 6    768169.72222        17.250           1.750
 91  6 27 16 21 15.0000000  0  5G18G 2G16G11G19
  22487391.820     6025082.342 7   4670406.52121        20.500           1.125
  22270407.734    -7460966.201 7  -5774705.92322        20.750           1.781
  23181763.117    -2393718.936 6  -1826460.19321        13.000           0.563
  23221133.289    -4399941.890 6  -3372759.36021        16.500           0.813
  20834830.039      998663.898 6    776630.74722        17.750           1.625
 91  6 27 16 21 30.0000000  0  5G18G 2G16G11G19
  22495702.031     6068779.987 6   4704456.57721        19.000           1.250
  22262422.695    -7502929.989 7  -5807404.95622        20.750           1.656
  23180981.242    -2397810.543 6  -1829648.48821        13.000           0.688
  23217830.539    -4417297.186 6  -3386282.94221        16.750           0.813
  20836907.367     1009578.230 6    785135.40822        17.500           1.656
 91  6 27 16 21 45.0000000  0  5G18G 2G16G11G19
  22504032.664     6112544.557 6   4738558.76721        19.000           1.125
  22254453.766    -7544825.165 7  -5840050.51222        21.250           1.688
  23180233.016    -2401763.696 6  -1832728.87021        12.750           0.531
  23214555.617    -4434510.390 6  -3399695.82221        17.000           0.906
  20838995.398     1020552.301 6    793686.62722        18.000           1.625
 91  6 27 16 22  0.0000000  0  5G18G 2G16G11G19
  22512369.688     6156373.365 6   4772711.00521        18.000           1.219
  22246491.727    -7586653.676 7  -5872644.12722        21.750           1.719
  23179506.578    -2405580.290 6  -1835702.83921        12.750           0.625
  23211307.063    -4451583.624 6  -3412999.64121        15.750           0.906
  20841096.039     1031583.985 6    802282.74422        18.000           1.656
 91  6 27 16 22 15.0000000  0  5G18G 2G16G11G19
  22520722.086     6200266.130 6   4806913.08821        17.750           1.094
  22238546.531    -7628415.664 7  -5905185.90722        22.000           1.688
  23178805.391    -2409260.816 6  -1838570.80121        13.000           0.625
  23208083.250    -4468516.917 6  -3426194.39121        16.500           0.844
  20843202.859     1042672.990 6    810923.51422        18.000           1.625
 91  6 27 16 22 30.0000000  0  5G18G 2G16G11G19
  22529090.484     6244226.638 6   4841167.95121        18.500           1.031
  22230607.984    -7670107.195 7  -5937672.77522        21.000           1.688
  23178128.172    -2412801.343 6  -1841329.66221        12.000           0.594
  23204888.391    -4485306.053 6  -3439276.81621        16.500           0.875
  20845326.539     1053823.222 6    819611.99722        17.750           1.719
 91  6 27 16 22 45.0000000  0  5G18G 2G16G11G19
  22537463.633     6288251.126 6   4875472.68621        18.250           1.094
  22222690.570    -7711731.286 7  -5970107.09722        22.000           1.813
  23177478.570    -2416205.059 6  -1843981.90721        12.500           0.500
  23201719.883    -4501954.043 6  -3452249.25521        16.000           0.813
  20847460.336     1065031.379 6    828345.61922        18.500           1.656
 91  6 27 16 23  0.0000000  0  5G18G 2G16G11G19
  22545860.492     6332337.264 6   4909825.46121        18.750           1.063
  22214780.516    -7753290.060 7  -6002490.51922        22.000           1.781
  23176857.516    -2419474.510 5  -1846529.52821        11.750           0.563
  23198581.500    -4518462.968 6  -3465113.35021        16.000           0.844
  20849604.391     1076295.282 6    837122.68122        18.250           1.750
 91  6 27 16 23 15.0000000  0  5G18G 2G16G11G19
  22554257.297     6376489.514 6   4944229.73021        17.500           1.156
  22206886.398    -7794778.757 7  -6034819.35022        21.500           1.813
  23176265.336    -2422604.918 6  -1848968.83921        13.000           0.563
  23195463.320    -4534828.185 6  -3477865.44721        16.000           0.781
  20851758.203     1087619.399 6    845946.65722        18.500           1.719
 91  6 27 16 23 30.0000000  0  5G18G 2G16G11G19
  22562675.477     6420708.436 6   4978685.95521        17.750           1.094
  22199006.047    -7836196.509 7  -6067092.87522        21.750           1.938
  23175696.375    -2425595.605 6  -1851299.23721        13.000           0.656
  23192377.719    -4551048.636 6  -3490504.75121        16.250           0.813
  20853924.188     1099004.568 6    854818.21022        18.500           1.781
 91  6 27 16 23 45.0000000  0  5G18G 2G16G11G19
  22571100.633     6464992.637 6   5013193.04921        18.000           1.156
  22191135.961    -7877544.126 7  -6099311.77022        21.500           1.969
  23175146.797    -2428447.706 6  -1853521.67021        12.250           0.531
  23189318.594    -4567125.041 6  -3503031.81221        16.500           0.875
  20856101.305     1110449.959 6    863736.69022        18.500           1.688
 91  6 27 16 24  0.0000000  0  5G18G 2G16G11G19
  22579542.586     6509338.277 6   5047748.02021        18.500           1.000
  22183280.352    -7918825.446 7  -6131478.99722        21.500           1.938
  23174636.141    -2431165.033 6  -1855639.06621        13.000           0.625
  23186286.906    -4583061.295 6  -3515449.65921        16.500           0.969
  20858291.000     1121951.438 6    872698.88122        17.750           1.625
 91  6 27 16 24 15.0000000  0  5G18G 2G16G11G19
  22587990.883     6553748.494 6   5082353.30821        18.500           1.000
  22175441.219    -7960036.772 7  -6163591.68222        21.250           1.875
  23174146.133    -2433744.180 6  -1857648.81121        13.250           0.531
  23183280.734    -4598853.506 6  -3527755.26921        15.500           0.844
  20860489.867     1133512.558 6    881707.53822        18.250           1.719
 91  6 27 16 24 30.0000000  0  5G18G 2G16G11G19
  22596455.438     6598220.691 6   5117006.89821        18.250           1.063
  22167610.422    -8001180.299 7  -6195651.53622        21.000           1.844
  23173678.148    -2436187.749 6  -1859552.90321        12.750           0.563
  23180302.547    -4614503.929 6  -3539950.40521        15.750           0.844
  20862704.133     1145131.037 6    890760.88722        17.250           1.688
 91  6 27 16 24 45.0000000  0  5G18G 2G16G11G19
  22604928.906     6642755.051 6   5151708.92021        18.250           1.125
  22159794.703    -8042255.404 7  -6227658.08822        20.750           1.969
  23173240.500    -2438494.880 6  -1861350.65421        12.500           0.531
  23177351.320    -4630011.833 6  -3552034.47521        15.750           0.813
  20864923.930     1156807.408 6    899859.34722        18.500           1.656
 91  6 27 16 25  0.0000000  0  5G18G 2G16G11G19
  22613414.422     6687351.693 6   5186459.48321        17.500           0.938
  22151992.813    -8083261.892 7  -6259611.15222        21.000           1.969
  23172828.047    -2440665.579 6  -1863042.14721        12.750           0.531
  23174430.805    -4645376.892 6  -3564007.23821        16.000           0.875
  20867159.758     1168541.784 6    909003.01622        17.250           1.719
 91  6 27 16 25 15.0000000  0  5G18G 2G16G11G19
  22621913.711     6732012.212 6   5221259.80321        18.000           1.063
  22144200.938    -8124197.780 7  -6291509.20722        21.500           1.938
  23172443.039    -2442698.500 6  -1864626.23821        13.250           0.563
  23171531.203    -4660597.260 6  -3575867.25321        15.000           0.844
  20869398.852     1180335.911 6    918193.23922        18.000           1.688
 91  6 27 16 25 30.0000000  0  5G18G 2G16G11G19
  22630425.922     6776730.598 6   5256105.23221        18.250           1.031
  22136423.828    -8165068.708 7  -6323356.66622        21.250           2.000
  23172081.695    -2444599.427 6  -1866107.46921        13.750           0.500
  23168661.836    -4675678.557 6  -3587618.91921        15.000           0.906
  20871653.539     1192183.995 6    927425.50522        18.000           1.625
 91  6 27 16 25 45.0000000  0  5G18G 2G16G11G19
  22638945.805     6821512.050 6   5290999.78921        17.500           1.031
  22128659.367    -8205869.266 7  -6355149.26722        20.750           1.969
  23171743.258    -2446362.684 6  -1867481.48121        13.000           0.594
  23165817.656    -4690614.949 6  -3599257.66021        16.000           0.875
  20873923.461     1204091.617 6    936704.16122        18.500           1.500
 91  6 27 16 26  0.0000000  0  5G18G 2G16G11G19
  22647478.242     6866355.678 6   5325942.79221        17.500           0.969
  22120907.086    -8246599.869 7  -6386887.37522        20.500           2.000
  23171435.836    -2447989.146 6  -1868748.84521        13.000           0.531
  23163005.906    -4705407.129 6  -3610784.02521        16.750           0.875
  20876197.555     1216057.853 6    946028.49922        18.500           1.656
 91  6 27 16 26 15.0000000  0  5G18G 2G16G11G19
  22656025.688     6911264.561 6   5360936.64421        18.000           0.969
  22113170.539    -8287256.905 7  -6418568.14322        21.250           1.906
  23171150.133    -2449475.387 6  -1869906.96321        12.000           0.625
  23160219.688    -4720051.478 6  -3622195.20021        16.250           1.000
  20878488.273     1228086.234 6    955401.26122        18.250           1.688
 91  6 27 16 26 30.0000000  0  5G18G 2G16G11G19
  22664579.461     6956234.408 6   5395978.00521        18.250           1.031
  22105445.688    -8327844.445 7  -6450194.77122        21.250           1.813
  23170890.664    -2450825.371 5  -1870958.93321        11.750           0.594
  23157454.867    -4734551.873 6  -3633494.19221        15.000           1.000
  20880791.977     1240172.684 6    964819.26222        16.750           1.719
 91  6 27 16 26 45.0000000  0  5G18G 2G16G11G19
  22673148.586     7001261.723 6   5431064.15521        18.000           0.938
  22097736.117    -8368365.491 7  -6481769.58622        21.000           1.813
  23170659.406    -2452042.458 5  -1871907.31121        11.750           0.594
  23154726.773    -4748911.370 6  -3644683.41621        16.250           1.000
  20883098.258     1252313.963 6    974279.99022        18.250           1.688
 91  6 27 16 27  0.0000000  0  5G18G 2G16G11G19
  22681731.813     7046351.405 6   5466198.89421        17.750           0.969
  22090040.008    -8408814.975 7  -6513288.63122        21.500           1.938
  23170455.102    -2453122.067 5  -1872748.58221        11.500           0.563
  23152023.547    -4763125.053 6  -3655759.00421        17.250           1.031
  20885420.352     1264514.928 6    983787.23022        17.500           1.656
 91  6 27 16 27 15.0000000  0  5G18G 2G16G11G19
  22690319.094     7091501.603 6   5501380.79921        17.250           1.000
  22082354.305    -8449194.355 7  -6544753.05022        21.500           1.938
  23170274.563    -2454065.815 5  -1873483.97021        11.500           0.594
  23149343.898    -4777194.115 6  -3666721.90121        16.250           0.906
  20887750.156     1276774.115 6    993339.83922        18.250           1.625
 91  6 27 16 27 30.0000000  0  5G18G 2G16G11G19
  22698925.430     7136709.947 6   5536607.99921        17.500           1.031
  22074685.141    -8489505.579 7  -6576164.36822        21.750           1.813
  23170119.891    -2454875.803 5  -1874115.15421        11.500           0.563
  23146692.648    -4791120.519 6  -3677573.65821        15.750           1.000
  20890095.469     1289089.519 6   1002936.24222        18.000           1.688
 91  6 27 16 27 45.0000000  0  5G18G 2G16G11G19
  22707540.172     7181979.615 6   5571882.97821        17.000           0.906
  22067026.258    -8529745.215 7  -6607519.90222        22.250           1.875
  23169990.867    -2455548.638 5  -1874639.45121        11.500           0.563
  23144074.180    -4804901.001 6  -3688311.68421        16.250           0.938
  20892449.070     1301464.260 6   1012578.89722        18.000           1.688
 91  6 27 16 28  0.0000000  0  5G18G 2G16G11G19
  22716167.742     7227308.873 6   5607204.40321        17.500           1.000
  22059380.602    -8569914.998 7  -6638821.00822        21.000           2.000
  23169891.734    -2456086.133 6  -1875058.28721        12.000           0.688
  23141478.859    -4818536.932 6  -3698937.09021        16.500           1.000
  20894818.375     1313896.745 6   1022266.54422        18.000           1.594
 91  6 27 16 28 15.0000000  0  5G18G 2G16G11G19
  22724801.445     7272697.861 6   5642572.36521        17.000           0.906
  22051753.172    -8610014.185 7  -6670067.09422        21.750           2.031
  23169814.688    -2456487.944 6  -1875371.41821        12.000           0.531
  23138911.367    -4832027.648 6  -3709449.32921        16.250           0.969
  20897193.000     1326387.447 6   1031999.55222        18.000           1.719
 91  6 27 16 28 30.0000000  0  5G18G 2G16G11G19
  22733453.273     7318147.199 6   5677987.35021        17.000           0.875
  22044136.180    -8650041.502 7  -6701257.17622        21.750           1.938
  23169766.836    -2456752.886 6  -1875577.86121        12.250           0.531
  23136370.070    -4845371.892 6  -3719847.44621        15.500           0.938
  20899582.766     1338937.385 6   1041778.71622        18.000           1.719
 91  6 27 16 28 45.0000000  0  5G18G 2G16G11G19
  22742109.281     7363657.494 6   5713449.84021        17.250           0.938
  22036531.789    -8689996.223 7  -6732390.70722        21.500           1.969
  23169740.180    -2456880.373 6                        12.000
  23133858.977    -4858568.816 6  -3730130.75421        15.500           0.969
  20901980.289     1351547.223 6   1051604.56122        18.500           1.625
 91  6 27 16 29  0.0000000  0  5G18G 2G16G11G19
  22750784.656     7409228.125 6   5748959.35221        18.250           1.031
  22028943.695    -8729878.471 7  -6763467.74222        21.250           1.906
  23169741.305    -2456870.788 6                        12.000
  23131371.656    -4871618.494 6  -3740299.32321        14.750           0.875
  20904393.039     1364216.771 6   1061476.93222        18.750           1.625
 91  6 27 16 29 15.0000000  0  5G18G 2G16G11G19
  22759469.281     7454856.482 6   5784513.83221        18.250           1.000
  22021366.063    -8769690.630 7  -6794490.18122        20.250           1.906
  23169762.906    -2456727.018 5                        11.250
  23128919.688    -4884523.308 6  -3750355.02521        15.000           0.969
  20906811.945     1376943.396 6   1071393.77622        18.500           1.719
 91  6 27 16 29 30.0000000  0  5G18G 2G16G11G19
  22768159.922     7500542.265 6   5820113.05421        16.750           0.938
  22013802.344    -8809432.650 7  -6825457.96222        21.000           1.938
  23169826.172    -2456449.087 6                        12.500
  23126495.242    -4897283.144 6  -3760297.75321        16.000           0.938
  20909246.922     1389727.120 6   1081355.11422        17.750           1.625
 91  6 27 16 29 45.0000000  0  5G18G 2G16G11G19
  22776865.656     7546285.268 6   5855756.87621        16.500           0.813
  22006255.055    -8849104.205 7  -6856370.83022        21.250           2.063
  23169904.172    -2456036.842 6  -1875019.96421        12.500           0.531
  23124093.641    -4909897.664 6  -3770127.24221        15.250           1.000
  20911691.156     1402568.107 6   1091361.06222        18.750           1.750
 91  6 27 16 30  0.0000000  0  5G18G 2G16G11G19
  22785580.344     7592087.210 6   5891446.62121        16.750           0.750
  21998720.172    -8888703.559 7  -6887227.44122        22.250           2.156
  23170006.063    -2455488.681 6  -1874592.85121        12.500           0.563
  23121714.070    -4922365.205 6  -3779842.19421        14.250           0.969
  20914145.852     1415468.094 6   1101412.99722        17.500           1.750
 91  6 27 16 30 15.0000000  0  5G18G 2G16G11G19
  22794312.844     7637951.413 6   5927184.87221        17.500           0.875
  21991200.227    -8928226.865 7  -6918024.79622        21.750           2.000
  23170137.500    -2454801.008 6  -1874057.01721        12.750           0.531
  23119374.758    -4934681.838 6  -3789439.56621        14.500           0.969
  20916609.805     1428430.608 6   1111513.65522        18.250           1.719
 91  6 27 16 30 30.0000000  0  5G18G 2G16G11G19
  22803048.609     7683875.776 6   5962970.01221        17.000           0.875
  21983689.906    -8967675.709 7  -6948764.11722        21.250           2.063
  23170291.969    -2453975.727 6  -1873413.94121        12.250           0.406
  23117062.336    -4946849.298 6  -3798920.70521        15.750           0.938
  20919092.578     1441453.947 6   1121661.70522        18.250           1.594
 91  6 27 16 30 45.0000000  0  5G18G 2G16G11G19
  22811794.242     7729853.564 6   5998796.77921        16.250           0.781
  21976195.461    -9007056.594 7  -6979450.49422        22.000           2.094
  23170477.969    -2453019.680 6  -1872669.00921        13.000           0.563
  23114772.813    -4958873.955 6  -3808290.56721        15.500           1.031
  20921578.828     1454531.742 6   1131852.18622        18.500           1.750
 91  6 27 16 31  0.0000000  0  5G18G 2G16G11G19
  22820555.891     7775886.649 6   6034666.63521        16.500           0.875
  21968719.852    -9046367.298 7  -7010082.18622        23.000           2.063
  23170678.195    -2451930.601 5  -1871820.38121        11.250           0.500
  23112511.719    -4970753.536 6  -3817547.38221        15.500           1.094
  20924081.156     1467666.019 6   1142086.68422        18.000           1.781
 91  6 27 16 31 15.0000000  0  5G18G 2G16G11G19
  22829331.547     7821979.219 6   6070582.84021        17.000           0.844
  21961248.969    -9085603.341 7  -7040655.68922        22.500           2.094
  23170914.914    -2450704.152 5  -1870864.71421        11.000           0.625
  23110280.359    -4982483.614 6  -3826687.68721        15.750           1.094
  20926588.672     1480861.044 6   1152368.51022        18.750           1.750
 91  6 27 16 31 30.0000000  0  5G18G 2G16G11G19
  22838110.375     7868128.171 6   6106542.97721        17.500           0.813
  21953799.125    -9124767.739 7  -7071173.38222        23.500           2.156
  23171173.961    -2449343.642 5  -1869804.60621        11.250           0.469
  23108076.227    -4994067.211 6  -3835713.84121        15.500           1.000
  20929111.734     1494113.556 6   1162695.13322        17.750           1.813
 91  6 27 16 31 45.0000000  0  5G18G 2G16G11G19
  22846901.617     7914336.142 6   6142549.11721        16.500           0.813
  21946360.586    -9163857.436 7  -7101632.85422        22.750           2.094
  23171459.320    -2447846.234 5  -1868637.80921        10.750           0.531
  23105899.766    -5005501.062 6  -3844623.34121        16.250           0.938
  20931644.328     1507426.624 6   1173068.94022        18.500           1.781
 91  6 27 16 32  0.0000000  0  5G18G 2G16G11G19
  22855709.789     7960599.984 6   6178598.77221        16.250           0.750
  21938934.055    -9202874.952 7  -7132036.07922        23.250           2.125
  23171772.703    -2446214.858 5  -1867366.61121        11.750           0.656
  23103752.867    -5016787.736 6  -3853418.16321        17.500           0.938
  20934188.781     1520797.643 6   1183487.90922        17.750           1.750
 91  6 27 16 32 15.0000000  0  5G18G 2G16G11G19
  22864519.438     8006916.219 6   6214689.25221        15.750           0.813
  21931522.047    -9241823.531 7  -7162385.59422        23.000           2.156
  23172106.305    -2444452.455 5  -1865993.32821        11.000           0.625
  23101630.648    -5027930.576 6  -3862100.89921        16.500           0.969
  20936745.023     1534223.170 6   1193949.35722        18.750           1.594
 91  6 27 16 32 30.0000000  0  5G18G 2G16G11G19
  22873341.781     8053292.275 6   6250826.36321        15.500           0.625
  21924124.961    -9280695.327 7  -7192675.28322        23.000           2.125
  23172469.422    -2442551.785 6  -1864512.30421        12.500           0.531
  23099541.125    -5038921.694 6  -3870665.39821        17.250           0.844
  20939309.945     1547710.974 6   1204459.33122        17.000           1.688
 91  6 27 16 32 45.0000000  0  5G18G 2G16G11G19
  22882182.711     8099728.769 6   6287010.56421        15.500           0.688
  21916743.758    -9319489.328 7  -7222904.34622        22.750           2.031
  23172857.320    -2440512.170 6  -1862922.98321        12.750           0.594
  23097476.680    -5049759.956 6  -3879110.80021        17.250           1.000
  20941889.422     1561262.156 6   1215018.68322        17.500           1.688
 91  6 27 16 33  0.0000000  0  5G18G 2G16G11G19
  22891028.953     8146224.554 6   6323240.96121        14.250           0.625
  21909375.766    -9358206.462 7  -7253073.51322        23.000           2.063
  23173270.000    -2438334.368 5  -1861226.03221        11.500           0.688
  23095446.188    -5060446.342 6  -3887437.85521        19.000           0.969
  20944483.102     1574875.487 6   1225626.46522        17.750           1.688
 91  6 27 16 33 15.0000000  0  5G18G 2G16G11G19
  22899884.766     8192783.510 6   6359520.57321        14.000           0.719
  21902024.680    -9396842.522 7  -7283179.50522        24.000           2.219
  23173711.133    -2436014.906 6  -1859418.67721        12.000           0.656
  23093440.750    -5070976.751 6  -3895643.37121        18.500           0.813
  20947081.547     1588555.033 6   1236285.84622        17.750           1.750
 91  6 27 16 33 30.0000000  0  5G18G 2G16G11G19
  22908760.313     8239403.280 6   6395847.58221        14.250           0.750
  21894688.477    -9435399.590 7  -7313223.95022        24.500           2.125
  23174184.344    -2433555.784 6  -1857502.49521        12.750           0.656
  23091466.367    -5081353.125 6  -3903728.86721        18.000           0.844
  20949701.227     1602298.646 6   1246995.14522        17.250           1.625
 91  6 27 16 33 45.0000000  0  5G18G 2G16G11G19
  22917644.688     8286087.263 6   6432224.63221        14.250           0.750
  21887363.633    -9473873.670 7  -7343203.71822        23.250           2.125
  23174677.250    -2430953.409 6  -1855474.68821        12.500           0.688
  23089519.055    -5091571.595 6  -3911691.30321        17.000           0.938
  20952326.227     1616109.872 6   1257757.12722        18.000           1.625
 91  6 27 16 34  0.0000000  0  5G18G 2G16G11G19
  22926538.602     8332829.082 6   6468646.73221        14.750           0.781
  21880060.773    -9512270.918 7  -7373123.62922        23.500           2.063
  23175200.289    -2428213.852 6  -1853339.97021        13.250           0.625
  23087605.469    -5101638.145 6  -3919535.37221        17.250           0.938
  20954965.070     1629982.843 6   1268567.22522        17.000           1.531
 91  6 27 16 34 15.0000000  0  5G18G 2G16G11G19
  22935445.773     8379628.555 6   6505113.77521        15.000           0.719
  21872766.453    -9550591.307 7  -7402983.64922        23.250           2.156
  23175746.469    -2425337.127 6  -1851098.40221        12.750           0.625
  23085721.133    -5111552.660 6  -3927260.96221        17.750           0.938
  20957616.156     1643917.572 6   1279425.45522        17.250           1.563
 91  6 27 16 34 30.0000000  0  5G18G 2G16G11G19
  22944362.891     8426487.013 6   6541626.76921        15.750           0.656
  21865486.883    -9588833.061 7  -7432782.39222        22.000           2.156
  23176318.109    -2422321.983 5  -1848748.94421        11.750           0.594
  23083860.453    -5121313.511 6  -3934866.81721        17.500           1.031
  20960281.367     1657915.472 6   1290332.90522        17.500           1.594
 91  6 27 16 34 45.0000000  0  5G18G 2G16G11G19
  22953287.797     8473407.382 6   6578188.01521        15.000           0.688
  21858227.094    -9626992.800 7  -7462517.23022        22.500           2.281
  23176919.172    -2419165.358 6  -1846289.25821        12.250           0.500
  23082034.070    -5130917.309 6  -3942350.30221        17.250           0.969
  20962956.234     1671979.820 6   1301292.12922        17.750           1.594
 91  6 27 16 35  0.0000000  0  5G18G 2G16G11G19
  22962236.430     8520392.071 6   6614799.38821        15.000           0.656
  21850982.297    -9665067.952 7  -7492186.14622        23.500           2.063
  23177544.648    -2415864.841 5  -1843717.43921        11.750           0.563
  23080237.094    -5140361.506 6  -3949709.42621        17.250           0.938
  20965647.586     1686113.088 6   1312305.05622        17.500           1.625
 91  6 27 16 35 15.0000000  0  5G18G 2G16G11G19
  22971180.625     8567442.130 6   6651461.68321        13.750           0.719
  21843749.094    -9703057.144 7  -7521788.09222        22.250           2.094
  23178198.234    -2412419.221 5  -1841032.56321        11.250           0.750
  23078470.758    -5149644.773 6  -3956943.14221        17.750           0.813
  20968351.484     1700316.564 6   1323372.68722        18.750           1.656
 91  6 27 16 35 30.0000000  0  5G18G 2G16G11G19
  22980148.094     8614557.099 6   6688174.54721        14.500           0.594
  21836541.984    -9740960.340 7  -7551323.03122        23.000           2.188
  23178887.539    -2408828.742 6  -1838234.79721        12.250           0.563
  23076731.875    -5158767.019 6  -3964051.38421        17.000           0.938
  20971065.813     1714590.293 6   1334495.07322        17.750           1.656
 91  6 27 16 35 45.0000000  0  5G18G 2G16G11G19
  22989128.016     8661737.375 6   6724938.30921        15.250           0.688
  21829344.875    -9778776.649 7  -7580790.23922        23.250           2.250
  23179598.375    -2405092.812 6  -1835323.70721        12.750           0.563
  23075028.016    -5167727.302 6  -3971033.41921        17.250           1.000
  20973795.875     1728935.182 6   1345672.89922        17.250           1.625
 91  6 27 16 36  0.0000000  0  5G18G 2G16G11G19
  22998121.695     8708985.461 6   6761754.93121        15.250           0.594
  21822167.000    -9816503.446 7  -7610187.72322        23.750           2.156
  23180337.875    -2401209.067 5  -1832297.43721        11.750           0.594
  23073351.672    -5176523.108 6  -3977887.30221        16.750           0.969
  20976539.313     1743353.378 6   1356907.84522        17.750           1.563
 91  6 27 16 36 15.0000000  0  5G18G 2G16G11G19
  23007126.586     8756298.989 6   6798622.51121        15.000           0.688
  21815001.617    -9854142.921 7  -7639517.15822        22.250           2.094
  23181102.906    -2397179.752 6  -1829157.72121        12.000           0.531
  23071715.164    -5185156.513 6  -3984614.62521        17.250           0.906
  20979296.773     1757842.738 6   1368198.24322        18.250           1.563
 91  6 27 16 36 30.0000000  0  5G18G 2G16G11G19
  23016145.750     8803684.843 6   6835546.47321        14.750           0.594
  21807857.219    -9891687.819 7  -7668772.89822        22.500           2.156
  23181899.898    -2392998.069 5  -1825899.29821        11.750           0.500
  23070102.688    -5193620.209 6  -3991209.71421        17.500           1.031
  20982070.320     1772410.416 6   1379549.67822        17.250           1.563
 91  6 27 16 36 45.0000000  0  5G18G 2G16G11G19
  23025170.094     8851141.796 6   6872525.81721        13.500           0.656
  21800732.328    -9929138.733 7  -7697955.40222        23.500           2.219
  23182720.750    -2388664.565 5  -1822522.55721        10.750           0.594
  23068525.047    -5201914.986 6  -3997673.18421        18.000           1.000
  20984854.703     1787055.699 6   1390961.57922        17.500           1.625
 91  6 27 16 37  0.0000000  0  5G18G 2G16G11G19
  23034221.523     8898675.968 6   6909565.34021        14.250           0.656
  21793622.758    -9966489.299 7  -7727059.70622        23.750           2.313
  23183579.008    -2384173.476 5  -1819023.03121        11.500           0.500
  23066978.727    -5210034.456 6  -4004000.03921        17.750           1.031
  20987662.367     1801784.842 6   1402438.81822        16.500           1.656
 91  6 27 16 37 15.0000000  0  5G18G 2G16G11G19
  23043280.453     8946294.419 6   6946670.52021        14.500           0.719
  21786535.250   -10003732.013 7  -7756079.97922        23.500           2.281
  23184465.133    -2379517.355 5  -1815394.89921        11.500           0.531
  23065466.508    -5217971.027 6  -4010184.38821        17.500           0.969
  20990478.133     1816605.147 6   1413987.10222        17.750           1.625
 91  6 27 16 37 30.0000000  0  5G18G 2G16G11G19
  23052354.945     8993990.650 6   6983836.32121        15.000           0.719
  21779469.133   -10040873.294 7  -7785021.21522        23.500           2.188
  23185383.250    -2374702.731 5  -1811643.24521        11.250           0.500
  23063989.688    -5225731.237 6  -4016231.30521        18.000           1.063
  20993317.203     1831510.097 6   1425601.34322        16.000           1.688
 91  6 27 16 37 45.0000000  0  5G18G 2G16G11G19
  23061446.617     9041766.540 6   7021064.21021        14.250           0.688
  21772421.102   -10077910.811 7  -7813881.58522        23.500           2.281
  23186329.234    -2369727.434 6  -1807766.43121        12.000           0.563
  23062545.000    -5233312.650 6  -4022138.90221        18.000           1.156
  20996168.789     1846502.023 6   1437283.34922        17.500           1.688
 91  6 27 16 38  0.0000000  0  5G18G 2G16G11G19
  23070557.563     9089627.976 6   7058358.74121        14.750           0.594
  21765392.109   -10114838.386 7  -7842656.29322        24.250           2.375
  23187304.164    -2364585.782 5  -1803759.96921        11.000           0.500
  23061141.758    -5240709.195 6  -4027902.45421        17.750           1.094
  20999037.328     1861586.888 6   1449037.77822        17.500           1.719
 91  6 27 16 38 15.0000000  0  5G18G 2G16G11G19
  23079676.445     9137575.821 6   7095720.61221        14.250           0.594
  21758388.508   -10151654.902 7  -7871344.47122        25.000           2.344
  23188316.828    -2359276.750 5  -1799623.07421        11.000           0.406
  23059766.320    -5247919.770 6  -4033521.08621        17.000           1.000
  21001927.719     1876765.696 6   1460865.41122        17.500           1.688
 91  6 27 16 38 30.0000000  0  5G18G 2G16G11G19
  23088822.992     9185615.226 6   7133153.83121        14.500           0.688
  21751405.297   -10188354.605 7  -7899941.61122        25.000           2.344
  23189355.422    -2353795.150 5  -1795351.73121        10.750           0.406
  23058432.328    -5254938.593 6  -4038990.30021        17.750           0.906
  21004831.305     1892044.255 6   1472770.77022        17.250           1.688
 91  6 27 16 38 45.0000000  0  5G18G 2G16G11G19
  23097980.023     9233742.200 6   7170655.27821        15.000           0.688
  21744439.469   -10224941.040 7  -7928450.49922        23.250           2.281
  23190434.039    -2348144.684 5  -1790948.77821        11.000           0.469
  23057131.367    -5261769.389 6  -4044312.99621        18.000           1.031
  21007763.539     1907418.774 6   1484750.91222        18.000           1.719
 91  6 27 16 39  0.0000000  0  5G18G 2G16G11G19
  23107157.766     9281955.763 6   7208224.18921        15.750           0.813
  21737502.398   -10261415.095 7  -7956871.81622        23.250           2.375
  23191541.195    -2342326.158 5  -1786414.88421        11.250           0.563
  23055870.547    -5268412.931 6  -4049489.79021        18.250           1.063
  21010708.273     1922888.417 6   1496805.16822        16.500           1.750
 91  6 27 16 39 15.0000000  0  5G18G 2G16G11G19
  23116345.297     9330262.867 6   7245865.98221        15.500           0.781
  21730582.289   -10297769.495 7  -7985199.89522        23.250           2.281
  23192678.813    -2336332.488 5  -1781744.49921        10.500           0.469
  23054640.438    -5274861.891 6  -4054514.96021        18.250           1.063
  21013668.164     1938460.386 6   1508939.15722        18.000           1.813
 91  6 27 16 39 30.0000000  0  5G18G 2G16G11G19
  23125558.195     9378663.105 6   7283580.36621        15.500           0.688
  21723686.805   -10334004.132 7  -8013434.66622        23.250           2.313
  23193857.508    -2330163.897 5  -1776937.84221        11.000           0.500
  23053451.586    -5281116.180 6  -4059388.44421        18.750           1.031
  21016651.273     1954134.577 6   1521152.79822        17.500           1.750
 91  6 27 16 39 45.0000000  0  5G18G 2G16G11G19
  23134787.781     9427152.347 6   7321364.09221        16.250           0.656
  21716815.344   -10370123.003 7  -8041579.21022        23.500           2.313
  23195061.281    -2323824.871 5  -1771998.37721        11.000           0.469
  23052297.172    -5287179.976 6  -4064113.48821        17.750           1.094
  21019651.680     1969906.786 6   1533442.82022        18.000           1.781
 91  6 27 16 40  0.0000000  0  5G18G 2G16G11G19
  23144032.289     9475731.215 6   7359217.65921        16.250           0.625
  21709962.820   -10406125.138 7  -8069632.79522        23.500           2.438
  23196299.141    -2317314.635 5  -1766925.48621        11.000           0.500
  23051179.383    -5293052.221 6  -4068689.27121        17.500           0.938
  21022668.758     1985778.021 6   1545810.00422        17.500           1.781
 91  6 27 16 40 15.0000000  0  5G18G 2G16G11G19
  23153295.016     9524399.897 6   7397141.22021        16.250           0.688
  21703134.391   -10442009.705 7  -8097594.77722        23.500           2.281
  23197574.438    -2310632.663 5  -1761718.77721        11.750           0.563
  23050098.781    -5298732.163 6  -4073115.20621        17.750           1.031
  21025709.688     2001748.698 6   1558254.67222        17.250           1.719
 91  6 27 16 40 30.0000000  0  5G18G 2G16G11G19
  23162570.828     9573155.907 6   7435132.81821        15.750           0.750
  21696328.852   -10477779.111 7  -8125467.00822        23.000           2.469
  23198877.180    -2303781.265 5  -1756380.06121        11.500           0.531
  23049055.063    -5304222.195 6  -4077393.14121        17.500           0.969
  21028768.523     2017816.629 6   1570775.12222        17.500           1.781
 91  6 27 16 40 45.0000000  0  5G18G 2G16G11G19
  23171865.664     9621994.841 6   7473189.04921        15.250           0.813
  21689542.125   -10513437.345 7  -8153252.63322        22.750           2.344
  23200212.422    -2296764.870 5  -1750912.75421        11.750           0.500
  23048043.828    -5309526.448 6  -4081526.33221        17.000           0.969
  21031843.570     2033977.794 6   1583368.23422        18.000           1.688
 91  6 27 16 41  0.0000000  0  5G18G 2G16G11G19
  23181171.461     9670913.984 6   7511307.75621        14.500           0.813
  21682774.609   -10548986.676 7  -8180953.38222        22.250           2.406
  23201579.961    -2289586.046 6  -1745318.88721        12.000           0.500
  23047070.305    -5314647.188 6  -4085516.51821        17.500           1.094
  21034937.563     2050229.589 6   1596031.96722        17.500           1.750
 91  6 27 16 41 15.0000000  0  5G18G 2G16G11G19
  23190495.000     9719907.640 6   7549484.51721        14.500           0.688
  21676029.969   -10584432.687 7  -8208573.63322        21.750           2.438
  23202971.961    -2282250.651 6  -1739603.01621        12.000           0.500
  23046131.945    -5319589.955 6  -4089368.02121        18.250           1.031
  21038045.344     2066566.421 6   1608761.96022        17.500           1.656
 91  6 27 16 41 30.0000000  0  5G18G 2G16G11G19
  23199832.969     9768974.086 6   7587718.02021        14.500           0.781
  21669302.367   -10619776.716 7  -8236114.40922        22.250           2.469
  23204399.492    -2274760.197 6  -1733766.32421        12.500           0.469
  23045223.625    -5324356.112 6  -4093081.91821        17.750           0.938
  21041169.273     2082986.729 6   1621556.99622        17.500           1.719
 91  6 27 16 41 45.0000000  0  5G18G 2G16G11G19
  23209182.891     9818111.883 6   7626007.10821        14.750           0.750
  21662599.055   -10655019.866 7  -8263576.57822        23.500           2.438
  23205854.445    -2267116.065 5  -1727809.86321        11.750           0.531
  23044346.750    -5328946.815 6  -4096659.10021        17.250           0.813
  21044310.578     2099489.456 6   1634416.25222        17.250           1.719
 91  6 27 16 42  0.0000000  0  5G18G 2G16G11G19
  23218545.742     9867314.433 6   7664346.65421        14.750           0.781
  21655909.703   -10690168.334 7  -8290964.98023        23.000           2.500
  23207338.406    -2259324.729 5  -1721738.72121        11.750           0.500
  23043507.852    -5333368.234 6  -4100104.37321        17.750           0.813
  21047464.156     2116068.477 6   1647334.95622        17.000           1.781
 91  6 27 16 42 15.0000000  0  5G18G 2G16G11G19
  23227922.086     9916574.112 6   7702730.73221        15.500           0.656
  21649242.398   -10725229.558 7  -8318285.38322        23.250           2.438
  23208846.789    -2251394.108 6  -1715559.01721        12.250           0.406
  23042700.508    -5337627.843 6  -4103423.55621        17.750           0.781
  21050633.453     2132716.120 6   1660307.13722        17.500           1.906
 91  6 27 16 42 30.0000000  0  5G18G 2G16G11G19
  23237308.453     9965894.769 6   7741162.31821        15.000           0.688
  21642586.070   -10760199.102 7  -8345534.34822        24.250           2.469
  23210381.570    -2243319.706 5  -1709267.33421        11.500           0.406
  23041918.984    -5341721.336 6  -4106613.31421        17.250           0.813
  21053816.375     2149436.685 6   1673336.13622        17.500           1.906
 91  6 27 16 42 45.0000000  0  5G18G 2G16G11G19
  23246704.219    10015273.700 6   7779639.29821        14.750           0.594
  21635946.875   -10795079.285 7  -8372713.69623        24.250           2.625
  23211945.039    -2235104.159 5  -1702865.61121        11.250           0.438
  23041171.852    -5345651.110 6  -4109675.48021        17.000           0.844
  21057009.609     2166227.764 6   1686420.08222        17.750           1.813
 91  6 27 16 43  0.0000000  0  5G18G 2G16G11G19
  23256110.578    10064702.278 6   7818154.97021        15.000           0.625
  21629325.156   -10829878.901 7  -8399830.25723        24.000           2.531
  23213538.164    -2226756.258 6  -1696360.81321        12.750           0.438
  23040455.422    -5349425.741 6  -4112616.75921        17.500           0.875
  21060216.000     2183080.673 6   1699552.20522        17.000           1.844
 91  6 27 16 43 15.0000000  0  5G18G 2G16G11G19
  23265524.484    10114178.823 6   7856708.02421        14.500           0.625
  21622717.555   -10864599.108 7  -8426884.93923        24.500           2.625
  23215149.047    -2218277.804 5  -1689754.24721        11.750           0.469
  23039762.844    -5353046.658 6  -4115438.25521        16.500           0.875
  21063438.234     2199993.997 6   1712731.40622        17.750           1.688
 91  6 27 16 43 30.0000000  0  5G18G 2G16G11G19
  23274950.117    10163701.935 6   7895297.34921        13.750           0.688
  21616127.508   -10899241.043 7  -8453878.63623        25.000           2.500
  23216784.492    -2209669.754 5  -1683046.71221        11.250           0.406
  23039104.609    -5356514.851 6  -4118140.75121        16.750           0.844
  21066664.414     2216966.633 6   1725956.82622        16.750           1.750
 91  6 27 16 43 45.0000000  0  5G18G 2G16G11G19
  23284380.531    10213267.818 6   7933920.01421        13.500           0.625
  21609548.289   -10933807.965 7  -8480813.87923        24.750           2.531
  23218447.273    -2200935.944 5  -1676241.18421        11.750           0.500
  23038471.422    -5359833.731 6  -4120726.88621        17.000           0.875
  21069907.781     2233995.053 6   1739225.71922        17.750           1.875
 91  6 27 16 44  0.0000000  0  5G18G 2G16G11G19
  23293820.250    10262871.982 6   7972572.50621        13.000           0.531
  21602985.063   -10968303.805 7  -8507693.73323        25.000           2.563
  23220133.117    -2192080.785 6  -1669341.07321        12.250           0.500
  23037869.586    -5363007.512 6  -4123199.97721        17.750           0.906
  21073157.664     2251075.116 6   1752534.85022        17.750           1.844
 91  6 27 16 44 15.0000000  0  5G18G 2G16G11G19
  23303264.719    10312516.536 6   8011256.46321        12.750           0.531
  21596433.227   -11002726.236 7  -8534516.38923        24.500           2.656
  23221847.008    -2183101.709 6  -1662344.43021        13.000           0.469
  23037293.281    -5366033.611 6  -4125557.99221        17.750           1.000
  21076419.164     2268209.273 6   1765886.12622        18.000           1.813
 91  6 27 16 44 30.0000000  0  5G18G 2G16G11G19
  23312718.531    10362199.702 6   8049970.52521        13.000           0.563
  21589894.922   -11037076.717 7  -8561282.97823        24.000           2.500
  23223576.547    -2174001.038 6  -1655253.02721        12.500           0.625
  23036746.500    -5368913.728 6  -4127802.25221        17.500           1.000
  21079691.125     2285395.831 6   1779278.24022        17.750           1.844
 91  6 27 16 44 45.0000000  0  5G18G 2G16G11G19
  23322182.016    10411916.413 6   8088710.72421        13.250           0.594
  21583374.359   -11071360.106 7  -8587997.29323        24.750           2.500
  23225328.086    -2164783.664 6  -1648070.68821        12.500           0.656
  23036224.469    -5371652.788 6  -4129936.58121        17.250           0.906
  21082965.664     2302629.798 6   1792707.29622        17.000           1.938
 91  6 27 16 45  0.0000000  0  5G18G 2G16G11G19
  23331648.203    10461670.466 6   8127480.01521        12.750           0.594
  21576863.664   -11105572.214 7  -8614656.06122        25.250           2.469
  23227101.945    -2155445.823 6  -1640794.48221        12.500           0.594
  23035729.422    -5374246.606 6  -4131957.74521        17.750           0.969
  21086253.734     2319915.282 6   1806176.48922        16.000           1.844
 91  6 27 16 45 15.0000000  0  5G18G 2G16G11G19
  23341123.883    10511463.136 6   8166279.37221        12.500           0.656
  21570365.156   -11139711.272 7  -8641257.89923        24.500           2.531
  23228906.969    -2145985.735 6  -1633423.01221        13.250           0.625
  23035264.953    -5376693.283 6  -4133864.27021        18.000           1.031
  21089553.445     2337254.184 6   1819687.30522        17.250           1.781
 91  6 27 16 45 30.0000000  0  5G18G 2G16G11G19
  23350602.898    10561286.529 6   8205102.68621        12.500           0.563
  21563881.227   -11173785.081 7  -8667808.90523        23.750           2.594
  23230730.695    -2136411.302 6  -1625962.43921        13.500           0.656
  23034828.297    -5379000.800 6  -4135662.34321        18.250           1.063
  21092866.531     2354638.634 6   1833233.62222        17.500           1.813
 91  6 27 16 45 45.0000000  0  5G18G 2G16G11G19
  23360091.594    10611143.055 6   8243951.82721        12.500           0.531
  21557412.102   -11207790.777 7  -8694306.82723        24.250           2.594
  23232572.320    -2126720.141 6  -1618410.92721        13.250           0.500
  23034415.453    -5381166.416 6  -4137349.83621        17.750           0.969
  21096179.023     2372071.349 6   1846817.55022        17.250           1.781
 91  6 27 16 46  0.0000000  0  5G18G 2G16G11G19
  23369589.617    10661033.975 6   8282827.76721        12.750           0.563
  21550954.258   -11241726.954 7  -8720750.58923        24.000           2.688
  23234441.063    -2116910.986 6  -1610767.45921        13.500           0.563
  23034027.320    -5383188.703 6  -4138925.65721        16.750           0.969
  21099507.563     2389553.442 6   1860439.96022        17.000           1.750
 91  6 27 16 46 15.0000000  0  5G18G 2G16G11G19
  23379088.891    10710955.923 6   8321727.85721        13.000           0.500
  21544508.016   -11275596.541 7  -8747142.45923        23.500           2.656
  23236325.570    -2106987.276 6  -1603034.73521        12.000           0.531
  23033670.563    -5385070.583 6  -4140392.06621        18.000           0.969
  21102842.641     2407081.959 6   1874098.52822        17.500           2.000
 91  6 27 16 46 30.0000000  0  5G18G 2G16G11G19
  23388590.328    10760910.290 6   8360653.24921        12.500           0.531
  21538073.602   -11309397.796 7  -8773481.08023        23.500           2.563
  23238238.203    -2096947.225 6  -1595211.35521        13.000           0.469
  23033341.977    -5386810.500 6  -4141747.86821        18.000           1.031
  21106189.430     2424658.650 6   1887794.64522        16.750           1.906
 91  6 27 16 46 45.0000000  0  5G18G 2G16G11G19
  23398107.094    10810899.354 6   8399605.66321        12.000           0.531
  21531656.156   -11343128.202 7  -8799764.49323        24.250           2.594
  23240172.461    -2086788.809 6  -1587295.72521        13.000           0.531
  23033035.648    -5388405.790 6  -4142990.95221        17.250           0.938
  21109541.484     2442286.135 6   1901530.33322        17.250           1.813
 91  6 27 16 47  0.0000000  0  5G18G 2G16G11G19
  23407623.727    10860918.925 5   8438581.84121        10.500           0.594
  21525249.516   -11376791.534 7  -8825995.63623        23.750           2.750
  23242127.641    -2076516.030 6  -1579290.99421        12.750           0.563
  23032759.875    -5389860.348 6  -4144124.39621        17.750           1.094
  21112907.414     2459960.346 6   1915302.42922        17.000           1.875
 91  6 27 16 47 15.0000000  0  5G18G 2G16G11G19
  23417146.375    10910968.072 5   8477581.06021        11.000           0.406
  21518857.188   -11410388.233 7  -8852174.87423        23.500           2.625
  23244099.102    -2066129.568 6  -1571197.68721        12.250           0.563
  23032510.805    -5391174.690 6  -4145148.55921        19.000           1.031
  21116278.195     2477680.694 6   1929110.47922        17.750           1.813
 91  6 27 16 47 30.0000000  0  5G18G 2G16G11G19
  23426677.672    10961050.183 6   8516605.98621        12.250           0.438
  21512474.109   -11443914.743 7  -8878299.40523        22.750           2.625
  23246102.766    -2055626.050 6  -1563013.14921        13.000           0.500
  23032284.922    -5392345.279 6  -4146060.71321        17.500           1.000
  21119658.273     2495450.721 6   1942957.24922        17.250           1.750
 91  6 27 16 47 45.0000000  0  5G18G 2G16G11G19
  23436217.695    11011164.965 6   8555656.36621        13.750           0.469
  21506109.875   -11477371.038 7  -8904369.22923        23.000           2.750
  23248122.000    -2045005.799 6  -1554737.65621        12.250           0.469
  23032091.031    -5393372.296 6  -4146860.97921        16.250           0.906
  21123050.609     2513270.255 6   1956842.59122        17.500           1.719
 91  6 27 16 48  0.0000000  0  5G18G 2G16G11G19
  23445758.289    11061311.835 6   8594731.75721        12.750           0.531
  21499757.688   -11510757.411 7  -8930384.56623        23.250           2.688
  23250161.406    -2034269.353 5  -1546371.64021        11.500           0.469
  23031921.164    -5394255.998 6  -4147549.58521        17.000           0.938
  21126452.563     2531139.037 6   1970766.30522        17.750           1.750
 91  6 27 16 48 15.0000000  0  5G18G 2G16G11G19
  23455306.055    11111489.090 6   8633830.81921        12.250           0.500
  21493417.617   -11544075.134 7  -8956346.41523        23.500           2.656
  23252225.609    -2023418.466 5  -1537916.42121        10.500           0.531
  23031780.398    -5394997.724 6  -4148127.55921        18.500           1.000
  21129860.617     2549055.649 6   1984727.29022        18.000           1.781
 91  6 27 16 48 30.0000000  0  5G18G 2G16G11G19
  23464859.805    11161695.856 6   8672952.86821        12.250           0.500
  21487093.188   -11577324.774 7  -8982255.21423        23.250           2.656
  23254316.859    -2012453.897 5  -1529372.64021        11.750           0.531
  23031667.570    -5395598.170 6  -4148595.46021        18.250           0.938
  21133277.891     2567019.599 6   1998725.16822        18.000           1.719
 91  6 27 16 48 45.0000000  0  5G18G 2G16G11G19
  23474419.594    11211935.033 6   8712100.16821        12.000           0.688
  21480778.531   -11610503.047 7  -9008108.38523        24.250           2.688
  23256426.023    -2001372.494 5  -1520737.80221        11.750           0.563
  23031583.039    -5396054.197 6  -4148950.80621        18.250           1.000
  21136705.055     2585034.132 6   2012762.45322        17.250           1.719
 91  6 27 16 49  0.0000000  0  5G18G 2G16G11G19
  23483988.563    11262206.701 6   8751272.78821        12.000           0.688
  21474476.375   -11643609.795 7  -9033905.83823        24.000           2.813
  23258554.242    -1990174.386 5  -1512012.02221        11.000           0.563
  23031522.070    -5396365.556 6  -4149193.42721        17.750           1.000
  21140146.320     2603099.134 6   2026839.06322        17.000           1.781
 91  6 27 16 49 15.0000000  0  5G18G 2G16G11G19
  23493560.992    11312509.070 5   8790469.32121        11.250           0.594
  21468189.430   -11676646.281 7  -9059648.53723        24.500           2.688
  23260709.859    -1978861.129 5  -1503196.54221        11.500           0.563
  23031489.281    -5396533.487 6                        17.500
  21143592.375     2621213.443 6   2040954.09722        17.500           1.813
 91  6 27 16 49 30.0000000  0  5G18G 2G16G11G19
  23503135.734    11362843.834 5   8829691.10321        10.750           0.531
  21461917.508   -11709610.523 7  -9085334.93923        24.000           2.688
  23262887.844    -1967431.176 6  -1494290.11121        12.250           0.656
  23031485.414    -5396556.277 6                        17.000
  21147049.813     2639378.882 6   2055108.97422        17.000           1.750
 91  6 27 16 49 45.0000000  0  5G18G 2G16G11G19
  23512719.711    11413210.850 5   8868938.02121        11.500           0.469
  21455658.047   -11742502.364 7  -9110964.92723        24.250           2.781
  23265079.578    -1955884.456 6  -1485292.72921        12.000           0.531
  23031508.180    -5396433.849 6                        17.000
  21150515.320     2657595.576 6   2069303.79422        17.750           1.531
 91  6 27 16 50  0.0000000  0  5G18G 2G16G11G19
  23522308.781    11463607.610 5   8908208.14221        11.250           0.531
  21449413.250   -11775323.750 7  -9136540.01823        25.000           2.594
  23267297.422    -1944223.196 5  -1476206.05521        11.500           0.594
  23031558.320    -5396168.332 6                        17.500
  21153991.703     2675861.330 6   2083536.84222        15.750           1.594
 91  6 27 16 50 15.0000000  0  5G18G 2G16G11G19
  23531912.797    11514036.483 5   8947503.23321        11.750           0.531
  21443180.086   -11808072.360 7  -9162058.38923        24.250           2.625
  23269537.313    -1932445.493 5  -1467028.66021        11.000           0.500
  23031632.078    -5395757.223 6  -4148719.45021        17.000           0.938
  21157476.148     2694178.545 6   2097809.98122        17.000           1.656
 91  6 27 16 50 30.0000000  0  5G18G 2G16G11G19
  23541510.813    11564493.927 5   8986820.60421        11.500           0.469
  21436960.555   -11840751.072 7  -9187522.30623        25.250           2.594
  23271799.945    -1920554.754 5  -1457763.19821        10.500           0.531
  23031741.367    -5395203.730 6  -4148288.15721        16.750           0.875
  21160971.961     2712544.048 6   2112120.74822        18.000           1.688
 91  6 27 16 50 45.0000000  0  5G18G 2G16G11G19
  23551122.391    11614984.051 6   9026163.44621        12.000           0.531
  21430757.945   -11873355.614 7  -9212928.43923        25.000           2.594
  23274082.961    -1908546.545 5  -1448406.17321        10.000           0.531
  23031874.297    -5394503.432 6  -4147742.46821        17.000           0.906
  21164476.672     2730962.131 6   2126472.49122        17.750           1.750
 91  6 27 16 51  0.0000000  0  5G18G 2G16G11G19
  23560731.680    11665505.557 6   9065530.73421        12.000           0.375
  21424564.914   -11905886.848 7  -9238277.42922        24.500           2.438
  23276389.523    -1896422.112 5  -1438958.59221        10.250           0.531
  23032037.273    -5393657.337 6  -4147083.17821        17.500           0.969
  21167991.047     2749431.754 6   2140864.39522        17.750           1.594
 91  6 27 16 51 15.0000000  0  5G18G 2G16G11G19
  23570351.117    11716059.032 5   9104922.95621        11.750           0.469
  21418389.523   -11938344.321 7  -9263568.94823        24.750           2.594
  23278721.938    -1884181.194 5  -1429420.25921        11.000           0.469
  23032220.648    -5392664.878 6  -4146309.84421        16.250           0.969
  21171515.945     2767953.584 6   2155296.97522        17.250           1.594
 91  6 27 16 51 30.0000000  0  5G18G 2G16G11G19
  23579979.359    11766644.798 5   9144340.33521        11.250           0.438
  21412229.953   -11970726.843 7  -9288802.06823        26.500           2.563
  23281067.195    -1871823.085 5  -1419790.57421        10.750           0.563
  23032440.914    -5391525.125 6  -4145421.72721        17.000           0.875
  21175054.602     2786528.604 6   2169770.99922        16.000           1.531
 91  6 27 16 51 45.0000000  0  5G18G 2G16G11G19
  23589614.383    11817264.437 5   9183784.09321        11.750           0.500
  21406081.102   -12003032.564 7  -9313975.34623        25.500           2.500
  23283448.039    -1859346.566 5  -1410068.66021        11.750           0.469
  23032687.305    -5390236.467 6  -4144417.56921        16.750           0.844
  21178594.813     2805158.374 6   2184287.68622        16.750           1.500
 91  6 27 16 52  0.0000000  0  5G18G 2G16G11G19
  23599247.250    11867914.131 5   9223251.28721        11.000           0.531
  21399946.055   -12035265.163 7  -9339091.63522        24.250           2.438
  23285848.766    -1846754.932 6  -1400257.01521        13.000           0.563
  23032964.352    -5388802.505 6  -4143300.19521        17.500           0.813
  21182152.570     2823839.394 6   2198844.31922        16.750           1.563
 91  6 27 16 52 15.0000000  0  5G18G 2G16G11G19
  23608891.688    11918595.514 5   9262743.17421        10.000           0.406
  21393827.016   -12067422.883 7  -9364149.58723        25.250           2.500
  23288259.648    -1834047.054 6  -1390354.82421        12.000           0.438
  23033258.922    -5387221.606 6  -4142068.34221        17.000           0.813
  21185715.984     2842573.384 6   2213442.21921        17.000           1.469
 91  6 27 16 52 30.0000000  0  5G18G 2G16G11G19
  23618538.992    11969311.272 5   9302261.82121         9.750           0.469
  21387724.086   -12099502.307 7  -9389146.52323        25.500           2.531
  23290707.484    -1821219.757 6  -1380359.55721        13.250           0.531
  23033588.594    -5385490.492 6  -4140719.41321        16.750           0.875
  21189292.172     2861363.545 6   2228083.88722        16.500           1.531
 91  6 27 16 52 45.0000000  0  5G18G 2G16G11G19
  23628206.477    12020057.884 5   9341804.53421        11.000           0.469
  21381633.125   -12131506.641 7  -9414084.95522        24.750           2.469
  23293169.891    -1808276.485 6  -1370273.93021        12.750           0.656
  23033947.953    -5383612.487 6  -4139256.03521        17.500           0.906
  21192874.992     2880206.530 6   2242766.71322        16.250           1.500
 91  6 27 16 53  0.0000000  0  5G18G 2G16G11G19
  23637864.766    12070831.397 5   9381368.18921        11.250           0.500
  21375557.500   -12163439.724 7  -9438967.86323        25.250           2.500
  23295654.609    -1795221.320 6  -1360101.12421        12.750           0.563
  23034334.922    -5381591.304 6  -4137681.09021        17.250           0.969
  21196471.719     2899098.686 6   2257487.86222        16.250           1.531
 91  6 27 16 53 15.0000000  0  5G18G 2G16G11G19
  23647538.617    12121638.307 5   9420957.88021        11.750           0.406
  21369492.375   -12195294.574 7  -9463789.80223        25.000           2.563
  23298164.727    -1782047.809 6  -1349836.08621        12.500           0.563
  23034745.414    -5379420.145 6  -4135989.28321        16.750           0.906
  21200077.680     2918046.770 6   2272252.58722        16.750           1.594
 91  6 27 16 53 30.0000000  0  5G18G 2G16G11G19
  23657200.211    12172474.994 5   9460570.75421        10.250           0.469
  21363446.656   -12227074.598 7  -9488553.44523        25.250           2.563
  23300687.398    -1768759.217 5  -1339481.36021        11.750           0.438
  23035190.031    -5377102.502 6  -4134183.32621        17.250           0.938
  21203693.859     2937047.364 6   2287058.22822        16.250           1.563
 91  6 27 16 53 45.0000000  0  5G18G 2G16G11G19
  23666888.969    12223345.047 5   9500209.66321        10.500           0.500
  21357414.133   -12258776.220 7  -9513255.98823        25.500           2.563
  23303238.336    -1755352.310 5  -1329034.48421        11.250           0.563
  23035655.375    -5374634.802 6  -4132260.42921        17.000           1.000
  21207318.703     2956103.852 6   2301907.43322        16.250           1.563
 91  6 27 16 54  0.0000000  0  5G18G 2G16G11G19
  23676572.992    12274243.111 5   9539870.35921         9.750           0.500
  21351395.469   -12290404.231 7  -9537901.17323        25.000           2.594
  23305813.555    -1741832.533 6  -1318499.62821        12.000           0.500
  23036153.578    -5372022.041 6  -4130224.52221        17.500           0.938
  21210953.938     2975211.370 6   2316796.38622        16.000           1.500
 91  6 27 16 54 15.0000000  0  5G18G 2G16G11G19
  23686265.789    12325172.575 5   9579555.52021        10.500           0.406
  21345392.781   -12321954.611 7  -9562485.87023        25.250           2.531
  23308411.609    -1728195.718 6  -1307873.57721        12.000           0.531
  23036681.414    -5369260.249 6  -4128072.47721        17.000           0.906
  21214602.703     2994373.947 6   2331728.23821        16.500           1.469
 91  6 27 16 54 30.0000000  0  5G18G 2G16G11G19
  23695961.289    12376133.067 5   9619264.86321        10.750           0.531
  21339401.297   -12353427.658 7  -9587010.30323        24.750           2.563
  23311026.242    -1714442.817 6  -1297157.08221        12.000           0.469
  23037229.859    -5366349.903 6  -4125804.67821        16.500           0.781
  21218260.039     3013591.132 6   2346702.65421        16.750           1.469
 91  6 27 16 54 45.0000000  0  5G18G 2G16G11G19
  23705669.016    12427124.385 5   9658998.22421        10.500           0.375
  21333429.594   -12384823.212 7  -9611474.36223        25.500           2.688
  23313666.953    -1700573.717 6  -1286350.04121        12.250           0.469
  23037814.805    -5363290.863 6  -4123421.00421        16.250           0.969
  21221926.648     3032863.186 6   2361719.82322        16.750           1.563
 91  6 27 16 55  0.0000000  0  5G18G 2G16G11G19
  23715376.313    12478145.904 5   9698755.14421        11.000           0.375
  21327468.703   -12416141.632 7  -9635878.31023        24.750           2.656
  23316330.703    -1686589.241 5  -1275453.08221        11.750           0.500
  23038423.359    -5360083.565 6  -4120921.81721        16.000           1.000
  21225604.406     3052189.630 6   2376779.37122        16.250           1.688
 91  6 27 16 55 15.0000000  0  5G18G 2G16G11G19
  23725089.008    12529198.963 5   9738536.65321        10.750           0.344
  21321526.617   -12447381.401 7  -9660220.96423        26.000           2.625
  23319011.531    -1672488.151 5  -1264465.26721        11.500           0.500
  23039062.063    -5356726.557 6  -4118305.97621        15.500           0.875
  21229292.125     3071571.989 6   2391882.48922        17.000           1.656
 91  6 27 16 55 30.0000000  0  5G18G 2G16G11G19
  23734808.945    12580280.574 5   9778340.37921        11.000           0.313
  21315594.492   -12478545.100 7  -9684504.35423        26.000           2.750
  23321716.398    -1658273.304 5  -1253388.79221        11.250           0.563
  23039730.578    -5353222.497 6  -4115575.54921        15.750           0.844
  21232991.109     3091007.707 6   2407027.18322        16.500           1.625
 91  6 27 16 55 45.0000000  0  5G18G 2G16G11G19
  23744548.609    12631391.762 5   9818167.16721        11.000           0.375
  21309676.906   -12509631.181 7  -9708727.25923        25.250           2.688
  23324443.852    -1643943.375 5  -1242222.65821        10.500           0.563
  23040426.852    -5349569.978 6  -4112729.42821        16.250           0.813
  21236698.734     3110497.977 6   2422214.38622        16.500           1.656
 91  6 27 16 56  0.0000000  0  5G18G 2G16G11G19
  23754274.094    12682534.155 5   9858018.23221        10.500           0.406
  21303776.375   -12540637.755 7  -9732888.21623        24.750           2.656
  23327188.469    -1629496.953 5  -1230965.74721        10.500           0.500
  23041153.555    -5345767.237 6  -4109766.25321        17.000           0.875
  21240419.289     3130044.660 6   2437445.53522        16.000           1.625
 91  6 27 16 56 15.0000000  0  5G18G 2G16G11G19
  23763999.516    12733708.734 5   9897894.41921         9.500           0.281
  21297893.766   -12571563.769 7  -9756986.38923        25.500           2.813
  23329963.477    -1614933.182 5  -1219617.39521        11.000           0.531
  23041901.313    -5341813.313 6  -4106685.26221        16.000           0.938
  21244153.875     3149648.936 6   2452721.58022        17.000           1.625
 91  6 27 16 56 30.0000000  0  5G18G 2G16G11G19
  23773751.664    12784911.686 5   9937792.70321         9.750           0.375
  21292026.438   -12602412.672 7  -9781024.49323        26.500           2.813
  23332751.867    -1600255.720 5  -1208180.46121         9.250           0.594
  23042684.813    -5337711.760 6  -4103489.24921        16.750           1.031
  21247889.555     3169307.193 6   2468039.68522        16.750           1.688
 91  6 27 16 56 45.0000000  0  5G18G 2G16G11G19
  23783502.375    12836142.022 5   9977712.32921        10.250           0.406
  21286167.203   -12633184.779 7  -9805002.74223        25.250           2.781
  23335569.320    -1585465.372 5  -1196655.56621        10.500           0.531
  23043491.461    -5333463.083 6  -4100178.58621        16.250           0.969
  21251642.531     3189019.018 6   2483399.52322        16.750           1.563
 91  6 27 16 57  0.0000000  0  5G18G 2G16G11G19
  23793255.281    12887399.306 5  10017652.93121        10.250           0.313
  21280327.070   -12663880.516 7  -9828921.49423        25.250           2.813
  23338403.070    -1570562.677 5  -1185043.11121        10.250           0.563
  23044328.336    -5329067.743 6  -4096753.65721        17.000           1.063
  21255404.766     3208783.905 6   2498800.71522        16.500           1.688
 91  6 27 16 57 15.0000000  0  5G18G 2G16G11G19
  23803013.836    12938688.206 5  10057618.18721         9.750           0.375
  21274501.531   -12694494.759 7  -9852776.72723        25.500           2.938
  23341258.391    -1555542.802 5  -1173339.37521         9.750           0.500
  23045194.758    -5324520.798 6  -4093210.58321        17.250           1.063
  21259177.586     3228606.849 6   2514247.14422        17.000           1.625
 91  6 27 16 57 30.0000000  0  5G18G 2G16G11G19
  23812775.930    12990006.573 5  10097606.38121        10.000           0.375
  21268686.305   -12725029.395 7  -9876569.94323        24.500           2.906
  23344142.469    -1540407.714 5  -1161545.85321        11.000           0.531
  23046087.219    -5319824.285 6  -4089550.96921        16.750           1.000
  21262958.125     3248485.852 6   2529737.25022        16.500           1.688
 91  6 27 16 57 45.0000000  0  5G18G 2G16G11G19
  23822551.063    13041353.141 5  10137616.57721        10.500           0.375
  21262894.773   -12755485.058 7  -9900301.61923        25.250           2.844
  23347042.195    -1525158.808 5  -1149663.62821        10.250           0.563
  23047006.898    -5314978.937 6  -4085775.37721        16.250           0.906
  21266752.109     3268420.323 6   2545270.58322        16.500           1.688
 91  6 27 16 58  0.0000000  0  5G18G 2G16G11G19
  23832330.422    13092728.237 5  10177648.98421        10.500           0.406
  21257114.391   -12785861.431 7  -9923971.51223        25.500           2.875
  23349963.773    -1509795.989 5  -1137692.63721         9.750           0.563
  23047957.555    -5309984.569 6  -4081883.65821        15.500           0.906
  21270557.766     3288410.519 6   2560847.34022        16.250           1.656
 91  6 27 16 58 15.0000000  0  5G18G 2G16G11G19
  23842104.445    13144131.362 5  10217703.24021         9.750           0.406
  21251349.570   -12816159.166 7  -9947580.12123        25.500           2.906
  23352910.875    -1494320.465 5  -1125633.83821        10.000           0.531
  23048935.727    -5304841.762 6  -4077876.29421        16.000           0.969
  21274369.648     3308455.906 6   2576467.09222        16.250           1.625
 91  6 27 16 58 30.0000000  0  5G18G 2G16G11G19
  23851889.867    13195561.047 5  10257778.16421         9.750           0.375
  21245597.594   -12846378.872 7  -9971127.93123        25.500           2.938
  23355880.406    -1478732.973 5  -1113487.78821        10.500           0.469
  23049942.398    -5299551.313 6  -4073753.85121        15.750           1.000
  21278196.570     3328555.724 6   2592129.26922        16.000           1.594
 91  6 27 16 58 45.0000000  0  5G18G 2G16G11G19
  23861687.617    13247019.947 5  10297875.88921        10.000           0.375
  21239862.484   -12876517.643 7  -9994612.68123        24.750           2.844
  23358867.953    -1463030.672 5  -1101252.27621        10.250           0.531
  23050980.320    -5294110.429 6  -4069514.19921        16.750           0.906
  21282030.922     3348712.741 6   2607836.01322        16.500           1.656
 91  6 27 16 59  0.0000000  0  5G18G 2G16G11G19
  23871490.602    13298508.569 5  10337996.75521         9.750           0.469
  21234142.945   -12906574.386 7 -10018033.50523        25.500           3.000
  23361876.578    -1447212.810 5  -1088926.72821         9.500           0.469
  23052045.750    -5288518.129 6  -4065156.56221        16.250           1.031
  21285879.523     3368927.866 6   2623588.04122        16.500           1.625
 91  6 27 16 59 15.0000000  0  5G18G 2G16G11G19
  23881291.766    13350022.833 5  10378137.58421        10.500           0.406
  21228438.008   -12936553.365 7 -10041393.74123        25.250           2.906
  23364912.453    -1431283.946 5  -1076514.66621        10.500           0.469
  23053135.734    -5282778.745 6  -4060684.31721        15.750           1.094
  21289733.727     3389196.978 6   2639382.13022        16.250           1.563
 91  6 27 16 59 30.0000000  0  5G18G 2G16G11G19
  23891096.703    13401565.661 5  10418300.69521        10.250           0.500
  21222749.320   -12966451.182 7 -10064690.73123        25.750           3.031
  23367964.008    -1415240.753 5  -1064013.53921        11.000           0.438
  23054255.484    -5276889.095 6  -4056094.99621        16.000           1.063
  21293602.633     3409523.377 6   2655220.86522        15.500           1.563
 91  6 27 16 59 45.0000000  0  5G18G 2G16G11G19
  23900912.055    13453134.965 5  10458484.41921        10.000           0.375
  21217074.711   -12996269.485 7 -10087925.76723        26.000           2.906
  23371035.109    -1399085.671 5  -1051425.21821        11.000           0.469
  23055403.602    -5270851.064 6  -4051390.03121        15.750           1.063
  21297480.055     3429905.296 6   2671102.86221        16.000           1.469
 91  6 27 17  0  0.0000000  0  5G18G 2G16G11G19
  23910730.477    13504730.555 5  10498688.64521        10.500           0.406
  21211415.133   -13026008.268 7 -10111098.83423        24.500           3.063
  23374131.781    -1382818.740 5  -1038749.72421        10.750           0.531
  23056584.609    -5264664.684 6  -4046569.47621        16.000           1.094
  21301373.984     3450342.762 6   2687028.13522        16.250           1.563
 91  6 27 17  0 15.0000000  0  5G18G 2G16G11G19
  23920550.281    13556352.981 5  10538913.79121         9.750           0.406
  21205771.586   -13055666.490 7 -10134209.12823        25.000           3.000
  23377250.469    -1366439.068 5  -1025986.39921        11.000           0.625
  23057789.789    -5258328.980 6  -4041632.57421        16.750           0.969
  21305270.820     3470836.689 6   2702997.41322        16.250           1.656
 91  6 27 17  0 30.0000000  0  5G18G 2G16G11G19
  23930378.859    13608000.849 5  10579158.74221         9.750           0.406
  21200144.438   -13085245.455 7 -10157257.66423        25.750           2.875
  23380387.773    -1349948.739 5  -1013136.84221        11.750           0.563
  23059024.133    -5251845.372 6  -4036580.42221        16.750           0.938
  21309181.359     3491385.674 6   2719009.58422        16.000           1.656
 91  6 27 17  0 45.0000000  0  5G18G 2G16G11G19
  23940210.367    13659674.144 5  10619423.48621         9.500           0.313
  21194527.703   -13114744.914 7 -10180244.25023        24.250           2.844
  23383548.102    -1333347.665 5  -1000200.98321        11.500           0.531
  23060282.375    -5245213.732 6  -4031412.90221        16.000           0.875
  21313099.602     3511990.018 6   2735064.89222        16.250           1.625
 91  6 27 17  1  0.0000000  0  5G18G 2G16G11G19
  23950054.945    13711379.588 5  10659713.31521         9.750           0.375
  21188930.945   -13144157.746 7 -10203163.32823        25.000           2.875
  23386729.563    -1316628.697 6   -987173.27221        12.250           0.500
  23061575.883    -5238426.991 6  -4026124.54821        15.750           0.813
  21317036.570     3532656.865 6   2751168.90522        16.750           1.531
 91  6 27 17  1 15.0000000  0  5G18G 2G16G11G19
  23959900.109    13763103.329 5  10700017.36521        10.000           0.281
  21183348.852   -13173497.468 7 -10226025.44223        24.500           2.906
  23389932.281    -1299805.947 5   -974064.68421        11.750           0.594
  23062893.930    -5231498.866 6  -4020726.01521        16.000           1.000
  21320975.219     3553372.550 6   2767310.97722        15.750           1.531
 91  6 27 17  1 30.0000000  0  5G18G 2G16G11G19
  23969745.055    13814853.543 5  10740342.06421        10.250           0.281
  21177780.422   -13202755.439 7 -10248823.86023        24.750           2.813
  23393154.125    -1282871.218 5   -960868.84921        11.000           0.531
  23064240.133    -5224420.863 6  -4015210.69721        16.250           1.000
  21324928.727     3574145.643 6   2783497.79222        15.500           1.500
 91  6 27 17  1 45.0000000  0  5G18G 2G16G11G19
  23979595.461    13866632.225 5  10780688.93621        10.000           0.219
  21172227.484   -13231929.529 7 -10271556.91223        24.500           2.875
  23396397.602    -1265822.636 5   -947584.31721        10.250           0.531
  23065616.125    -5217191.288 6  -4009577.27221        17.000           1.031
  21328893.664     3594978.043 6   2799730.80822        16.250           1.531
 91  6 27 17  2  0.0000000  0  5G18G 2G16G11G19
  23989451.641    13918428.881 5  10821049.83721        10.250           0.313
  21166692.789   -13261029.960 7 -10294232.56123        25.000           2.938
  23399657.625    -1248670.644 5   -934219.15121         9.750           0.500
  23067018.156    -5209820.164 6  -4003833.55521        17.000           1.000
  21332872.820     3615859.512 6   2816002.05322        15.500           1.563
 91  6 27 17  2 15.0000000  0  5G18G 2G16G11G19
  23999315.508    13970250.405 5  10861430.10521        10.250           0.313
  21161170.828   -13290049.504 7 -10316845.19023        25.250           2.781
  23402943.797    -1231408.110 5   -920767.88521         9.000           0.500
  23068450.953    -5202300.378 6  -3997973.98821        16.750           1.031
  21336851.484     3636797.259 6   2832317.16422        16.750           1.500
 91  6 27 17  2 30.0000000  0  5G18G 2G16G11G19
  24009186.594    14022096.459 5  10901829.46521        10.750           0.219
  21155661.758   -13318988.178 7 -10339394.80223        24.500           2.844
  23406243.398    -1214035.598 5   -907230.92521         8.000           0.375
  23069910.984    -5194632.038 6  -3991998.67421        16.000           0.938
  21340852.695     3657791.236 6   2848676.09122        16.250           1.594
 91  6 27 17  2 45.0000000  0  5G18G 2G16G11G19
  24019057.805    14073965.969 5  10942247.12021        10.750           0.188
  21150168.383   -13347846.596 7 -10361881.86923        24.250           2.750
  23409573.922    -1196554.082 5   -893609.00121         8.500           0.375
  23071398.508    -5186816.040 6  -3985908.30321        16.000           0.813
  21344850.289     3678840.864 6   2865078.37622        16.500           1.594
 91  6 27 17  3  0.0000000  0  5G18G 2G16G11G19
  24028924.453    14125860.422 5  10982684.19321        10.000           0.313
  21144695.375   -13376623.198 7 -10384305.19523        25.500           2.969
  23412919.563    -1178962.197 5   -879901.09621         9.000           0.375
  23072914.859    -5178850.934 6  -3979701.74621        16.500           0.844
  21348869.031     3699947.656 6   2881525.20722        16.250           1.719
 91  6 27 17  3 15.0000000  0  5G18G 2G16G11G19
  24038809.203    14177780.485 5  11023141.24421        10.000           0.313
  21139234.461   -13405317.001 7 -10406663.99223        24.750           2.969
  23416293.625    -1161259.344 5   -866106.73721        10.000           0.500
  23074455.117    -5170735.789 6  -3973378.26121        16.500           0.813
  21352896.328     3721112.525 6   2898017.29322        16.500           1.594
 91  6 27 17  3 30.0000000  0  5G18G 2G16G11G19
  24048692.633    14229726.678 5  11063618.64521        10.000           0.281
  21133791.953   -13433927.155 7 -10428957.60523        25.500           2.938
  23419683.930    -1143444.824 5   -852225.32321        10.000           0.469
  23076029.648    -5162469.955 6  -3966937.35921        17.000           0.844
  21356935.109     3742336.288 6   2914555.26722        16.250           1.563
 91  6 27 17  3 45.0000000  0  5G18G 2G16G11G19
  24058580.984    14281695.451 5  11104113.63021        10.500           0.219
  21128362.555   -13462456.834 7 -10451188.51923        24.750           2.938
  23423097.227    -1125521.912 5   -838259.49921        10.250           0.531
  23077633.359    -5154056.609 6  -3960381.52221        17.500           0.844
  21360987.094     3763615.696 6   2931136.60121        16.000           1.469
 91  6 27 17  4  0.0000000  0  5G18G 2G16G11G19
  24068481.883    14333689.169 5  11144628.07621        11.000           0.344
  21122948.070   -13490903.267 7 -10473354.55923        23.750           2.906
  23426530.164    -1107488.579 5   -824207.62421        10.750           0.438
  23079260.250    -5145493.336 6  -3953708.85621        16.500           0.969
  21365046.938     3784953.469 6   2947763.40822        14.500           1.563
 91  6 27 17  4 15.0000000  0  5G18G 2G16G11G19
  24078377.055    14385708.432 5  11185162.39521         9.500           0.406
  21117550.625   -13519265.683 7 -10495455.14223        24.500           2.938
  23429980.344    -1089344.267 5   -810069.23521        10.250           0.500
  23080919.211    -5136779.335 6  -3946918.73121        17.250           1.000
  21369115.477     3806350.512 6   2964436.39922        16.250           1.656
 91  6 27 17  4 30.0000000  0  5G18G 2G16G11G19
  24088275.086    14437748.828 5  11225713.16921         8.250           0.219
  21112168.828   -13547548.278 7 -10517493.51723        24.000           2.906
  23433454.477    -1071093.444 5   -795847.86121        10.000           0.406
  23082602.719    -5127918.897 6  -3940014.50921        17.750           1.094
  21373200.867     3827802.400 6   2981152.13821        17.250           1.469
 91  6 27 17  4 45.0000000  0  5G18G 2G16G11G19
  24098186.055    14489807.951 5  11266278.59321         8.750           0.156
  21106800.406   -13575753.118 7 -10539471.30423        23.750           2.906
  23436943.648    -1052738.412 5   -781545.29921        10.250           0.500
  23084317.359    -5118914.338 6  -3932997.99421        17.500           1.000
  21377290.992     3849307.053 6   2997908.99222        17.250           1.531
 91  6 27 17  5  0.0000000  0  5G18G 2G16G11G19
  24108100.141    14541892.730 5  11306864.00821         8.000           0.219
  21101452.281   -13603872.968 7 -10561382.86723        24.750           3.031
  23440464.688    -1034272.640 5   -767156.44521        11.000           0.500
  23086060.117    -5109758.626 6  -3925863.68521        17.000           0.938
  21381394.367     3870871.484 6   3014712.42621        16.500           1.406
 91  6 27 17  5 15.0000000  0  5G18G 2G16G11G19
  24118018.281    14593997.090 5  11347464.61421         8.000           0.188
  21096114.086   -13631913.516 7 -10583232.64623        24.500           3.063
  23443994.898    -1015702.010 5   -752685.88421        10.750           0.500
  23087828.734    -5100457.583 6  -3918616.12721        16.500           0.875
  21385506.406     3892489.924 6   3031557.92822        16.000           1.625
 91  6 27 17  5 30.0000000  0  5G18G 2G16G11G19
  24127933.930    14646125.266 5  11388083.81621         7.500           0.219
  21090796.055   -13659870.169 7 -10605017.04423        24.500           2.969
  23447549.102     -997022.029 5   -738130.11721        11.500           0.469
  23089631.203    -5091006.755 6  -3911251.85721        17.250           0.875
  21389635.453     3914166.950 6   3048449.08522        16.750           1.563
 91  6 27 17  5 45.0000000  0  5G18G 2G16G11G19
  24137860.398    14698275.999 5  11428720.59021         7.500           0.281
  21085490.430   -13687744.116 7 -10626736.99323        25.250           3.063
  23451126.258     -978234.163 5   -723490.27721        11.250           0.469
  23091453.320    -5081407.380 6  -3903771.83921        16.500           0.906
  21393766.742     3935901.500 6   3065385.08021        16.250           1.375
 91  6 27 17  6  0.0000000  0  5G18G 2G16G11G19
  24147779.633    14750452.597 5  11469377.50821         7.750           0.281
  21080202.836   -13715531.650 7 -10648389.61923        25.000           3.031
  23454717.930     -959334.913 5   -708763.64721        10.250           0.500
  23093311.500    -5071655.996 6  -3896173.37921        17.250           0.906
  21397915.984     3957697.267 6   3082368.77322        16.000           1.500
 91  6 27 17  6 15.0000000  0  5G18G 2G16G11G19
  24157722.180    14802647.604 5  11510048.80521         8.500           0.281
  21074930.680   -13743239.856 7 -10669980.41923        25.250           3.031
  23458335.797     -940332.030 5   -693956.26121        10.500           0.406
  23095195.180    -5061759.785 6  -3888462.06621        17.000           0.938
  21402073.930     3979547.079 6   3099394.57522        16.500           1.500
 91  6 27 17  6 30.0000000  0  5G18G 2G16G11G19
  24167657.266    14854863.607 5  11550736.45421         8.500           0.250
  21069671.078   -13770866.046 7 -10691507.30923        24.250           2.969
  23461968.000     -921223.077 5   -679066.23921        10.250           0.406
  23097105.273    -5051716.122 6  -3880635.85221        17.250           0.844
  21406244.172     4001453.664 6   3116464.61521        16.750           1.469
 91  6 27 17  6 45.0000000  0  5G18G 2G16G11G19
  24177600.352    14907099.211 5  11591439.34721         8.500           0.344
  21064432.164   -13798411.136 7 -10712971.01723        24.750           3.063
  23465632.992     -902009.290 5   -664094.51521        10.250           0.469
  23099048.172    -5041526.191 6  -3872695.67521        17.250           0.938
  21410422.195     4023415.981 6   3133578.08222        16.250           1.500
 91  6 27 17  7  0.0000000  0  5G18G 2G16G11G19
  24187543.297    14959358.467 5  11632160.65121         8.500           0.313
  21059206.961   -13825870.717 7 -10734368.08323        25.000           3.000
  23469310.203     -882686.340 5   -649037.72721        10.500           0.469
  23101009.367    -5031185.641 6  -3864638.11421        16.250           0.906
  21414613.961     4045438.396 6   3150738.37622        16.250           1.563
 91  6 27 17  7 15.0000000  0  5G18G 2G16G11G19
  24197492.234    15011639.267 5  11672898.76721         8.500           0.281
  21053995.867   -13853246.707 7 -10755700.02123        24.250           2.969
  23472999.234     -863256.707 5   -633897.82921        10.000           0.438
  23103011.906    -5020696.699 6  -3856464.93821        16.250           1.031
  21418814.570     4067518.948 6   3167943.97621        17.000           1.469
 91  6 27 17  7 30.0000000  0  5G18G 2G16G11G19
  24207445.219    15063940.041 5  11713652.44221         7.750           0.250
  21048806.188   -13880540.691 7 -10776968.05223        24.750           3.000
  23476722.625     -843722.345 5   -618676.29121        10.250           0.469
  23105030.820    -5010061.118 6  -3848177.48921        16.250           0.969
  21423030.227     4089655.988 6   3185193.59221        16.500           1.469
 91  6 27 17  7 45.0000000  0  5G18G 2G16G11G19
  24217394.344    15116264.356 5  11754424.46721         7.500           0.188
  21043623.781   -13907748.318 7 -10798168.79523        23.750           2.906
  23480462.664     -824079.132 5   -603369.98021        10.500           0.531
  23107087.641    -4999274.702 6  -3839772.51321        16.750           0.938
  21427252.070     4111853.700 6   3202490.48421        17.250           1.469
 91  6 27 17  8  0.0000000  0  5G18G 2G16G11G19
  24227360.492    15168610.133 5  11795213.22721         7.750           0.219
  21038463.219   -13934871.476 7 -10819303.72223        24.500           2.938
  23484216.367     -804329.286 5   -587980.54821        10.500           0.406
  23109164.398    -4988339.340 6  -3831251.45721        16.000           0.875
  21431486.172     4134110.216 6   3219833.20422        16.250           1.500
 91  6 27 17  8 15.0000000  0  5G18G 2G16G11G19
  24237323.711    15220972.838 5  11836015.22221         8.000           0.250
  21033316.734   -13961914.500 7 -10840376.19723        24.000           2.875
  23487996.609     -784477.466 5   -572511.64021        10.500           0.438
  23111276.820    -4977259.515 6  -3822617.83621        16.750           0.969
  21435733.250     4156421.131 6   3237218.30622        17.000           1.500
 91  6 27 17  8 30.0000000  0  5G18G 2G16G11G19
  24247298.961    15273356.284 5  11876833.30721         8.000           0.250
  21028187.766   -13988873.052 7 -10861382.86023        24.250           2.875
  23491794.523     -764519.594 5   -556960.12021        10.000           0.406
  23113413.813    -4966031.198 6  -3813868.51121        16.500           0.938
  21439992.281     4178790.825 6   3254649.21521        17.250           1.438
 91  6 27 17  8 45.0000000  0  5G18G 2G16G11G19
  24257265.141    15325758.068 5  11917665.67821         8.500           0.188
  21023071.992   -14015749.214 7 -10882325.31523        24.000           2.844
  23495611.742     -744458.197 5   -541327.92421        10.250           0.500
  23115576.875    -4954656.663 6  -3805005.25921        15.750           1.031
  21444257.414     4201217.034 6   3272124.16622        17.750           1.531
 91  6 27 17  9  0.0000000  0  5G18G 2G16G11G19
  24267244.508    15378181.996 5  11958515.32721         8.750           0.469
  21017975.977   -14042539.037 7 -10903200.50623        24.750           2.781
  23499447.313     -724289.483 5   -525612.11021         9.750           0.531
  23117767.313    -4943132.166 6  -3796025.14921        15.250           0.938
  21448537.477     4223703.739 6   3289646.25922        17.250           1.500
 91  6 27 17  9 15.0000000  0  5G18G 2G16G11G19
  24277217.953    15430621.048 5  11999376.72721         8.500           0.375
  21012892.344   -14069249.621 7 -10924013.93723        24.500           2.938
  23503306.922     -704020.741 5   -509818.34221        10.750           0.438
  23119987.891    -4931464.773 6  -3786933.68621        15.250           1.031
  21452825.758     4246243.899 6   3307209.99022        17.500           1.531
 91  6 27 17  9 30.0000000  0  5G18G 2G16G11G19
  24287203.078    15483074.782 5  12040249.56921         9.000           0.406
  21007825.758   -14095880.583 7 -10944765.33323        25.250           2.750
  23507182.547     -683652.195 5   -493946.82421        10.250           0.438
  23122234.883    -4919654.296 6  -3777730.73221        15.250           0.938
  21457128.125     4268837.809 6   3324815.61121        17.000           1.469
 91  6 27 17  9 45.0000000  0  5G18G 2G16G11G19
  24297186.430    15535549.411 5  12081138.71421         9.250           0.375
  21002774.922   -14122425.808 7 -10965449.91823        26.000           2.844
  23511078.406     -663178.091 5   -477993.03921        10.000           0.500
  23124511.273    -4907694.726 6  -3768411.60121        15.500           1.031
  21461433.859     4291491.552 6   3342467.84922        17.250           1.531
 91  6 27 17 10  0.0000000  0  5G18G 2G16G11G19
  24307180.156    15588043.767 5  12122043.24921         9.250           0.281
  20997737.523   -14148885.967 7 -10986068.21723        26.000           2.906
  23514994.250     -642599.157 5   -461957.57421        10.000           0.469
  23126816.820    -4895586.967 6  -3758976.99621        15.500           1.063
  21465758.719     4314204.404 6   3360166.15421        17.250           1.406
 91  6 27 17 10 15.0000000  0  5G18G 2G16G11G19
  24317168.359    15640553.304 5  12162959.58221         8.000           0.344
  20992718.570   -14175265.145 7 -11006623.41923        27.250           2.781
  23518929.031     -621919.949 5   -445843.98121         9.500           0.406
  23129147.273    -4883335.454 6  -3749430.37921        15.000           1.063
  21470091.195     4336972.135 6   3377907.22921        17.500           1.406
 91  6 27 17 10 30.0000000  0  5G18G 2G16G11G19
  24327167.563    15693080.381 5  12203889.57821         7.750           0.375
  20987714.828   -14201561.033 7 -11027113.70723        26.750           2.844
  23522883.250     -601138.623 5   -429650.82121         9.500           0.500
  23131504.438    -4870937.906 6  -3739769.97521        15.500           1.000
  21474436.203     4359797.262 6   3395693.02121        16.750           1.438
 91  6 27 17 10 45.0000000  0  5G18G 2G16G11G19
  24337166.680    15745620.598 5  12244829.80721         8.000           0.313
  20982727.133   -14227777.665 7 -11047542.24823        27.250           2.906
  23526857.195     -580259.451 5   -413381.42421         9.500           0.438
  23133891.367    -4858398.502 6  -3729999.02121        15.500           0.906
  21478787.188     4382675.537 6   3413520.22122        16.750           1.594
 91  6 27 17 11  0.0000000  0  5G18G 2G16G11G19
  24347166.305    15798177.265 5  12285782.89721         7.500           0.281
  20977755.133   -14253911.415 7 -11067906.19323        27.250           2.938
  23530848.211     -559279.249 5   -397033.29121         9.000           0.375
  23136303.930    -4845713.640 6  -3720114.72621        15.500           0.969
  21483152.875     4405610.586 6   3431391.66522        16.500           1.500
 91  6 27 17 11 15.0000000  0  4G 2G16G11G19
  20972796.078   -14279963.882 7 -11088206.81423        26.750           2.938
  23534860.883     -538199.772 5   -380607.79021         8.750           0.438
  23138747.984    -4832885.261 6  -3710118.58421        15.250           0.844
  21487528.703     4428600.744 6   3449306.04621        17.000           1.313
 91  6 27 17 11 30.0000000  0  4G 2G16G11G19
  20967854.102   -14305933.582 7 -11108442.93323        27.000           2.781
  23538888.383     -517019.868 5   -364104.03921         8.750           0.406
  23141216.141    -4819912.092 6  -3700009.65221        15.000           0.938
  21491914.672     4451647.505 6   3467264.53721        16.500           1.375
 91  6 27 17 11 45.0000000  0  4G 2G16G11G19
  20962927.633   -14331819.719 7 -11128613.94623        25.750           2.875
  23542937.109     -495739.113 5   -347521.70121         8.750           0.344
  23143716.258    -4806793.522 6  -3689787.41221        16.000           0.906
  21496308.594     4474751.686 6   3485267.77121        16.500           1.438
 91  6 27 17 12  0.0000000  0  4G 2G16G11G19
  20958015.617   -14357620.375 7 -11148718.34423        25.250           2.875
  23547009.148     -474356.048 5   -330859.64321         9.250           0.406
  23146236.805    -4793527.835 6  -3679450.53021        16.250           0.875
  21500718.672     4497914.983 6   3503317.07021        16.500           1.438
 91  6 27 17 12 15.0000000  0  4G 2G16G11G19
  20953119.414   -14383338.706 7 -11168758.60023        24.500           2.844
  23551095.406     -452873.806 5   -314120.33021         9.750           0.406
  23148792.102    -4780118.202 6  -3669001.48821        16.500           1.000
  21505136.492     4521134.378 6   3521410.07422        16.750           1.500
 91  6 27 17 12 30.0000000  0  3G16G11G19
  23555199.445     -431293.210 5   -297304.35621         9.250           0.344
  23151370.086    -4766565.156 6  -3658440.69621        16.500           0.938
  21509564.570     4544409.392 6   3539546.42321        16.750           1.469
 91  6 27 17 12 45.0000000  0  4G 2G16G11G19
  20943380.469          -0.31517                        25.000
  23559334.227     -409612.601 5   -280410.43821        10.500           0.313
  23153974.016    -4752866.729 6  -3647766.61921        15.750           0.938
  21514006.398     4567742.179 6   3557727.78521        17.750           1.375
 91  6 27 17 13  0.0000000  0  4G 2G16G11G19
  20938536.289      -25467.222 7                        25.750
  23563471.320     -387831.053 5   -263437.85821         9.250           0.563
  23156611.664    -4739021.857 6  -3636978.42121        16.250           0.906
  21518459.547     4591133.983 6   3575955.14521        17.500           1.344
 91  6 27 17 13 15.0000000  0  4G 2G16G11G19
  20933703.109      -50851.686 7        -0.23833        24.500           2.656
  23567640.438     -365951.767 5   -246389.15321        10.250           0.406
  23159270.352    -4725033.738 6  -3626078.60921        16.000           0.969
  21522920.227     4614581.623 6   3594226.01321        16.750           1.188
 91  6 27 17 13 30.0000000  0  4G 2G16G11G19
  20928891.016      -76152.835 7    -19715.41523        25.250           2.750
  23571823.883     -343973.909 5   -229263.63521        11.000           0.375
  23161958.273    -4710901.686 6  -3615066.64221        15.500           0.844
  21527392.570     4638086.073 6   3612541.14721        16.000           1.406
 91  6 27 17 13 45.0000000  0  4G 2G16G11G19
  20924091.922     -101368.683 7    -39364.12323        26.250           2.813
  23576021.539     -321896.231 5   -212060.30121        10.000           0.438
  23164678.883    -4696623.732 6  -3603940.98821        15.750           0.938
  21531874.375     4661649.218 6   3630902.00522        15.500           1.563
 91  6 27 17 14  0.0000000  0  4G 2G16G11G19
  20919312.219     -126497.321 7    -58944.87523        26.500           2.750
  23580245.766     -299716.971 5   -194777.82321        10.500           0.406
  23167424.359    -4682198.318 6  -3592700.41521        16.000           1.000
  21536373.625     4685272.972 6   3649310.09422        16.000           1.500
 91  6 27 17 14 15.0000000  0  4G 2G16G11G19
  20914545.625     -151546.099 7    -78463.39023        26.500           2.719
  23584483.000     -277443.920 5   -177422.30421        11.000           0.406
  23170194.102    -4667632.904 6  -3581350.76921        16.000           0.969
  21540876.016     4708950.108 6   3667759.77622        16.000           1.500
 91  6 27 17 14 30.0000000  0  4G 2G16G11G19
  20909793.242     -176510.648 7    -97916.27923        25.750           2.875
  23588737.289     -255073.077 5   -159990.55721        10.000           0.406
  23172993.172    -4652923.246 6  -3569888.70421        16.500           0.875
  21545396.078     4732684.912 6   3686254.39521        15.500           1.406
 91  6 27 17 14 45.0000000  0  4G 2G16G11G19
  20905059.883     -201390.833 7   -117303.43223        26.250           2.813
  23593016.125     -232604.552 5   -142482.70321        10.750           0.500
  23175822.234    -4638069.374 6  -3558314.28121        16.750           1.000
  21549922.383     4756477.441 6   3704794.01321        16.250           1.344
 91  6 27 17 15  0.0000000  0  4G 2G16G11G19
  20900340.781     -226184.922 7   -136623.49323        26.000           2.875
  23597304.773     -210037.233 5   -124897.85021        10.250           0.313
  23178674.406    -4623070.035 6  -3546626.49021        16.500           0.906
  21554460.742     4780329.183 6   3723379.76221        15.000           1.344
 91  6 27 17 15 15.0000000  0  4G 2G16G11G19
  20895639.445     -250893.759 7   -155877.12923        26.750           2.938
  23601626.477     -187371.930 5   -107236.65621        11.750           0.438
  23181556.227    -4607926.070 6  -3534826.01921        16.000           0.969
  21559008.813     4804239.537 6   3742011.17622        15.500           1.500
 91  6 27 17 15 30.0000000  0  4G 2G16G11G19
  20890952.875     -275518.349 7   -175065.11423        26.500           2.875
  23605958.156     -164609.995 5    -89500.17921        10.000           0.438
  23184467.023    -4592638.550 6  -3522913.69921        15.500           0.875
  21563568.805     4828207.565 6   3760687.52421        15.500           1.469
 91  6 27 17 15 45.0000000  0  4G 2G16G11G19
  20886284.148     -300060.949 7   -194189.20923        27.000           2.969
  23610302.703     -141753.967 5    -71690.36421         9.500           0.375
  23187402.102    -4577209.946 6  -3510891.42921        15.250           0.875
  21568143.930     4852230.865 6   3779406.96221        16.000           1.250
 91  6 27 17 16  0.0000000  0  4G 2G16G11G19
  20881628.047     -324517.617 7   -213246.34423        26.250           2.906
  23614667.359     -118800.365 5    -53804.53721        10.000           0.344
  23190365.836    -4561636.528 6  -3498756.32221        16.000           0.781
  21572725.742     4876313.264 6   3798172.44121        16.000           1.375
 91  6 27 17 16 15.0000000  0  4G 2G16G11G19
  20876991.180     -348887.901 7   -232236.17323        26.250           2.844
  23619055.180      -95748.944 5    -35842.47721         8.500           0.375
  23193358.594    -4545918.079 6  -3486508.20321        16.250           0.719
  21577320.570     4900455.251 6   3816984.36121        16.000           1.250
 91  6 27 17 16 30.0000000  0  4G 2G16G11G19
  20872367.867     -373171.430 7   -251158.39823        25.500           2.969
  23623460.523      -72599.659 5    -17804.14621         8.750           0.156
  23196376.055    -4530054.472 6  -3474146.98321        15.750           0.813
  21581926.070     4924657.123 6   3835842.92921        15.250           1.250
 91  6 27 17 16 45.0000000  0  4G 2G16G11G19
  20867764.172     -397373.664 7   -270017.27323        26.000           3.094
  23627882.539      -49358.132 5       306.06421         9.000           0.344
  23199420.414    -4514051.377 6  -3461677.06521        15.750           0.844
  21586540.445     4948913.322 6   3854743.84421        16.500           1.250
 91  6 27 17 17  0.0000000  0  4G 2G16G11G19
  20863174.883     -421493.851 7   -288812.21523        26.500           2.844
  23632320.563      -26024.452 5     18488.04821         8.500           0.250
  23202492.938    -4497908.217 6  -3449097.99721        15.000           0.813
  21591168.875     4973224.475 6   3873687.57821        15.500           1.375
 91  6 27 17 17 15.0000000  0  4G 2G16G11G19
  20858600.984     -445531.095 7   -307542.52423        26.250           2.906
  23636773.852       -2597.957 5     36742.38621         8.250           0.344
  23205592.984    -4481624.357 6  -3436409.29321        15.000           0.906
  21595803.461     4997591.642 6   3892674.95621        15.750           1.406
 91  6 27 17 17 30.0000000  0  4G 2G16G11G19
  20854040.664     -469485.236 7   -326208.08223        25.500           2.813
  23641259.711       20921.395 5     55069.04921         9.500           0.438
  23208714.375    -4465199.600 6  -3423610.78421        14.500           0.875
  21600451.891     5022015.069 6   3911706.16421        15.750           1.406
 91  6 27 17 17 45.0000000  0  4G 2G16G11G19
  20849498.609     -493354.115 7   -344807.20623        25.250           2.844
  23645755.078       44535.305 5     73469.42221        10.000           0.344
  23211867.031    -4448631.949 6  -3410700.93421        15.250           0.844
  21605111.031     5046496.801 6   3930782.81821        16.750           1.313
 91  6 27 17 18  0.0000000  0  4G 2G16G11G19
  20844973.953     -517133.481 7   -363336.57323        25.250           2.813
  23650269.422       68247.739 5     91946.54921         9.000           0.375
  23215047.359    -4431917.437 6  -3397676.66221        15.250           0.813
  21609783.016     5071040.968 6   3949908.11121        15.750           1.344
 91  6 27 17 18 15.0000000  0  4G 2G16G11G19
  20840464.430     -540831.499 7   -381802.54823        25.250           2.875
  23654798.398       92050.080 5    110493.75721         9.500           0.375
  23218256.891    -4415064.631 6  -3384544.62021        15.250           0.750
  21614462.594     5095639.191 6   3969075.53021        16.250           1.438
 91  6 27 17 18 30.0000000  0  4G 2G16G11G19
  20835972.203     -564445.282 7   -400202.89623        25.750           2.813
  23659348.438      115944.762 5    129112.89321        10.000           0.344
  23221489.703    -4398070.759 6  -3371302.65621        15.250           0.750
  21619155.461     5120294.461 6   3988287.39521        15.500           1.250
 91  6 27 17 18 45.0000000  0  4G 2G16G11G19
  20831494.391     -587973.775 7   -418536.77123        25.500           2.813
  23663906.234      139932.671 5    147804.68321         9.250           0.250
  23224750.680    -4380934.844 6  -3357950.02321        15.000           0.656
  21623857.711     5145008.034 6   4007544.70121        16.250           1.219
 91  6 27 17 19  0.0000000  0  4G 2G16G11G19
  20827031.938     -611419.801 7   -436806.39923        25.250           2.813
  23668485.813      164010.862 5    166566.82621         8.250           0.375
  23228039.703    -4363660.021 6  -3344489.15121        15.500           0.875
  21628571.406     5169776.884 6   4026845.08421        16.500           1.406
 91  6 27 17 19 15.0000000  0  4G 2G16G11G19
  20822588.188     -634785.022 7   -455013.05423        25.750           2.781
  23673091.578      188177.190 5    185397.63521         9.250           0.500
  23231353.422    -4346248.148 6  -3330921.48021        15.250           0.750
  21633291.164     5194599.352 6   4046187.25521        16.000           1.438
 91  6 27 17 19 30.0000000  0  4G 2G16G11G19
  20818155.109     -658065.939 7   -473154.01423        26.250           2.969
  23677704.898      212434.776 5    204299.57121         8.750           0.469
  23234697.852    -4328695.880 6  -3317244.41121        15.750           0.750
  21638027.000     5219478.940 6   4065573.91222        15.500           1.500
 91  6 27 17 19 45.0000000  0  4G 2G16G11G19
  20813742.406     -681261.152 7   -491228.19423        26.500           2.875
  23682335.102      236784.740 5    223273.45921         9.000           0.438
  23238063.617    -4311001.923 6  -3303456.93821        15.750           0.625
  21642772.063     5244417.167 6   4085006.26622        15.750           1.563
 91  6 27 17 20  0.0000000  0  4G 2G16G11G19
  20809345.719     -704375.035 7   -509238.99923        25.750           2.906
  23686984.930      261222.290 5    242315.63821         8.500           0.344
  23241452.477    -4293171.006 6  -3289562.74321        15.250           0.625
  21647533.320     5269409.561 6   4104480.82821        15.750           1.438
 91  6 27 17 20 15.0000000  0  4G 2G16G11G19
  20804959.641     -727408.765 7   -527187.35323        25.750           2.969
  23691655.031      285745.883 5    261424.82821         9.250           0.344
  23244872.211    -4275204.594 6  -3275562.96121        14.750           0.563
  21652291.758     5294454.903 6   4123996.64722        15.750           1.531
 91  6 27 17 20 30.0000000  0  4G 2G16G11G19
  20800594.500     -750355.371 7   -545067.81623        26.250           2.938
  23696333.063      310362.122 5    280606.24121         8.000           0.344
  23248319.008    -4257096.006 6  -3261452.39321        14.250           0.625
  21657071.750     5319559.922 6   4143558.97722        15.500           1.531
 91  6 27 17 20 45.0000000  0  4G 2G16G11G19
  20796242.070     -773218.608 7   -562883.31923        26.000           3.031
  23701042.773      335066.952 5    299856.66521         9.250           0.375
  23251791.648    -4238849.092 6  -3247234.04921        14.250           0.594
  21661858.578     5344720.983 6   4163164.96321        15.500           1.375
 91  6 27 17 20 59.9990000  0  4G 2G16G11G19
  20791908.769     -795998.118 7   -580633.57023        26.250           2.969
  23705748.651      359857.414 5    319173.78921         7.750           0.313
  23255286.448    -4220466.252 6  -3232909.78821        14.000           0.688
  21666661.073     5369935.310 6   4182812.47122        15.000           1.500
 91  6 27 17 21 14.9990000  0  4G 2G16G11G19
  20787591.792     -818691.087 7   -598316.39923        27.000           2.938
  23710485.487      384742.074 5    338564.34221         8.250           0.406
  23258813.565    -4201939.320 6  -3218473.23521        14.500           0.594
  21671467.534     5395212.066 6   4202508.61021        15.500           1.406
 91  6 27 17 21 29.9990000  0  4G 2G16G11G19
  20783287.800     -841299.262 7   -615933.14923        25.750           2.906
  23715249.253      409715.958 5    358024.43421         9.500           0.438
  23262366.800    -4183273.169 6  -3203928.21221        14.750           0.656
  21676292.503     5420546.283 6   4222249.53322        15.500           1.500
 91  6 27 17 21 44.9990000  0  4G 2G16G11G19
  20779003.737     -863826.302 7   -633486.67923        27.000           3.031
  23720013.511      434774.917 5    377550.79621         8.250           0.406
  23265942.401    -4164471.748 6  -3189277.77221        14.500           0.750
  21681118.878     5445934.244 6   4242032.33422        15.750           1.594
 91  6 27 17 21 59.9990000  0  4G 2G16G11G19
  20774731.558     -886263.980 7   -650970.57623        26.250           3.000
  23724801.808      459926.766 5    397149.53321         8.250           0.406
  23269547.925    -4145526.917 6  -3174515.59921        14.750           0.781
  21685966.222     5471384.094 6   4261863.35122        15.750           1.531
 91  6 27 17 22 14.9990000  0  4G 2G16G11G19
  20770476.456     -908623.712 7   -668393.73023        25.750           2.906
  23729600.308      485159.522 5    416811.30921         8.000           0.313
  23273177.136    -4126450.377 6  -3159650.78421        14.750           0.781
  21690816.128     5496884.469 6   4281733.74722        16.250           1.500
 91  6 27 17 22 29.9990000  0  4G 2G16G11G19
  20766238.401     -930898.344 7   -685750.57923        25.750           2.813
  23734416.409      510480.140 5    436541.57921         8.250           0.438
  23276836.237    -4107235.258 6  -3144677.98021        15.250           0.781
  21695681.026     5522442.412 6   4301648.99822        15.500           1.563
 91  6 27 17 22 44.9990000  0  4G 2G16G11G19
  20762014.581     -953087.311 7   -703040.67523        24.500           2.813
  23739255.097      535889.086 5    456340.68021         8.000           0.313
  23280517.230    -4087881.132 6  -3129596.86121        15.250           0.813
  21700552.894     5548058.506 6   4321609.55322        15.750           1.500
 91  6 27 17 22 59.9990000  0  4G 2G16G11G19
  20757809.620     -975189.840 7   -720263.42323        26.000           2.875
  23744104.065      561386.844 5    476208.94021         7.750           0.438
  23284229.612    -4068387.423 6  -3114406.98321        15.000           0.750
  21705445.120     5573733.620 6   4341616.11621        16.000           1.438
 91  6 27 17 23 14.9990000  0  4G 2G16G11G19
  20753620.565     -997204.764 7   -737417.89423        25.750           2.844
  23748971.440      586973.949 5    496146.83921         8.250           0.375
  23287965.800    -4048753.244 6  -3099107.63821        15.500           0.813
  21710336.323     5599468.625 6   4361669.33821        15.750           1.375
 91  6 27 17 23 29.9990000  0  4G 2G16G11G19
  20749448.003    -1019137.387 7   -754508.24423        25.750           2.844
  23753864.714      612644.698 5    516149.95721         8.750           0.344
  23291728.456    -4028984.005 6  -3083703.05221        15.250           0.750
  21715247.612     5625258.301 6   4381765.16221        15.250           1.344
 91  6 27 17 23 44.9990000  0  4G 2G16G11G19
  20745290.745    -1040985.293 7   -771532.57223        26.000           2.750
  23758756.573      638401.514 5                         8.000
  23295516.253    -4009077.510 6  -3068191.52121        14.500           0.688
  21720166.167     5651105.139 6                        16.250
 91  6 27 17 23 59.9990000  0  4G 2G16G11G19
  20741147.964    -1062752.161 7   -788493.76123        26.250           2.844
  23763683.847      664240.312 5                         9.000
  23299327.659    -3989037.879 6  -3052576.25421        14.750           0.750
  21725093.925     5677005.377 6                        15.500
 91  6 27 17 24 14.9990000  0  4G 2G16G11G19
  20737022.487    -1084437.189 7   -805391.17523        26.250           2.844
  23768616.409      690161.346 5                         8.750
  23303168.651    -3968864.506 6  -3036856.76721        15.000           0.750
  21730030.503     5702959.755 6                        16.250
 91  6 27 17 24 29.9990000  0  4G 2G16G11G19
  20732913.597    -1106031.167 7   -822217.64423        26.250           2.875
  23773567.909      716173.496 5                         9.000
  23307032.886    -3948548.251 6  -3021025.94921        15.000           0.656
  21734982.339     5728977.491 6   4462585.18021        15.500           1.469
 91  6 27 17 24 44.9990000  0  4G 2G16G11G19
  20728818.940    -1127543.814 7   -838980.73423        26.750           2.906
  23778532.214      742266.984 5                         8.750
  23310922.190    -3928099.062 6  -3005091.53921        15.000           0.750
  21739945.573     5755048.954 6   4482900.58321        15.750           1.469
 91  6 27 17 24 59.9990000  0  4G 2G16G11G19
  20724737.761    -1148976.912 7   -855681.84223        25.500           2.906
  23783510.315      768439.554 5                         9.000
  23314840.901    -3907518.851 6  -2989055.04121        15.500           0.781
  21744918.253     5781172.380 6                        15.500
 91  6 27 17 25 14.9990000  0  4G 2G16G11G19
  20720676.440    -1170323.329 7   -872315.40923        25.250           2.938
  23788510.323      794698.074 5                         9.250
  23318782.222    -3886800.699 6  -2972911.05721        15.750           0.844
  21749896.870     5807354.844 6                        15.500
 91  6 27 17 25 29.9990000  0  4G 2G16G11G19
  20716630.573    -1191587.500 7   -888884.88123        25.250           2.906
  23793520.222      821037.753 5        -0.12231         8.250           0.375
  23322752.269    -3865949.431 6  -2956663.33521        15.750           0.844
  21754887.995     5833591.813 6   4544102.70921        15.500           1.375
 91  6 27 17 25 44.9990000  0  4G 2G16G11G19
  20712602.394    -1212762.398 7   -905384.80123        26.250           2.938
  23798546.026      847464.980 5     20592.40121         7.750           0.313
  23326746.495    -3844958.287 6  -2940306.61221        15.250           0.875
  21759896.120     5859890.112 6   4564594.85921        16.500           1.469
 91  6 27 17 25 59.9990000  0  4G 2G16G11G19
  20708586.917    -1233857.255 7   -921822.34623        26.250           2.938
  23803592.112      873970.337 5     41245.86621         8.000           0.406
  23330768.448    -3823836.502 6  -2923848.10721        15.250           0.906
  21764909.230     5886240.764 6   4585127.80421        16.250           1.406
 91  6 27 17 26 14.9990000  0  4G 2G16G11G19
  20704588.909    -1254866.179 7   -938192.93523        25.750           2.969
  23808648.089      900559.006 5     61964.19421         8.750           0.375
  23334813.151    -3802578.647 6  -2907283.58521        16.000           0.813
  21769936.440     5912649.493 6   4605705.99721        15.250           1.313
 91  6 27 17 26 29.9990000  0  4G 2G16G11G19
  20700606.925    -1275791.992 7   -954498.75323        26.000           2.906
  23813726.589      927228.261 5     82745.35721         8.000           0.344
  23338880.440    -3781187.640 6  -2890615.29321        15.750           0.719
  21774970.667     5939113.446 6   4626327.23621        14.500           1.375
 91  6 27 17 26 44.9990000  0  4G 2G16G11G19
  20696641.331    -1296636.752 7   -970741.42123        26.750           2.938
  23818816.714      953975.642 5    103587.36021         8.000           0.344
  23342976.128    -3759665.736 6  -2873845.00321        14.750           0.781
  21780013.339     5965630.670 6   4646989.97321        14.500           1.219
 91  6 27 17 26 59.9990000  0  4G 2G16G11G19
  20692690.065    -1317398.195 7   -986919.16223        26.250           2.781
  23823927.558      980803.134 5    124491.81421         9.250           0.375
  23347098.534    -3738011.011 6  -2856971.21321        14.750           0.719
  21785073.870     5992203.312 6   4667695.89021        14.250           1.313
 91  6 27 17 27 14.9990000  0  4G 2G16G11G19
  20688753.292    -1338074.852 7  -1003030.83723        25.500           2.844
  23829036.542     1007711.833 5    145459.52821         8.000           0.344
  23351245.269    -3716222.224 6  -2839992.95221        15.000           0.750
  21790141.370     6018832.973 6   4688446.24421        15.750           1.313
 91  6 27 17 27 29.9990000  0  4G 2G16G11G19
  20684836.792    -1358670.133 7  -1019079.10523        26.250           2.813
  23834174.347     1034698.102 5    166487.69821         7.500           0.375
  23355415.565    -3694302.855 6  -2822912.94721        14.750           0.813
  21795224.495     6045516.112 6   4709238.27621        14.750           1.250
 91  6 27 17 27 44.9990000  0  4G 2G16G11G19
  20680931.886    -1379182.115 7  -1035062.45723        26.500           2.781
  23839330.448     1061763.225 5    187577.29621         7.750           0.375
  23359607.433    -3672251.290 6  -2805729.93421        14.250           0.656
  21800306.433     6072254.761 6   4730073.56121        15.500           1.313
 91  6 27 17 27 59.9990000  0  4G 2G16G11G19
  20677045.737    -1399608.240 7  -1050978.91623        26.250           2.750
  23844500.784     1088909.725 5    208730.31521         8.250           0.250
  23363830.487    -3650065.129 6  -2788442.05021        14.750           0.656
  21805406.644     6099051.573 6   4750954.15821        16.000           1.250
 91  6 27 17 28 14.9990000  0  4G 2G16G11G19
  20673175.597    -1419949.647 7  -1066829.35023        26.750           2.750
  23849670.237     1116135.975 4    229945.43621         7.250           0.344
  23368079.081    -3627745.759 6  -2771050.36621        15.500           0.688
  21810514.284     6125905.290 6   4771879.10521        14.750           1.344
 91  6 27 17 28 29.9990000  0  4G 2G16G11G19
  20669320.659    -1440205.817 7  -1082613.37623        27.000           2.719
  23854869.230     1143442.181 5    251222.90621         7.500           0.344
  23372356.073    -3605292.938 6  -2753554.67621        16.750           0.875
  21815637.190     6152816.246 6   4792848.64421        14.750           1.313
 91  6 27 17 28 44.9990000  0  4G 2G16G11G19
  20665482.620    -1460378.216 7  -1098332.12523        26.500           2.813
  23860076.417     1170826.374 4    272561.13621         7.250           0.406
  23376653.300    -3582708.545 6  -2735956.47521        16.750           0.813
  21820767.151     6179782.964 6   4813861.65221        14.750           1.313
 91  6 27 17 28 59.9990000  0  4G 2G16G11G19
  20661658.151    -1480471.766 7  -1113989.43123        27.250           2.781
  23865303.761     1198283.555 5    293956.26821         7.500           0.313
  23380971.261    -3559997.605 6  -2718259.66021        15.750           0.844
  21825915.831     6206800.585 6   4834914.30321        14.000           1.406
 91  6 27 17 29 14.9990000  0  4G 2G16G11G19
  20657852.409    -1500482.510 7  -1129582.21323        27.500           2.813
  23870543.269     1225817.116 5    315410.86621         7.500           0.313
  23385316.237    -3537156.429 6  -2700461.37121        15.250           0.844
  21831060.589     6233873.031 6   4856009.67921        15.000           1.344
 91  6 27 17 29 29.9990000  0  4G 2G16G11G19
  20654059.980    -1520407.600 7  -1145108.25623        27.500           2.875
  23875800.472     1253429.432 5    336926.85421         8.500           0.344
  23389692.511    -3514182.491 6  -2682559.64621        15.250           0.781
  21836226.839     6261003.082 6   4877149.95122        14.500           1.500
 91  6 27 17 29 44.9990000  0  4G 2G16G11G19
  20650282.722    -1540247.988 7  -1160568.29323        27.000           2.781
  23881071.425     1281119.473 5    358503.40321         7.750           0.375
  23394087.870    -3491076.908 6  -2664555.31021        14.500           0.688
  21841398.214     6288189.919 6   4898334.47121        15.250           1.406
 91  6 27 17 29 59.9990000  0  4G 2G16G11G19
  20646522.956    -1560008.184 7  -1175965.84623        26.750           2.656
  23886347.081     1308882.177 4    380136.58021         7.250           0.313
  23398507.050    -3467844.337 6  -2646452.04021        14.750           0.719
  21846581.878     6315428.989 6   4919559.69721        15.500           1.313
 91  6 27 17 30 14.9990000  0  4G 2G16G11G19
  20642779.394    -1579684.364 7  -1191297.92523        27.000           2.781
  23891652.050     1336721.396 5    401829.37521         8.000           0.281
  23402953.448    -3444481.229 6  -2628247.03621        15.000           0.594
  21851773.511     6342723.966 6   4940828.46821        15.000           1.344
 91  6 27 17 30 29.9990000  0  4G 2G16G11G19
  20639049.878    -1599275.493 7  -1206563.73223        26.250           2.719
  23896962.308     1364637.426 5    423582.00621         7.750           0.281
  23407423.636    -3420986.972 6  -2609939.85921        15.500           0.781
  21856981.972     6370075.724 6   4962141.49521        15.000           1.250
 91  6 27 17 30 44.9990000  0  4G 2G16G11G19
  20635338.784    -1618784.779 7  -1221765.77723        26.250           2.688
  23902288.042     1392626.776 4    445391.80421         7.000           0.281
  23411921.948    -3397364.830 6  -2591533.01321        15.500           0.750
  21862194.730     6397481.323 6   4983496.48021        15.750           1.281
 91  6 27 17 30 59.9990000  0  4G 2G16G11G19
  20631642.198    -1638207.760 7  -1236900.55423        26.000           2.719
  23907627.120     1420693.523 4    467261.86921         7.000           0.313
  23416439.011    -3373610.495 6  -2573023.18021        14.250           0.781
  21867422.862     6424945.197 6   5004896.87221        15.250           1.344
 91  6 27 17 31 14.9990000  0  4G 2G16G11G19
  20627961.362    -1657551.128 7  -1251973.30623        26.750           2.750
  23912981.230     1448830.805 4    489186.93721         7.000           0.344
  23420986.237    -3349730.978 6  -2554415.77821        14.500           0.906
  21872656.987     6452460.669 6   5026337.47421        15.250           1.406
 91  6 27 17 31 29.9990000  0  4G 2G16G11G19
  20624296.019    -1676813.198 7  -1266982.70423        27.500           2.688
  23918343.409     1477040.021 3    511168.02821         5.750           0.406
  23425552.190    -3325724.790 6  -2535709.69121        14.500           0.875
  21877902.050     6480029.444 6   5047819.61021        15.000           1.375
 91  6 27 17 31 44.9990000  0  4G 2G16G11G19
  20620644.761    -1695991.778 7  -1281927.04423        27.250           2.844
  23923723.972     1505323.080 3    533206.66721         5.750           0.375
  23430147.730    -3301589.897 6  -2516903.30121        15.000           0.781
  21883159.847     6507653.607 6   5069344.89921        15.250           1.406
 91  6 27 17 31 59.9990000  0  4G 2G16G11G19
  20617014.597    -1715085.795 8  -1296805.49623        28.000           2.688
  23929133.753     1533680.585 4    555303.31121         7.250           0.250
  23434763.800    -3277325.608 6  -2497996.10321        14.750           0.688
  21888431.433     6535334.159 6   5090914.11821        15.000           1.375
 91  6 27 17 32 14.9990000  0  4G 2G16G11G19
  20613394.933    -1734094.175 7  -1311617.21523        27.250           2.844
  23934540.698     1562113.314 4    577458.58121         6.500           0.375
  23439407.839    -3252931.239 6  -2478987.52721        15.000           0.656
  21893704.659     6563072.146 6   5112528.10321        15.750           1.375
 91  6 27 17 32 29.9990000  0  4G 2G16G11G19
  20609794.987    -1753021.916 7  -1326366.10123        27.250           2.750
  23939964.323     1590615.754 4    599668.16921         6.500           0.219
  23444074.769    -3228411.915 6  -2459881.59921        14.750           0.625
  21898993.401     6590862.568 6   5134182.94621        15.000           1.344
 91  6 27 17 32 44.9990000  0  4G 2G16G11G19
  20606208.995    -1771864.846 7  -1341048.89623        27.750           2.750
  23945407.347     1619191.848 5    621935.14721         7.500           0.250
  23448764.534    -3203763.696 6  -2440675.20821        14.750           0.625
  21904292.894     6618709.652 6   5155881.94521        15.750           1.406
 91  6 27 17 32 59.9990000  0  4G 2G16G11G19
  20602637.644    -1790621.135 7  -1355664.18323        26.500           2.813
  23950852.456     1647842.897 4    644260.50821         7.250           0.313
  23453476.472    -3178985.021 6  -2421367.17821        14.500           0.688
  21909604.987     6646615.303 6   5177626.57121        15.250           1.469
 91  6 27 17 33 14.9990000  0  4G 2G16G11G19
  20599085.784    -1809295.187 8  -1370215.38623        28.000           2.719
  23956316.886     1676564.060 4    666640.53321         6.750           0.156
  23458214.636    -3154080.571 6  -2401961.12221        15.000           0.719
  21914920.448     6674574.988 6   5199413.30121        14.500           1.406
 91  6 27 17 33 29.9990000  0  4G 2G16G11G19
  20595547.620    -1827884.374 7  -1384700.46823        27.750           2.688
  23961797.940     1705358.049 4    689077.29121         6.750           0.250
  23462984.042    -3129047.793 6  -2382455.09021        14.750           0.750
  21920253.933     6702591.472 6   5221244.28621        14.500           1.438
 91  6 27 17 33 44.9990000  0  4G 2G16G11G19
  20592027.253    -1846390.897 7  -1399121.12723        27.250           2.688
  23967293.144     1734222.285 5    711568.77221         7.750           0.156
  23467768.917    -3103889.216 6  -2362851.02021        15.000           0.625
  21925599.401     6730662.477 6   5243117.75721        14.750           1.438
 91  6 27 17 33 59.9990000  0  4G 2G16G11G19
  20588519.886    -1864812.321 7  -1413475.48223        27.750           2.594
  23972795.683     1763158.748 4    734116.55621         6.500           0.188
  23472581.480    -3078602.752 6  -2343147.29721        14.500           0.656
  21930952.487     6758790.226 6   5265035.44521        16.250           1.344
 91  6 27 17 34 14.9990000  0  4G 2G16G11G19
  20585030.862    -1883151.298 7  -1427765.60323        27.500           2.625
  23978319.503     1792164.158 4    756718.09821         7.000           0.219
  23477415.026    -3053191.291 6  -2323346.17821        13.750           0.688
  21936314.987     6786972.113 6   5286995.33021        15.500           1.188
 91  6 27 17 34 29.9990000  0  4G 2G16G11G19
  20581556.323    -1901406.565 8  -1441990.48023        28.000           2.688
  23983854.651     1821239.770 5    779374.28421         7.500           0.344
  23482274.495    -3027653.798 6  -2303446.86621        12.750           0.656
  21941685.425     6815209.297 6   5308998.30121        14.500           1.313
 91  6 27 17 34 44.9990000  0  4G 2G16G11G19
  20578099.073    -1919577.458 7  -1456149.61923        27.750           2.625
  23989398.339     1850385.621 5    802085.22221         7.500           0.281
  23487161.503    -3001989.960 6  -2283449.10521        14.000           0.531
  21947069.776     6843502.486 6   5331044.91321        14.000           1.250
 91  6 27 17 34 59.9990000  0  4G 2G16G11G19
  20574658.183    -1937661.772 7  -1470241.29123        27.750           2.594
  23994959.831     1879603.713 5    824852.43221         7.500           0.344
  23492064.542    -2976197.671 6  -2263351.23721        14.000           0.625
  21952465.823     6871854.099 6   5353137.03221        13.500           1.313
 91  6 27 17 35 14.9990000  0  4G 2G16G11G19
  20571231.198    -1955665.409 7  -1484270.09623        27.250           2.719
  24000527.503     1908888.066 4    847671.31521         7.000           0.313
  23497001.089    -2950283.105 6  -2243158.10421        13.750           0.656
  21957870.698     6900258.102 6   5375269.98121        14.250           1.250
 91  6 27 17 35 29.9990000  0  4G 2G16G11G19
  20567819.456    -1973587.900 7  -1498235.67323        26.750           2.656
  24006123.800     1938238.681 5    870541.80021         8.000           0.188
  23501953.214    -2924246.148 6  -2222869.58021        13.500           0.563
  21963286.683     6928714.990 6   5397444.14821        14.250           1.250
 91  6 27 17 35 44.9990000  0  4G 2G16G11G19
  20564428.230    -1991423.858 7  -1512133.82423        27.750           2.688
  24011722.151     1967660.551 5    893467.81221         8.250           0.344
  23506931.323    -2898081.529 6  -2202481.60021        12.750           0.500
  21968711.448     6957230.063 6   5419663.64821        14.250           1.250
 91  6 27 17 35 59.9990000  0  4G 2G16G11G19
  20561052.706    -2009171.819 8  -1525963.39823        28.250           2.625
  24017336.339     1997154.886 5    916450.30521         7.750           0.406
  23511935.698    -2871788.019 6  -2181993.17721        13.000           0.563
  21974150.050     6985804.987 6   5441929.77721        13.750           1.313
 91  6 27 17 36 14.9990000  0  4G 2G16G11G19
  20557686.222    -2026840.878 7  -1539731.49923        27.000           2.656
  24022954.159     2026711.827 4    939481.55821         7.250           0.219
  23516965.675    -2845375.081 6  -2161411.68421        13.000           0.563
  21979595.597     7014430.514 6   5464235.34021        14.250           1.250
 91  6 27 17 36 29.9990000  0  4G 2G16G11G19
  20554341.378    -2044424.771 7  -1553433.22823        27.500           2.688
  24028594.065     2056337.476 5    962566.37621         7.500           0.313
  23522009.792    -2818836.552 6  -2140732.33321        12.000           0.469
  21985059.011     7043113.005 6   5486585.29821        14.500           1.281
 91  6 27 17 36 44.9990000  0  4G 2G16G11G19
  20551010.776    -2061922.942 7  -1567068.16823        27.000           2.750
  24034246.378     2086032.297 5    985705.04521         7.500           0.281
  23527086.308    -2792172.140 5  -2119954.89221        11.750           0.500
  21990524.253     7071853.004 6   5508980.06521        15.000           1.219
 91  6 27 17 36 59.9990000  0  4G 2G16G11G19
  20547699.097    -2079334.897 7  -1580635.93023        27.000           2.719
  24039905.323     2115796.227 4   1008897.61821         6.750           0.438
  23532182.058    -2765381.697 5  -2099079.24421        11.250           0.531
  21996004.159     7100650.950 6   5531419.98621        14.500           1.125
 91  6 27 17 37 14.9990000  0  4G 2G16G11G19
  20544402.815    -2096662.334 8  -1594137.82123        28.000           2.719
  24045581.956     2145627.461 4   1032142.61921         6.500           0.281
  23537301.886    -2738467.250 5  -2078106.97821        11.500           0.531
  22001494.823     7129505.066 6   5553903.67221        15.000           1.250
 91  6 27 17 37 29.9990000  0  4G 2G16G11G19
  20541120.183    -2113902.200 7  -1607571.48623        27.500           2.688
  24051271.792     2175528.658 3   1055442.13521         6.000           0.219
  23542450.417    -2711426.000 6  -2057035.90021        13.000           0.500
  22006998.222     7158418.342 6   5576433.46421        15.000           1.219
 91  6 27 17 37 44.9990000  0  4G 2G16G11G19
  20537855.315    -2131060.461 7  -1620941.55723        27.250           2.594
  24056971.972     2205493.321 4   1078791.09521         6.750           0.219
  23547616.690    -2684263.991 6  -2035870.71821        12.750           0.531
  22012513.315     7187384.926 6   5599004.78621        16.000           1.250
 91  6 27 17 37 59.9990000  0  4G 2G16G11G19
  20534605.003    -2148134.129 7  -1634245.71823        26.000           2.719
  24062697.995     2235524.196 4   1102191.67921         7.000           0.344
  23552812.198    -2656978.436 6  -2014609.26721        13.250           0.500
  22018031.151     7216407.873 6   5621620.02821        15.500           1.250
 91  6 27 17 38 14.9990000  0  4G 2G16G11G19
  20531372.972    -2165120.711 7  -1647482.02123        27.000           2.656
  24068418.940     2265623.635 4   1125645.63721         7.000           0.219
  23558028.503    -2629567.100 6  -1993249.78521        13.750           0.500
  22023566.159     7245489.642 6   5644281.10321        15.500           1.281
 91  6 27 17 38 29.9990000  0  4G 2G16G11G19
  20528156.401    -2182021.573 7  -1660651.53023        27.000           2.594
  24074164.706     2295789.450 5   1149151.35421         7.750           0.250
  23563267.300    -2602031.963 6  -1971793.85621        13.500           0.500
  22029112.065     7274628.734 6   5666986.83921        15.500           1.219
 91  6 27 17 38 44.9990000  0  4G 2G16G11G19
  20524958.308    -2198840.977 7  -1673757.55623        27.500           2.656
  24079916.542     2326017.215 4   1172705.35221         7.000           0.281
  23568533.222    -2574377.494 6  -1950244.94821        12.750           0.438
  22034664.589     7303820.753 6   5689733.83021        15.250           1.188
 91  6 27 17 38 59.9990000  0  4G 2G16G11G19
  20521771.933    -2215575.040 7  -1686797.08623        27.250           2.656
  24085673.136     2356310.568 4   1196310.47121         6.250           0.281
  23573818.409    -2546599.938 6  -1928600.13721        13.000           0.375
  22040234.183     7333069.605 6   5712525.09721        14.750           1.219
 91  6 27 17 39 14.9990000  0  3G 2G11G19
  20518601.706    -2232230.438 7  -1699775.32223        26.500           2.563
  23579118.784    -2518706.318 5  -1906864.85721        11.500           0.406
  22045808.237     7362368.619 6   5735355.46021        15.500           1.125
 91  6 27 17 39 29.9990000  0  3G 2G11G19
  20515446.917    -2248804.235 7  -1712689.98023        26.500           2.625
  23584452.347    -2490693.880 6  -1885037.01521        12.500           0.344
  22051394.948     7391720.921 6   5758227.34721        14.500           1.188
 91  6 27 17 39 44.9990000  0  3G 2G11G19
  20512312.526    -2265293.874 8  -1725539.05223        28.250           2.563
  23589809.573    -2462560.425 6  -1863114.86521        13.500           0.500
  22056991.214     7421128.923 6   5781142.63121        14.750           1.188
 91  6 27 17 39 59.9990000  0  3G 2G11G19
  20509188.901    -2281706.526 7  -1738328.13223        27.750           2.563
  23595184.745    -2434313.280 6  -1841104.11021        13.000           0.469
  22062599.612     7450585.553 6   5804095.79421        13.750           1.094
 91  6 27 17 40 14.9990000  0  3G 2G11G19
  20506080.222    -2298038.898 7  -1751054.66023        27.500           2.625
  23600581.425    -2405949.234 6  -1819002.27921        12.500           0.531
  22068212.886     7480094.167 6   5827089.48421        14.250           1.219
 91  6 27 17 40 29.9990000  0  3G 2G11G19
  20502989.675    -2314282.837 7  -1763712.27323        27.250           2.563
  23605998.370    -2377460.769 6  -1796803.52621        12.250           0.531
  22073836.667     7509662.719 6   5850129.86621        14.750           1.250
 91  6 27 17 40 44.9990000  0  3G 2G11G19
  20499913.495    -2330441.851 7  -1776303.71823        27.250           2.625
  23611444.683    -2348851.680 5  -1774510.76221        11.750           0.531
  22079475.636     7539287.599 6   5873214.13221        14.500           1.281
 91  6 27 17 40 59.9990000  0  3G 2G11G19
  20496854.667    -2346521.049 7  -1788832.97223        27.750           2.625
  23616911.136    -2320127.019 5  -1752127.93921        11.750           0.500
  22085121.651     7568964.039 6   5896338.58021        14.000           1.250
 91  6 27 17 41 14.9990000  0  3G 2G11G19
  20493808.894    -2362515.298 7  -1801296.01623        26.500           2.563
  23622404.940    -2291281.956 6  -1729651.29921        12.500           0.500
  22090781.269     7598697.188 6   5919507.22321        14.500           1.250
 91  6 27 17 41 29.9990000  0  3G 2G11G19
  20490782.831    -2378424.405 7  -1813692.73223        27.000           2.719
  23627916.964    -2262316.584 6  -1707080.91121        12.750           0.563
  22096455.456     7628487.162 6   5942720.14621        13.500           1.250
 91  6 27 17 41 44.9990000  0  3G 2G11G19
  20487771.448    -2394249.386 7  -1826023.88123        26.500           2.563
  23633451.589    -2233232.303 6  -1684417.87821        13.000           0.531
  22102130.144     7658332.763 6   5965976.40521        14.750           1.188
 91  6 27 17 41 59.9990000  0  3G 2G11G19
  20484776.503    -2409992.878 7  -1838291.54823        26.500           2.688
  23639007.933    -2204032.043 6  -1661664.45621        12.750           0.563
  22107819.972     7688231.372 6   5989273.97421        14.250           1.156
 91  6 27 17 42 14.9990000  0  3G 2G11G19
  20481795.792    -2425651.791 7  -1850493.29823        26.750           2.656
  23644580.769    -2174712.939 5  -1638818.43521        11.250           0.625
  22113518.659     7718186.126 6   6012615.29921        14.250           1.156
 91  6 27 17 42 29.9990000  0  3G 2G11G19
  20478829.519    -2441229.975 7  -1862632.14722        26.750           2.469
  23650187.667    -2145279.151 5  -1615883.04221        11.750           0.563
  22119228.706     7748193.156 6   6035997.36321        14.250           1.188
 91  6 27 17 42 44.9990000  0  3G 2G11G19
  20475882.097    -2456726.962 7  -1874707.72423        26.750           2.688
  23655803.167    -2115730.558 5  -1592858.20421        11.250           0.594
  22124950.058     7778252.832 6   6059420.43121        15.000           1.281
 91  6 27 17 42 59.9990000  0  3G 2G11G19
  20472948.776    -2472141.036 7  -1886718.69323        26.250           2.719
  23661454.394    -2086065.483 6  -1569742.59721        12.250           0.500
  22130679.792     7808366.893 6   6082885.88421        14.750           1.281
 91  6 27 17 43 14.9990000  0  3G 2G11G19
  20470033.464    -2487470.170 7  -1898663.48023        26.750           2.594
  23667125.159    -2056282.353 6  -1546535.01021        12.750           0.469
  22136421.300     7838537.300 6   6106395.24721        15.750           1.250
 91  6 27 17 43 29.9990000  0  3G 2G11G19
  20467131.089    -2502716.970 7  -1910544.10123        25.750           2.563
  23672812.011    -2026383.944 6  -1523237.57721        12.750           0.531
  22142173.659     7868761.499 6   6129946.52621        15.500           1.219
 91  6 27 17 43 44.9990000  0  3G 2G11G19
  20464244.519    -2517878.645 7  -1922358.39723        26.000           2.531
  23678517.401    -1996367.720 6  -1499848.33021        12.750           0.625
  22147934.401     7899042.370 6   6153541.96121        15.250           1.156
 91  6 27 17 43 59.9990000  0  3G 2G11G19
  20461374.526    -2532960.205 7  -1934110.26223        25.500           2.531
  23684257.159    -1966238.981 6  -1476371.43521        14.000           0.438
  22153706.534     7929374.932 6   6177177.68021        14.750           1.125
 91  6 27 17 44 14.9990000  0  3G 2G11G19
  20458521.847    -2547959.186 7  -1945797.78523        26.500           2.594
  23690010.214    -1935995.705 6  -1452805.28621        14.000           0.469
  22159490.784     7959761.532 6   6200855.50021        15.000           1.094
 91  6 27 17 44 29.9990000  0  3G 2G11G19
  20455683.464    -2562877.824 7  -1957422.69623        27.500           2.594
  23695786.909    -1905640.284 6                        13.000
  22165283.253     7990200.008 6                        14.250
 91  6 27 17 44 44.9990000  0  3G 2G11G19
  20452859.315    -2577716.185 7  -1968985.05323        27.000           2.500
  23701585.589    -1875172.968 6                        12.500
  22171085.659     8020690.331 6                        14.750
 91  6 27 17 44 59.9990000  0  3G 2G11G19
  20450051.855    -2592469.576 7  -1980481.19923        26.500           2.531
  23707405.112    -1844589.367 6                        12.500
  22176897.245     8051237.143 6                        14.000
 91  6 27 17 45 14.9990000  0  3G 2G11G19
  20447259.878    -2607139.565 7  -1991912.36023        26.750           2.531
  23713249.292    -1813891.250 6  -1357659.12021        13.500           0.500
  22182719.769     8081838.977 6   6295980.58721        14.750           1.313
 91  6 27 17 45 29.9990000  0  3G 2G11G19
  20444483.620    -2621729.650 7  -2003281.27023        27.000           2.531
  23719110.980    -1783082.458 6  -1333652.31921        13.250           0.531
  22188552.870     8112492.292 6   6319866.24121        14.500           1.188
 91  6 27 17 45 44.9990000  0  3G 2G11G19
  20441724.542    -2636239.002 7  -2014587.25223        27.750           2.625
  23724993.612    -1752162.625 6  -1309558.98321        12.250           0.594
  22194394.534     8143197.713 6   6343792.49321        14.750           1.250
 91  6 27 17 45 59.9990000  0  3G 2G11G19
  20438976.855    -2650668.596 7  -2025831.09423        27.250           2.563
  23730899.651    -1721132.958 6  -1285380.07021        12.250           0.531
  22200250.894     8173954.091 6   6367758.46121        14.250           1.219
 91  6 27 17 46 14.9990000  0  3G 2G11G19
  20436247.183    -2665021.496 7  -2037015.17223        27.750           2.594
  23736823.925    -1689996.783 6  -1261118.14921        12.750           0.563
  22206110.362     8204758.539 6   6391761.87121        14.750           1.125
 91  6 27 17 46 29.9990000  0  3G 2G11G19
  20433529.440    -2679293.381 7  -2048136.12223        26.750           2.656
  23742772.597    -1658749.896 6  -1236769.96821        14.250           0.531
  22211985.206     8235615.457 6   6415806.17621        14.250           1.188
 91  6 27 17 46 44.9990000  0  3G 2G11G19
  20430831.073    -2693486.108 7  -2059195.39923        27.000           2.625
  23748733.487    -1627394.468 6  -1212337.20621        13.250           0.594
  22217866.730     8266522.959 6   6439889.89221        15.250           1.188
 91  6 27 17 46 59.9990000  0  3G 2G11G19
  20428144.542    -2707595.981 7  -2070190.10223        27.500           2.563
  23754725.394    -1595927.099 6  -1187817.22521        13.000           0.531
  22223756.503     8297484.803 6   6464015.94421        15.000           1.125
 91  6 27 17 47 14.9990000  0  3G 2G11G19
  20425475.925    -2721630.305 7  -2081125.94623        27.000           2.563
  23760732.784    -1564355.415 6  -1163215.94421        13.500           0.531
  22229659.995     8328493.704 6   6488178.67821        14.750           1.219
 91  6 27 17 47 29.9990000  0  3G 2G11G19
  20422819.534    -2735581.873 7  -2091997.30023        26.750           2.594
  23766762.878    -1532672.530 6  -1138528.01521        13.250           0.531
  22235568.605     8359556.807 6   6512383.65421        14.250           1.188
 91  6 27 17 47 44.9990000  0  3G 2G11G19
  20420180.761    -2749446.946 7  -2102801.25123        27.500           2.594
  23772811.394    -1500874.897 6  -1113750.68021        12.750           0.594
  22241489.378     8390677.805 6   6536633.73921        14.500           1.219
 91  6 27 17 47 59.9990000  0  3G 2G11G19
  20417558.776    -2763223.610 7  -2113536.32023        27.000           2.625
  23778882.112    -1468960.788 6  -1088882.60621        13.000           0.531
  22247428.519     8421858.641 6   6560930.44421        14.500           1.156
 91  6 27 17 48 14.9990000  0  3G 2G11G19
  20414952.456    -2776919.348 7  -2124208.33023        26.750           2.531
  23784979.839    -1436938.066 6  -1063929.88621        13.250           0.500
  22253365.933     8453091.790 6   6585267.89921        14.500           1.125
 91  6 27 17 48 29.9990000  0  3G 2G11G19
  20412359.784    -2790540.699 7  -2134822.36623        27.000           2.594
  23791092.558    -1404813.575 6  -1038897.85721        14.000           0.406
  22259318.417     8484370.716 6   6609641.04421        14.250           1.094
 91  6 27 17 48 44.9990000  0  3G 2G11G19
  20409784.378    -2804077.921 7  -2145370.85823        27.250           2.594
  23797231.065    -1372577.994 6  -1013779.27521        13.750           0.500
  22265280.175     8515705.044 6   6634057.35821        13.750           1.063
 91  6 27 17 48 59.9990000  0  3G 2G11G19
  20407224.386    -2817534.833 7  -2155856.76123        26.750           2.500
  23803384.315    -1340235.274 6   -988577.20521        12.500           0.438
  22271259.730     8547091.100 6   6658513.97821        14.000           1.000
 91  6 27 17 49 14.9990000  0  3G 2G11G19
  20404675.370    -2830911.448 7  -2166280.09723        26.000           2.531
  23809557.034    -1307785.580 6   -963291.78021        12.250           0.375
  22277240.230     8578528.937 6   6683010.95321        14.500           1.063
 91  6 27 17 49 29.9990000  0  3G 2G11G19
  20402146.003    -2844204.514 7  -2176638.33323        26.500           2.531
  23815746.690    -1275225.942 5   -937920.68221        11.750           0.219
  22283232.073     8610021.899 6   6707550.86021        14.250           1.125
 91  6 27 17 49 44.9990000  0  3G 2G11G19
  20399633.917    -2857416.861 7  -2186933.67123        27.000           2.563
  23821966.573    -1242559.628 5   -912466.44421        11.750           0.313
  22289229.823     8641566.894 6   6732131.33021        14.250           1.031
 91  6 27 17 49 59.9990000  0  3G 2G11G19
  20397133.870    -2870548.600 7  -2197166.18723        26.750           2.531
  23828205.019    -1209786.973 6   -886929.37021        12.250           0.375
  22295248.737     8673164.041 6   6756752.43921        14.500           1.031
 91  6 27 17 50 14.9990000  0  3G 2G11G19
  20394651.558    -2883596.704 7  -2207333.54123        27.000           2.594
  23834459.581    -1176905.310 5   -861307.34621        11.750           0.438
  22301270.230     8704816.257 6   6781416.45721        14.500           1.063
 91  6 27 17 50 29.9990000  0  3G 2G11G19
  20392185.042    -2896564.717 7  -2217438.48823        27.750           2.500
  23840738.105    -1143918.360 6   -835603.26821        12.000           0.406
  22307305.784     8736519.926 6   6806120.55721        14.500           1.000
 91  6 27 17 50 44.9990000  0  3G 2G11G19
  20389731.628    -2909456.037 7  -2227483.67123        27.000           2.594
  23847038.987    -1110829.797 6   -809820.02421        12.750           0.469
  22313344.644     8768271.672 6   6830862.13721        14.000           1.000
 91  6 27 17 50 59.9990000  0  3G 2G11G19
  20387293.417    -2922266.424 7  -2237465.79123        27.250           2.500
  23853356.026    -1077635.691 6   -783954.53821        13.750           0.469
  22319396.245     8800075.843 6   6855644.56021        13.750           1.000
 91  6 27 17 51 14.9990000  0  3G 2G11G19
  20384870.980    -2934996.680 7  -2247385.46323        27.750           2.531
  23859690.433    -1044337.143 6   -758007.67421        13.750           0.344
  22325458.042     8831931.538 6   6880467.11821        14.250           1.156
 91  6 27 17 51 29.9990000  0  3G 2G11G19
  20382464.698    -2947644.620 7  -2257240.99622        27.500           2.438
  23866048.519    -1010932.339 6   -731978.00921        13.750           0.313
  22331531.628     8863840.941 6   6905331.54421        14.000           1.219
 91  6 27 17 51 44.9990000  0  3G 2G11G19
  20380073.620    -2960209.784 7  -2267032.04022        27.250           2.438
  23872421.761     -977421.035 6   -705865.33121        13.000           0.281
  22337613.573     8895804.625 6   6930238.26121        14.250           1.094
 91  6 27 17 51 59.9990000  0  3G 2G11G19
  20377695.386    -2972695.589 7  -2276761.23723        26.250           2.500
  23878822.722     -943807.055 6   -679672.65721        13.750           0.281
  22343709.808     8927818.910 6   6955184.40721        13.750           1.094
 91  6 27 17 52 14.9990000  0  3G 2G11G19
  20375337.167    -2985100.920 7  -2286427.72922        27.250           2.469
  23885236.964     -910089.561 6   -653399.32121        13.500           0.313
  22349805.081     8959884.992 6   6980170.91321        14.250           1.156
 91  6 27 17 52 29.9990000  0  3G 2G11G19
  20372992.792    -2997425.597 7  -2296031.37323        27.500           2.594
  23891668.995     -876268.461 6   -627045.27121        12.750           0.406
  22355921.550     8992003.197 6   7005198.03321        13.750           1.156
 91  6 27 17 52 44.9990000  0  3G 2G11G19
  20370661.440    -3009667.030 8  -2305570.15023        28.000           2.563
  23898129.034     -842341.433 6   -600608.67821        13.500           0.500
  22362042.362     9024176.030 6   7030267.72121        14.750           1.094
 91  6 27 17 52 59.9990000  0  3G 2G11G19
  20368348.370    -3021827.181 7  -2315045.59623        27.750           2.656
  23904605.144     -808310.871 6   -574091.41721        14.000           0.250
  22368175.417     9056401.353 6   7055378.32021        15.250           1.063
 91  6 27 17 53 14.9990000  0  3G 2G11G19
  20366049.519    -3033909.221 7  -2324460.17523        27.250           2.594
  23911100.315     -774179.989 6   -547495.95321        13.500           0.344
  22374318.011     9088676.219 6   7080527.52221        15.000           0.938
 91  6 27 17 53 29.9990000  0  3G 2G11G19
  20363764.675    -3045909.242 7  -2333810.84423        27.500           2.531
  23917615.472     -739945.221 6   -520819.56321        14.000           0.469
  22380468.831     9121004.666 6   7105718.46521        14.250           1.000
 91  6 27 17 53 44.9990000  0  3G 2G11G19
  20361499.339    -3057826.637 8  -2343097.12623        29.500           2.594
  23924146.636     -705606.438 6   -494062.12621        12.500           0.438
  22386629.956     9153387.068 6   7130951.45321        13.750           0.969
 91  6 27 17 53 59.9990000  0  3G 2G11G19
  20359245.847    -3069665.275 8  -2352322.03923        29.500           2.656
  23930700.253     -671167.963 5   -467227.02721        11.500           0.344
  22392806.605     9185819.494 6   7156223.43321        13.000           1.063
 91  6 27 17 54 14.9990000  0  3G 2G11G19
  20357008.534    -3081424.531 8  -2361485.09523        28.250           2.625
  23937274.620     -636629.285 5   -440313.82821        11.750           0.281
  22398980.065     9218302.705 6   7181534.98421        14.250           1.000
 91  6 27 17 54 29.9990000  0  3G 2G11G19
  20354784.995    -3093103.366 8  -2370585.48423        28.250           2.531
  23943864.026     -601989.607 5   -413321.89821        11.500           0.313
  22405178.058     9250837.663 6   7206886.84321        13.750           1.094
 91  6 27 17 54 44.9990000  0  3G 2G11G19
  20352576.831    -3104700.924 7  -2379622.54522        27.750           2.469
  23950476.315     -567248.388 6   -386250.86721        12.000           0.281
  22411377.573     9283425.317 6   7232279.76921        14.000           1.031
 91  6 27 17 54 59.9990000  0  3G 2G11G19
  20350385.698    -3116219.048 8  -2388597.70422        28.000           2.438
  23957108.948     -532407.682 6   -359102.30521        12.750           0.219
  22417586.440     9316063.795 6   7257712.30121        13.000           0.938
 91  6 27 17 55 14.9990000  0  3G 2G11G19
  20348208.558    -3127656.901 7  -2397510.32022        27.750           2.469
  23963756.480     -497466.929 6   -331875.79821        12.500           0.406
  22423807.167     9348753.992 6   7283185.12121        13.250           0.969
 91  6 27 17 55 29.9990000  0  3G 2G11G19
  20346048.808    -3139012.147 7  -2406358.56722        27.750           2.375
  23970425.362     -462424.236 5   -304569.86721        11.500           0.313
  22430040.956     9381497.978 6   7308699.86021        12.750           1.000
 91  6 27 17 55 44.9990000  0  3G 2G11G19
  20343902.909    -3150288.109 7  -2415145.02822        27.500           2.438
  23977111.300     -427283.162 5   -277187.26921        11.500           0.375
  22436280.144     9414292.535 6   7334254.00221        13.000           0.906
 91  6 27 17 55 59.9990000  0  3G 2G11G19
  20341771.065    -3161485.721 7  -2423870.44822        27.750           2.344
  23983818.230     -392044.989 5   -249729.01021        11.250           0.375
  22442526.237     9447136.674 6   7359846.78421        12.500           0.875
 91  6 27 17 56 14.9990000  0  3G 2G11G19
  20339656.292    -3172606.106 8  -2432535.68822        28.000           2.313
  23990541.308     -356711.059 5   -222196.12121        10.500           0.313
  22448791.308     9480029.405 6   7385477.44321        13.250           0.844
 91  6 27 17 56 29.9990000  0  3G 2G11G19
  20337555.925    -3183643.346 8  -2441136.13822        28.250           2.344
  23997279.730     -321275.674 5   -194584.18821        10.000           0.344
  22455053.948     9512976.625 6   7411150.53521        13.000           0.906
 91  6 27 17 56 44.9990000  0  3G 2G11G19
  20335470.339    -3194599.060 7  -2449673.06522        27.750           2.375
  24004043.792     -285740.809 5   -166894.73121         9.750           0.438
  22461340.784     9545976.696 6   7436864.83721        14.250           0.719
 91  6 27 17 56 59.9990000  0  3G 2G11G19
  20333402.292    -3205476.239 8  -2458148.78622        28.000           2.438
  24010826.347     -250109.871 5   -139130.42121         9.750           0.406
  22467630.175     9579026.742 6   7462618.07021        13.250           0.719
 91  6 27 17 57 14.9990000  0  3G 2G11G19
  20331345.972    -3216273.831 8  -2466562.50322        28.500           2.406
  24017622.026     -214381.795 5   -111290.42721        10.250           0.438
  22473922.901     9612127.770 6   7488411.02421        13.000           0.750
 91  6 27 17 57 29.9990000  0  3G 2G11G19
  20329307.112    -3226989.529 8  -2474912.40323        28.750           2.500
  24024444.628     -178554.732 5    -83373.28421        11.000           0.406
  22480238.456     9645281.979 6   7514245.43321        12.250           0.813
 91  6 27 17 57 44.9990000  0  3G 2G11G19
  20327282.237    -3237623.950 8  -2483198.97222        29.000           2.406
  24031276.769     -142629.642 5    -55379.77221        10.500           0.438
  22486552.026     9678488.743 6   7540120.77021        12.000           0.969
 91  6 27 17 57 59.9990000  0  3G 2G11G19
  20325275.222    -3248178.235 8  -2491423.09022        28.750           2.406
  24038130.956     -106608.042 5    -27311.05321        10.000           0.469
  22492886.065     9711746.775 6   7566036.05921        12.750           0.969
 91  6 27 17 58 14.9990000  0  3G 2G11G19
  20323281.745    -3258650.818 8  -2499583.54923        28.250           2.531
  24045003.456      -70488.512 5       833.98721        10.000           0.469
  22499225.159     9745057.787 6   7591992.63321        13.250           1.094
 91  6 27 17 58 29.9990000  0  3G 2G11G19
  20321304.284    -3269046.192 8  -2507683.84423        28.500           2.625
  24051897.034      -34275.863 5     29051.58721         9.750           0.438
  22505572.362     9778417.327 6   7617987.02321        12.000           1.125
 91  6 27 17 58 44.9990000  0  3G 2G11G19
  20319341.987    -3279358.189 8  -2515719.17523        29.250           2.531
  24058809.839        2035.793 5     57346.31321         9.250           0.375
  22511928.769     9811831.562 6   7644024.01521        13.000           1.000
 91  6 27 17 58 59.9990000  0  3G 2G11G19
  20317394.948    -3289587.533 8  -2523690.08923        28.500           2.531
  24065740.815       38445.577 5     85717.51521         9.750           0.344
  22518299.761     9845299.759 6   7670103.08621        13.500           0.969
 91  6 27 17 59 14.9990000  0  3G 2G11G19
  20315462.401    -3299736.831 8  -2531598.64222        28.250           2.375
  24072680.144       74950.406 5    114162.78121         9.000           0.344
  22524673.847     9878819.199 6   7696222.07621        13.250           0.781
 91  6 27 17 59 29.9990000  0  3G 2G11G19
  20313546.847    -3309807.908 8  -2539446.23923        28.250           2.500
  24079644.472      111548.144 5    142680.45521         9.250           0.469
  22531069.440     9912388.288 6   7722379.75521        13.500           0.906
 91  6 27 17 59 44.9990000  0  3G 2G11G19
  20311645.026    -3319800.411 8  -2547232.61223        28.000           2.500
  24086629.276      148238.795 5    171270.51921         9.750           0.469
  22537459.073     9946007.241 6   7748576.29321        13.250           0.906
 91  6 27 17 59 59.9990000  0  3G 2G11G19
  20309760.105    -3329713.801 8  -2554957.33722        29.250           2.469
  24093629.151      185022.825 5    199933.33221        10.250           0.406
  22543869.183     9979676.727 6   7774812.20221        12.750           0.844
 91  6 27 18  0 14.9990000  0  3G 2G11G19
  20307887.878    -3339547.306 8  -2562619.81023        28.750           2.500
  24100644.073      221900.647 5    228669.22821        10.750           0.531
  22550284.519    10013397.452 6   7801088.03221        13.000           0.938
 91  6 27 18  0 29.9990000  0  3G 2G11G19
  20306031.886    -3349305.895 8  -2570223.91422        28.000           2.406
  24107679.206      258866.911 5    257474.05821        10.750           0.406
  22556715.565    10047164.299 6   7827399.80621        13.000           0.938
 91  6 27 18  0 44.9990000  0  3G 2G11G19
  20304189.761    -3358984.210 8  -2577765.46122        28.500           2.438
  24114732.464      295926.585 5    286351.65921        10.250           0.563
  22563150.253    10080982.576 6   7853751.64321        14.000           1.063
 91  6 27 18  0 59.9990000  0  3G 2G11G19
  20302362.706    -3368582.861 8  -2585244.94023        28.750           2.500
  24121804.706      333078.906 5    315301.47921        10.750           0.469
  22569595.487    10114851.686 6   7880143.10321        13.250           1.094
 91  6 27 18  1 14.9990000  0  3G 2G11G19
  20300549.050    -3378104.940 7  -2592664.74622        27.500           2.469
  24128887.058      370320.520 5    344320.86221        10.250           0.469
  22576049.144    10148768.505 6   7906571.72021        13.500           1.000
 91  6 27 18  1 29.9990000  0  3G 2G11G19
  20298754.886    -3387548.681 8  -2600023.51422        28.250           2.438
  24135996.605      407652.861 5    373410.95021        10.500           0.500
  22582509.167    10182734.817 6   7933038.91721        12.000           1.063
 91  6 27 18  1 44.9990000  0  3G 2G11G19
  20296973.636    -3396909.503 8  -2607317.66023        29.000           2.500
  24143117.042      445080.328 5    402575.14121        10.000           0.375
  22588983.190    10216755.453 6   7959548.44721        12.250           1.000
 91  6 27 18  1 59.9990000  0  3G 2G11G19
  20295205.159    -3406193.503 8  -2614551.95422        29.250           2.469
  24150254.636      482596.401 5    431808.40121         9.250           0.406
  22595468.065    10250824.192 6   7986095.45021        12.500           0.906
 91  6 27 18  2 14.9990000  0  3G 2G11G19
  20293454.175    -3415398.494 8  -2621724.67522        28.750           2.469
  24157412.511      520202.964 5    461112.17121         9.500           0.438
  22601959.362    10284943.156 6   8012681.59021        12.750           1.000
 91  6 27 18  2 29.9990000  0  3G 2G11G19
  20291718.597    -3424522.579 8  -2628834.35422        28.500           2.438
  24164588.276      557901.710 5    490487.78021         9.000           0.406
  22608464.230    10319114.332 6   8039308.41421        12.750           0.875
 91  6 27 18  2 44.9990000  0  3G 2G11G19
  20289997.167    -3433569.668 8  -2635884.03322        29.500           2.469
  24171773.253      595688.410 5    519931.89821         8.500           0.406
  22614970.987    10353333.831 6   8065972.88821        13.000           0.781
 91  6 27 18  2 59.9990000  0  3G 2G11G19
  20288288.628    -3442535.725 8  -2642870.58023        29.000           2.500
  24178983.644      633566.691 5    549447.37821         8.500           0.313
  22621494.425    10387605.586 6   8092678.10721        13.500           0.719
 91  6 27 18  3 14.9990000  0  3G 2G11G19
  20286597.495    -3451424.295 8  -2649796.74022        28.250           2.469
  24186211.331      671532.642 5    579031.17021         8.500           0.406
  22628023.190    10421926.120 6   8119421.31521        13.250           0.781
 91  6 27 18  3 29.9990000  0  3G 2G11G19
  20284921.987    -3460233.532 8  -2656661.09023        28.500           2.500
  24193451.378      709587.912 5    608684.59421         7.750           0.375
  22634568.050    10456297.196 6   8146203.91621        13.500           0.719
 91  6 27 18  3 44.9990000  0  3G 2G11G19
  20283259.370    -3468963.241 8  -2663463.46023        28.250           2.500
  24200713.714      747732.329 5    638407.45421         9.000           0.313
  22641119.065    10490718.937 6   8173025.99721        13.000           0.844
 91  6 27 18  3 59.9990000  0  3G 2G11G19
  20281614.667    -3477616.502 8  -2670206.27223        29.250           2.500
  24207984.183      785962.653 5    668197.28321         8.250           0.188
  22647677.573    10525188.328 6   8199885.20021        12.500           0.750
 91  6 27 18  4 14.9990000  0  3G 2G11G19
  20279981.526    -3486191.563 8  -2676888.14423        28.250           2.531
  24215282.440      824280.272 5    698055.12521         9.250           0.281
  22654246.792    10559707.158 6   8226782.92221        13.000           0.781
 91  6 27 18  4 29.9990000  0  3G 2G11G19
  20278366.597    -3494686.127 8  -2683507.28423        29.250           2.531
  24222586.112      862687.249 5    727982.60921         8.500           0.281
  22660829.706    10594277.625 5   8253720.88921        11.750           0.875
 91  6 27 18  4 44.9990000  0  3G 2G11G19
  20276765.222    -3503102.501 8  -2690065.50723        29.000           2.500
  24229908.605      901181.033 5    757977.68821         7.500           0.281
  22667413.480    10628897.675 6   8280697.47921        12.000           0.938
 91  6 27 18  4 59.9990000  0  3G 2G11G19
  20275178.933    -3511438.281 8  -2696560.92423        28.750           2.531
  24237253.558      939763.598 5    788041.98321         7.750           0.281
  22674013.440    10663569.392 5   8307714.33921        11.750           1.000
 91  6 27 18  5 14.9990000  0  3G 2G11G19
  20273606.940    -3519698.445 8  -2702997.42823        29.000           2.531
  24244615.847      978429.568 5    818171.26421         7.500           0.375
  22680618.839    10698287.903 6   8334767.64621        13.250           0.969
 91  6 27 18  5 29.9990000  0  3G 2G11G19
  20272048.972    -3527879.850 8  -2709372.55522        29.000           2.438
  24251985.339     1017182.010 4    848367.90121         6.750           0.313
  22687232.987    10733056.275 6   8361859.82421        13.000           0.969
 91  6 27 18  5 44.9990000  0  3G 2G11G19
  20270508.644    -3535982.277 8  -2715686.13223        29.250           2.500
  24259380.972     1056020.766 4    878631.78621         7.250           0.250
  22693860.308    10767874.812 6   8388991.08621        12.500           0.969
 91  6 27 18  5 59.9990000  0  3G 2G11G19
  20268980.237    -3544007.694 7  -2721939.70422        27.750           2.438
  24266778.355     1094943.496 5    908961.15321         7.500           0.188
  22700494.448    10802741.498 6   8416159.86621        12.000           0.906
 91  6 27 18  6 14.9990000  0  3G 2G11G19
  20267468.980    -3551955.585 8  -2728132.87822        29.250           2.406
  24274208.901     1133950.535 5    939356.21521         7.750           0.281
  22707140.308    10837656.945 6   8443366.65321        12.500           0.844
 91  6 27 18  6 29.9990000  0  2G 2G19
  20265970.292    -3559825.605 8  -2734265.36922        28.250           2.469
  22713796.237    10872621.456 5   8470611.64121        11.000           0.875
 91  6 27 18  6 44.9990000  0  2G 2G19
  20264488.347    -3567619.757 8  -2740338.73422        29.250           2.406
  22720454.089    10907633.048 6   8497893.34821        12.000           0.875
 91  6 27 18  6 59.9990000  0  2G 2G19
  20263019.315    -3575337.168 8  -2746352.30922        29.250           2.375
  22727130.901    10942692.406 6   8525212.25921        12.250           0.750
 91  6 27 18  7 14.9990000  0  2G 2G19
  20261564.159    -3582978.604 8  -2752306.68922        28.750           2.406
  22733806.433    10977799.095 5   8552568.06121        11.500           0.688
 91  6 27 18  7 29.9990000  0  2G 2G19
  20260126.667    -3590540.582 8  -2758199.14522        29.250           2.344
  22740497.784    11012956.490 5   8579963.37521        11.250           0.719
 91  6 27 18  7 44.9990000  0  2G 2G19
  20258699.714    -3598027.366 8  -2764033.00022        28.750           2.375
  22747195.745    11048160.073 5   8607394.65821        11.250           0.688
 91  6 27 18  7 59.9990000  0  2G 2G19
  20257289.878    -3605438.685 8  -2769808.06722        28.000           2.375
  22753903.456    11083410.176 5   8634862.20321        11.250           0.781
 91  6 27 18  8 14.9990000  0  2G 2G19
  20255895.534    -3612770.611 8  -2775521.26322        28.500           2.281
  22760620.128    11118710.783 5   8662369.11221        11.750           0.625
 91  6 27 18  8 29.9990000  0  2G 2G19
  20254514.589    -3620020.962 8  -2781170.90022        28.500           2.281
  22767347.573    11154064.057 5   8689917.04621        11.750           0.750
 91  6 27 18  8 44.9990000  0  2G 2G19
  20253150.175    -3627196.175 8  -2786761.98222        29.000           2.281
  22774086.112    11189463.457 6   8717500.93321        12.750           0.781
 91  6 27 18  8 59.9990000  0  2G 2G19
  20251799.308    -3634294.766 8  -2792293.35122        28.750           2.344
  22780833.136    11224910.580 6   8745121.99521        12.000           0.781
 91  6 27 18  9 14.9990000  0  2G 2G19
  20250463.636    -3641315.823 8  -2797764.31222        28.250           2.313
  22787586.737    11260406.306 6   8772780.93821        12.750           0.813
 91  6 27 18  9 29.9990000  0  2G 2G19
  20249142.667    -3648261.249 8  -2803176.34822        28.500           2.344
  22794351.550    11295948.636 6   8800476.19421        12.000           0.813
 91  6 27 18  9 44.9990000  0  2G 2G19
  20247834.003    -3655130.910 8  -2808529.33922        28.250           2.344
  22801121.456    11331537.815 6   8828207.95521        12.250           0.813
 91  6 27 18  9 59.9990000  0  2G 2G19
  20246543.550    -3661921.256 8  -2813820.52022        28.250           2.375
  22807905.034    11367177.429 5   8855978.99221        11.750           0.781
 91  6 27 18 10 14.9990000  0  2G 2G19
  20245266.034    -3668635.202 8  -2819052.17722        28.500           2.438
  22814695.495    11402864.533 6   8883787.05721        12.000           0.750
 91  6 27 18 10 29.9990000  0  2G 2G19
  20244001.636    -3675274.845 8  -2824225.93022        28.500           2.406
  22821499.198    11438597.050 6   8911630.52921        12.000           0.750
 91  6 27 18 10 44.9990000  0  2G 2G19
  20242751.667    -3681840.365 8  -2829341.92022        29.000           2.313
  22828301.737    11474374.587 5   8939509.06121        11.500           0.813
 91  6 27 18 10 59.9990000  0  2G 2G19
  20241517.190    -3688328.685 8  -2834397.76522        29.250           2.281
  22835114.972    11510200.450 5   8967425.25321        10.250           0.813
 91  6 27 18 11 14.9990000  0  2G 2G19
  20240297.261    -3694743.064 8  -2839395.98522        29.250           2.281
  22841945.214    11546071.299 5   8995376.48321        11.250           0.875
 91  6 27 18 11 29.9990000  0  2G 2G19
  20239091.300    -3701079.656 8  -2844333.60722        28.750           2.375
  22848782.269    11581990.885 5   9023365.69421        11.500           0.750
 91  6 27 18 11 44.9990000  0  2G 2G19
  20237900.386    -3707339.083 8  -2849211.08822        29.750           2.344
  22855626.315    11617958.871 6   9051392.62921        12.000           0.813
 91  6 27 18 11 59.9990000  0  2G 2G19
  20236723.698    -3713523.260 8  -2854029.93022        29.250           2.188
  22862477.886    11653973.135 5   9079455.59921        11.250           0.781
 91  6 27 18 12 14.9990000  0  2G 2G19
  20235559.698    -3719628.021 8  -2858786.89522        28.750           2.250
  22869339.823    11690037.557 5   9107557.67921        11.000           0.813
 91  6 27 18 12 29.9990000  0  2G 2G19
  20234412.706    -3725659.864 8  -2863487.04822        29.000           2.219
  22876213.870    11726145.652 5   9135693.75721        11.500           0.875
 91  6 27 18 12 44.9990000  0  2G 2G19
  20233280.784    -3731615.187 8  -2868127.56322        29.250           2.375
  22883095.034    11762301.279 6   9163866.88221        12.500           0.813
 91  6 27 18 12 59.9990000  0  2G 2G19
  20232162.980    -3737493.147 8  -2872707.79522        30.000           2.344
  22889984.151    11798505.131 5   9192077.59721        11.500           0.719
 91  6 27 18 13 14.9990000  0  2G 2G19
  20231055.737    -3743297.849 8  -2877230.93722        29.250           2.469
  22896880.456    11834753.248 5   9220322.81321        11.500           0.719
 91  6 27 18 13 29.9990000  0  2G 2G19
  20229965.605    -3749028.031 8  -2881696.02322        28.500           2.406
  22903790.737    11871046.843 5   9248603.46521        11.750           0.688
 91  6 27 18 13 44.9990000  0  2G 2G19
  20228890.620    -3754682.097 8  -2886101.79723        28.500           2.500
  22910704.722    11907387.657 6   9276920.91121        12.500           0.656
 91  6 27 18 13 59.9990000  0  2G 2G19
  20227829.417    -3760262.276 8  -2890449.99622        29.250           2.438
  22917629.058    11943773.311 5   9305273.29821        11.250           0.688
 91  6 27 18 14 14.9990000  0  2G 2G19
  20226780.370    -3765765.862 8  -2894738.50122        28.750           2.313
  22924562.245    11980206.416 5   9333662.65721        10.750           0.688
 91  6 27 18 14 29.9990000  0  2G 2G19
  20225747.737    -3771194.113 8  -2898968.30422        28.250           2.375
  22931496.761    12016685.804 5   9362088.06321        10.000           0.781
 91  6 27 18 14 44.9990000  0  2G 2G19
  20224730.128    -3776546.198 8  -2903138.76722        28.250           2.313
  22938455.339    12053212.123 5   9390550.05721        11.750           0.719
 91  6 27 18 14 59.9990000  0  2G 2G19
  20223724.292    -3781823.827 7  -2907251.21622        27.500           2.344
  22945416.487    12089783.623 5   9419047.25321        11.750           0.781
 91  6 27 18 15 14.9990000  0  2G 2G19
  20222736.417    -3787026.894 8  -2911305.56722        28.000           2.406
  22952383.097    12126400.395 6   9447579.72621        12.250           0.719
 91  6 27 18 15 29.9990000  0  2G 2G19
  20221759.159    -3792153.873 8  -2915300.62622        28.250           2.250
  22959354.815    12163063.911 5   9476148.62921        11.250           0.688
 91  6 27 18 15 44.9990000  0  2G 2G19
  20220797.253    -3797205.243 8  -2919236.75722        28.250           2.344
  22966341.948    12199774.086 5   9504753.87121        11.500           0.750
 91  6 27 18 15 59.9990000  0  2G 2G19
  20219852.714    -3802182.661 8  -2923115.26522        28.750           2.281
  22973339.097    12236529.022 6   9533394.00321        12.500           0.688
 91  6 27 18 16 14.9990000  0  2G 2G19
  20218919.894    -3807085.250 8  -2926935.46222        28.750           2.313
  22980337.839    12273329.569 5   9562069.68021        11.750           0.688
 91  6 27 18 16 29.9990000  0  2G 2G19
  20218000.565    -3811911.760 8  -2930696.38922        28.250           2.469
  22987355.245    12310176.955 5   9590781.84621        11.750           0.750
 91  6 27 18 16 44.9990000  0  2G 2G19
  20217096.511    -3816664.026 8  -2934399.46422        28.500           2.344
  22994373.011    12347069.385 6   9619529.09921        12.500           0.625
 91  6 27 18 16 59.9990000  0  2G 2G19
  20216205.589    -3821343.959 8  -2938046.17122        29.250           2.438
  23001401.276    12384004.968 5   9648309.98921        11.000           0.719
 91  6 27 18 17 14.9990000  0  2G 2G19
  20215329.909    -3825950.577 8  -2941635.75222        29.500           2.344
  23008438.792    12420984.609 6   9677125.21621        12.000           0.625
 91  6 27 18 17 29.9990000  0  2G 2G19
  20214467.292    -3830482.306 8  -2945166.97322        29.000           2.406
  23015487.120    12458009.884 5   9705976.00721        10.750           0.625
 91  6 27 18 17 44.9990000  0  2G 2G19
  20213617.425    -3834941.768 8  -2948641.89122        28.250           2.406
  23022539.378    12495077.947 5   9734860.11421        11.500           0.563
 91  6 27 18 17 59.9990000  0  2G 2G19
  20212785.589    -3839323.998 8  -2952056.62222        29.000           2.375
  23029599.308    12532193.861 5   9763781.52221        11.000           0.656
 91  6 27 18 18 14.9990000  0  2G 2G19
  20211963.737    -3843635.155 8  -2955415.96822        28.500           2.375
  23036670.042    12569351.609 5   9792735.56421        10.000           0.531
 91  6 27 18 18 29.9990000  0  2G 2G19
  20211159.128    -3847870.763 8  -2958716.44522        28.750           2.313
  23043754.081    12606555.567 5   9821725.57721        10.750           0.563
 91  6 27 18 18 44.9990000  0  2G 2G19
  20210367.761    -3852030.264 8  -2961957.62322        29.000           2.344
  23050839.378    12643806.325 5   9850752.03321        10.750           0.594
 91  6 27 18 18 59.9990000  0  2G 2G19
  20209589.081    -3856117.005 8  -2965142.10322        28.750           2.313
  23057941.355    12681100.635 5   9879812.46221        10.000           0.531
 91  6 27 18 19 14.9990000  0  2G 2G19
  20208823.933    -3860132.137 7  -2968270.78522        27.500           2.219
  23065042.737    12718437.083 5   9908905.71121        10.500           0.625
 91  6 27 18 19 29.9990000  0  2G 2G19
  20208073.917    -3864075.078 8  -2971343.21422        28.500           2.344
  23072157.245    12755816.155 5   9938032.18321        10.500           0.563
 91  6 27 18 19 44.9990000  0  2G 2G19
  20207339.526    -3867944.722 8  -2974358.53122        29.250           2.344
  23079279.222    12793239.306 5   9967193.02021        11.000           0.563
 91  6 27 18 19 59.9990000  0  2G 2G19
  20206614.925    -3871739.959 8  -2977315.86222        28.500           2.375
  23086411.745    12830707.519 5   9996388.92821        11.500           0.594
 91  6 27 18 20 14.9990000  0  2G 2G19
  20205906.730    -3875464.020 7  -2980217.73322        27.250           2.313
  23093545.394    12868217.575 5  10025617.46321        11.000           0.594
 91  6 27 18 20 29.9990000  0  2G 2G19
  20205211.550    -3879113.104 7  -2983061.19022        27.750           2.406
  23100692.714    12905773.084 5  10054881.40921        10.750           0.500
 91  6 27 18 20 44.9990000  0  2G 2G19
  20204532.597    -3882689.613 8  -2985848.08322        28.000           2.313
  23107844.745    12943371.573 5  10084178.84821        10.250           0.469
 91  6 27 18 20 59.9990000  0  2G 2G19
  20203864.933    -3886193.298 7  -2988578.23022        27.750           2.344
  23115012.503    12981013.276 5  10113509.97221        10.500           0.469
 91  6 27 18 21 14.9990000  0  2G 2G19
  20203212.511    -3889624.998 7  -2991252.28822        27.250           2.313
  23122181.261    13018697.593 5  10142874.28321        10.750           0.531
 91  6 27 18 21 29.9990000  0  2G 2G19
  20202572.980    -3892984.685 7  -2993870.23022        27.250           2.313
  23129359.159    13056424.378 5  10172271.68221        11.000           0.469
 91  6 27 18 21 44.9990000  0  2G 2G19
  20201949.464    -3896272.085 7  -2996431.84822        27.750           2.344
  23136544.909    13094194.040 5  10201702.50321        10.500           0.406
 91  6 27 18 21 59.9990000  0  2G 2G19
  20201332.972    -3899488.317 7  -2998938.00922        26.750           2.375
  23143743.034    13132005.327 5  10231165.75921        10.250           0.500
 91  6 27 18 22 14.9990000  0  2G 2G19
  20200738.261    -3902628.599 7  -3001384.99222        27.500           2.313
  23150950.042    13169863.100 5  10260665.22421        10.000           0.438
 91  6 27 18 22 29.9990000  0  2G 2G19
  20200153.440    -3905701.045 8  -3003779.11422        28.250           2.313
  23158157.940    13207759.176 5  10290194.54521         9.500           0.469
 91  6 27 18 22 44.9990000  0  2G 2G19
  20199584.222    -3908700.580 8  -3006116.41422        29.500           2.344
  23165379.081    13245698.569 5  10319757.61421         8.750           0.469
 91  6 27 18 22 59.9990000  0  2G 2G19
  20199025.409    -3911625.956 8  -3008395.93122        28.750           2.406
  23172601.206    13283682.508 5  10349355.39821         7.750           0.500
 91  6 27 18 23 14.9990000  0  2G 2G19
  20198481.987    -3914481.527 8  -3010621.06123        28.750           2.531
  23179839.573    13321706.534 5  10378984.41721         7.750           0.656
 91  6 27 18 23 29.9990000  0  2G 2G19
  20197951.198    -3917266.302 8  -3012791.02722        29.000           2.375
  23187084.972    13359771.633 5  10408645.41621         7.500           0.438
 91  6 27 18 23 44.9990000  0  2G 2G19
  20197437.065    -3919979.081 8  -3014904.88522        29.250           2.406
  23194337.667    13397879.023 5  10438339.41821         8.000           0.406
 91  6 27 18 23 59.9990000  0  2G 2G19
  20196933.605    -3922620.925 8  -3016963.47122        29.250           2.375
  23201595.151    13436027.656 5  10468065.52621         8.000           0.500
 91  6 27 18 24 14.9990000  0  3G13G 2G19
  23793381.222          -0.11813                         5.750
  20196443.948    -3925188.735 8  -3018964.36322        28.500           2.344
  23208869.339    13474220.604 5  10497826.18121         9.000           0.406
 91  6 27 18 24 29.9990000  0  3G13G 2G19
  23780793.300      -66229.467 4                         7.000
  20195968.776    -3927687.457 8  -3020911.42822        28.500           2.344
  23216141.722    13512452.831 5  10527617.43721         8.000           0.469
 91  6 27 18 24 44.9990000  0  3G13G 2G19
  23768189.659     -132439.073 4                         7.250
  20195506.565    -3930114.572 8  -3022802.69022        28.750           2.438
  23223423.870    13550726.817 5  10557441.24121         8.250           0.406
 91  6 27 18 24 59.9990000  0  3G13G 2G19
  23755601.597     -198628.567 5                         8.250
  20195060.245    -3932470.248 8  -3024638.29122        29.000           2.375
  23230717.222    13589042.387 5  10587297.44821         8.500           0.219
 91  6 27 18 25 14.9990000  0  3G13G 2G19
  23743005.456     -264794.119 5                         8.500
  20194625.792    -3934751.291 8  -3026415.73922        30.500           2.250
  23238012.948    13627402.751 5  10617188.55921         8.500           0.281
 91  6 27 18 25 29.9990000  0  3G13G 2G19
  23730419.636     -330941.600 5                         9.000
  20194204.081    -3936964.229 8  -3028140.11222        29.750           2.250
  23245320.597    13665801.424 5  10647109.53121         8.000           0.188
 91  6 27 18 25 44.9990000  0  3G13G 2G19
  23717837.472     -397066.951 5        -0.22831         9.500           0.063
  20193797.417    -3939104.926 8  -3029808.18722        29.250           2.375
  23252634.503    13704242.520 5  10677063.53021         7.750           0.313
 91  6 27 18 25 59.9990000  0  3G13G 2G19
  23705253.175     -463168.971 5    -51508.07621         9.000           0.188
  20193402.753    -3941172.734 8  -3031419.47322        28.750           2.344
  23259959.714    13742726.658 5  10707051.07821         8.000           0.344
 91  6 27 18 26 14.9990000  0  3G13G 2G19
  23692681.214     -529248.234 5   -102998.17721         9.000           0.094
  20193023.050    -3943168.706 8  -3032974.77622        28.500           2.344
  23267293.128    13781252.774 5  10737071.33621         7.750           0.344
 91  6 27 18 26 29.9990000  0  3G13G 2G19
  23680115.370     -595307.345 5   -154472.60021         9.500           0.031
  20192654.628    -3945095.795 8  -3034476.41422        28.250           2.375
  23274632.511    13819817.705 4  10767121.86121         6.750           0.406
 91  6 27 18 26 44.9990000  0  3G13G 2G19
  23667549.042     -661343.364 5   -205929.00621        10.000           0.156
  20192302.534    -3946951.733 8  -3035922.59922        29.000           2.375
  23281980.964    13858423.896 4  10797204.51621         7.250           0.344
 91  6 27 18 26 59.9990000  0  3G13G 2G19
  23654985.315     -727354.804 5   -257366.29821        10.000           0.156
  20191963.987    -3948735.529 8  -3037312.57122        29.750           2.250
  23289332.526    13897072.289 4  10827320.04221         6.500           0.313
 91  6 27 18 27 14.9990000  0  3G13G 2G19
  23642421.042     -793340.019 5   -308783.15221         9.750           0.156
  20191639.237    -3950445.799 8  -3038645.25822        29.250           2.281
  23296694.019    13935764.056 4  10857469.38521         6.750           0.344
 91  6 27 18 27 29.9990000  0  3G13G 2G19
  23629876.284     -859301.356 5   -360181.38721        10.000           0.188
  20191325.065    -3952085.480 8  -3039922.94822        28.500           2.313
  23304060.659    13974496.242 3  10887650.23121         5.750           0.281
 91  6 27 18 27 44.9990000  0  3G13G 2G19
  23617334.058     -925240.010 5   -411561.98221        10.250           0.156
  20191028.901    -3953656.315 8  -3041146.97622        29.750           2.313
  23311446.370    14013267.440 3  10917861.45521         6.000           0.313
 91  6 27 18 27 59.9990000  0  3G13G 2G19
  23604788.792     -991154.644 5   -462923.86021         9.750           0.063
  20190742.808    -3955157.413 8  -3042316.66222        29.250           2.344
  23318828.917    14052078.362 3  10948103.61921         6.000           0.250
 91  6 27 18 28 14.9990000  0  3G13G 2G19
  23592236.987    -1057045.466 5   -514267.17221         8.750           0.094
  20190468.612    -3956589.098 8  -3043432.26522        28.250           2.281
  23326216.698    14090928.426 3  10978376.30521         5.750           0.313
 91  6 27 18 28 29.9990000  0  3G13G 2G19
  23579706.519    -1122912.563 5   -565592.02821         8.750           0.063
  20190209.698    -3957952.032 8  -3044494.30022        28.500           2.313
  23333623.089    14129817.077 3  11008679.07121         6.000           0.281
 91  6 27 18 28 44.9990000  0  3G13G 2G19
  23567178.589    -1188755.584 5   -616898.07021         9.000           0.125
  20189963.659    -3959246.423 8  -3045502.92322        29.000           2.250
  23341022.448    14168744.270 3  11039011.82321         5.500           0.438
 91  6 27 18 28 59.9990000  0  3G13G 2G19
  23554657.800    -1254572.772 5   -668184.00621         9.000           0.125
  20189730.315    -3960470.821 8  -3046457.01222        29.000           2.156
  23348452.808    14207711.329 4  11069375.65121         6.500           0.344
 91  6 27 18 29 14.9990000  0  3G13G 2G19
  23542138.526    -1320362.388 5   -719448.47721         8.750           0.125
  20189511.480    -3961623.907 8  -3047355.52422        29.500           2.250
  23355870.065    14246719.490 4  11099771.50021         6.500           0.375
 91  6 27 18 29 29.9990000  0  3G13G 2G19
  23529621.683    -1386123.960 5   -770691.09121         8.750           0.219
  20189307.737    -3962705.796 8  -3048198.55622        29.750           2.219
  23363296.956    14285768.661 3  11130199.33521         6.000           0.313
 91  6 27 18 29 44.9990000  0  3G13G 2G19
  23517103.878    -1451857.451 5   -821911.83321         7.500           0.219
  20189115.292    -3963716.921 8  -3048986.45222        29.000           2.188
  23370734.612    14324858.459 4  11160658.81221         6.750           0.344
 91  6 27 18 29 59.9990000  0  3G13G 2G19
  23504605.331    -1517564.119 5   -873111.67821         8.000           0.219
  20188935.730    -3964659.190 8  -3049720.70022        29.000           2.250
  23378185.698    14363986.939 5  11191148.41921         7.500           0.406
 91  6 27 18 30 14.9990000  0  3G13G 2G19
  23492107.355    -1583244.009 5   -924290.62621         8.750           0.156
  20188766.948    -3965532.926 8  -3050401.54022        28.000           2.281
  23385634.034    14403153.747 5  11221667.91821         7.500           0.313
 91  6 27 18 30 29.9990000  0  3G13G 2G19
  23479618.409    -1648897.535 5   -975449.06721         9.250           0.094
  20188614.292    -3966339.087 8  -3051029.71822        28.000           2.156
  23393103.019    14442357.810 5  11252216.41821         9.000           0.313
 91  6 27 18 30 44.9990000  0  3G13G 2G19
  23467130.456    -1714523.623 5  -1026586.14321         9.500           0.094
  20188474.972    -3967076.837 8  -3051604.59522        29.000           2.313
  23400568.339    14481599.873 5  11282794.57621         9.250           0.344
 91  6 27 18 30 59.9990000  0  3G13G 2G19
  23454648.253    -1780118.431 5  -1077698.79521         9.500           0.156
  20188348.292    -3967742.840 8  -3052123.57122        28.750           2.344
  23408047.347    14520883.167 5  11313404.83321         9.000           0.219
 91  6 27 18 31 14.9990000  0  3G13G 2G19
  23442171.073    -1845681.591 5  -1128786.84321         9.250           0.156
  20188235.081    -3968337.272 8  -3052586.76922        28.500           2.219
  23415520.933    14560207.474 5  11344047.04021         8.000           0.375
 91  6 27 18 31 29.9990000  0  3G13G 2G19
  23429700.495    -1911214.651 5  -1179851.39521         9.500           0.156
  20188135.214    -3968862.073 8  -3052995.71222        28.000           2.313
  23423018.058    14599570.772 4  11374719.67021         7.000           0.313
 91  6 27 18 31 44.9990000  0  3G13G 2G19
  23417235.550    -1976717.548 5  -1230892.47521         9.250           0.156
  20188047.378    -3969317.452 8  -3053350.56322        28.000           2.344
  23430518.237    14638973.137 5  11405422.72021         7.500           0.281
 91  6 27 18 31 59.9990000  0  3G13G 2G19
  23404773.737    -2042189.679 5  -1281909.53821         9.000           0.094
  20187975.651    -3969703.490 8  -3053651.38422        29.000           2.313
  23438022.987    14678414.331 4  11436156.02021         7.250           0.344
 91  6 27 18 32 14.9990000  0  3G13G 2G19
  23392320.628    -2107633.381 5  -1332904.48821         9.250           0.125
  20187917.292    -3970022.973 8  -3053900.33522        30.000           2.281
  23445526.987    14717891.687 4  11466917.51221         6.750           0.313
 91  6 27 18 32 29.9990000  0  3G13G 2G19
  23379875.597    -2173046.457 5  -1383875.54421         9.000           0.063
  20187866.331    -3970274.234 8  -3054096.12322        29.500           2.313
  23453046.050    14757406.853 3  11497708.46521         6.000           0.344
 91  6 27 18 32 44.9990000  0  3G13G 2G19
  23367430.089    -2238426.186 5  -1434820.65921         9.250           0.156
  20187830.190    -3970454.873 8  -3054236.88622        29.000           2.250
  23460576.675    14796962.020 4  11528530.57321         6.500           0.344
 91  6 27 18 32 59.9990000  0  3G13G 2G19
  23354992.597    -2303774.448 5  -1485741.18921         9.250           0.156
  20187809.448    -3970567.134 8                        28.750
  23468110.558    14836554.790 4  11559381.95521         6.250           0.375
 91  6 27 18 33 14.9990000  0  4G13G 2G15G19
  23342569.339    -2369088.902 5  -1536635.42521        10.000           0.063
  20187805.183    -3970609.169 8                        29.000
  23819795.753          -0.92013                         5.250
  23475654.206    14876187.252 4  11590264.26821         6.250           0.406
 91  6 27 18 33 29.9990000  0  4G13G 2G15G19
  23330146.417    -2434370.878 5  -1587504.33621        10.250           0.219
  20187808.331    -3970582.722 8                        29.500
  23814706.659      -26820.222 3                         5.750
  23483206.933    14915857.634 3  11621176.16621         6.000           0.344
 91  6 27 18 33 44.9990000  0  4G13G 2G15G19
  23317723.745    -2499617.338 5  -1638345.57321        10.250           0.156
  20187826.331    -3970485.530 8                        29.250
  23809620.401      -53530.465 4                         6.250
  23490757.323    14955567.996 3  11652119.18521         6.000           0.281
 91  6 27 18 33 59.9990000  0  4G13G 2G15G19
  23305317.823    -2564831.051 5  -1689161.29421        10.500           0.125
  20187852.878    -3970320.308 8                        29.000
  23804555.019      -80134.297 4                         6.250
  23498321.245    14995315.460 4  11683091.14721         6.500           0.344
 91  6 27 18 34 14.9990000  0  4G13G 2G15G19
  23292917.964    -2630010.440 5  -1739950.26321        10.500           0.125
  20187901.222    -3970086.305 8                        28.500
  23799512.222     -106630.331 5                         7.750
  23505892.925    15035101.048 3  11714092.78121         6.000           0.313
 91  6 27 18 34 29.9990000  0  4G13G 2G15G19
  23280512.972    -2695156.649 5  -1790713.38321        10.500           0.156
  20187957.917    -3969785.087 7  -3053715.01322        27.750           2.313
  23794502.667     -133019.553 5                         7.500
  23513471.651    15074923.162 3  11745122.89621         6.000           0.344
 91  6 27 18 34 44.9990000  0  4G13G 2G15G19
  23268124.198    -2760268.305 5  -1841449.58421        10.000           0.156
  20188029.175    -3969415.709 7  -3053427.19422        27.500           2.281
  23789493.628     -159300.993 5        -0.46631         7.500           0.219
  23521059.472    15114782.572 4  11776182.06521         6.250           0.375
 91  6 27 18 34 59.9990000  0  4G13G 2G15G19
  23255743.909    -2825344.021 5  -1892157.77821         9.750           0.188
  20188110.808    -3968977.246 7  -3053085.54322        27.750           2.344
  23784515.597     -185472.845 5    -20394.14221         8.000           0.313
  23528657.175    15154680.198 4  11807271.03521         6.500           0.250
 91  6 27 18 35 14.9990000  0  4G13G 2G15G19
  23243372.292    -2890384.381 5  -1942838.41221         9.750           0.156
  20188211.097    -3968470.569 8  -3052690.73322        28.500           2.375
  23779558.792     -211536.112 5    -40703.17421         9.000           0.313
  23536243.339    15194615.030 4  11838388.96621         6.500           0.250
 91  6 27 18 35 29.9990000  0  4G13G 2G15G19
  23230999.550    -2955391.128 5  -1993492.87821         9.250           0.156
  20188319.331    -3967897.905 8  -3052244.51222        28.250           2.406
  23774610.136     -237492.547 5    -60928.93421         8.500           0.406
  23543850.276    15234584.561 3  11869533.94921         6.000           0.219
 91  6 27 18 35 44.9990000  0  4G13G 2G15G19
  23218629.269    -3020358.838 5  -2044116.86821         8.750           0.031
  20188438.690    -3967254.348 8  -3051743.04522        28.000           2.344
  23769684.972     -263336.816 5    -81067.31221         7.500           0.406
  23551467.730    15274594.061 3  11900710.08521         5.500           0.281
 91  6 27 18 35 59.9990000  0  4G13G 2G15G19
  23206273.159    -3085295.329 5  -2094716.57221         9.500           0.219
  20188575.589    -3966548.215 7  -3051192.81322        27.750           2.406
  23764804.386     -289076.827 5   -101124.42021         9.500           0.344
  23559087.058    15314635.297 3  11931910.89321         5.250           0.188
 91  6 27 18 36 14.9990000  0  4G13G 2G15G19
  23193926.448    -3150192.506 5  -2145285.65221        10.000           0.188
  20188723.628    -3965771.652 7  -3050587.71222        27.750           2.344
  23759921.667     -314704.538 5   -121094.04321         9.750           0.250
  23566708.565    15354715.860 3  11963142.40021         6.000           0.313
 91  6 27 18 36 29.9990000  0  4G13G 2G15G19
  23181585.089    -3215052.007 5  -2195825.34821        10.000           0.125
  20188882.714    -3964927.003 7  -3049929.55122        27.500           2.469
  23755060.761     -340221.881 5   -140977.67621         8.250           0.250
  23574347.120    15394833.507 3  11994402.77821         6.000           0.250
 91  6 27 18 36 44.9990000  0  4G13G 2G15G19
  23169251.339    -3279874.414 5  -2246336.14621        10.000           0.188
  20189058.253    -3964015.464 7  -3049219.26722        27.750           2.344
  23750230.894     -365629.729 5   -160775.95421         8.500           0.344
  23581989.026    15434987.043 3  12025691.17921         6.000           0.281
 91  6 27 18 36 59.9990000  0  4G13G 2G15G19
  23156917.628    -3344660.445 5  -2296818.62721         9.500           0.188
  20189242.784    -3963038.013 7  -3048457.61622        27.000           2.375
  23745421.776     -390928.667 5   -180489.41821         8.250           0.344
  23589638.792    15475175.325 3  12057006.57121         5.500           0.188
 91  6 27 18 37 14.9990000  0  4G13G 2G15G19
  23144595.190    -3409409.777 5  -2347272.50721         9.750           0.031
  20189439.683    -3961994.627 7  -3047644.60322        26.000           2.250
  23740617.565     -416118.509 5   -200117.84121         7.500           0.313
  23597297.480    15515398.293 4  12088349.05321         6.250           0.250
 91  6 27 18 37 29.9990000  0  4G13G 2G15G19
  23132290.019    -3474118.796 5  -2397694.95821        10.250           0.063
  20189652.230    -3960882.166 7  -3046777.76522        26.750           2.219
  23735844.878     -441195.554 5   -219658.32821         8.500           0.375
  23604946.784    15555659.255 3  12119721.10621         5.250           0.344
 91  6 27 18 37 44.9990000  0  4G13G 2G15G19
  23119981.511    -3538787.799 5  -2448086.22121        10.000           0.125
  20189876.792    -3959701.427 7  -3045857.71422        26.750           2.250
  23731098.901     -466160.136 5   -239111.22821         8.500           0.313
  23612622.698    15595957.382 4  12151122.18121         6.500           0.188
 91  6 27 18 37 59.9990000  0  4G13G 2G15G19
  23107684.019    -3603420.134 5  -2498448.92221        10.500           0.156
  20190115.480    -3958456.130 7  -3044887.35322        26.250           2.313
  23726370.378     -491015.990 5   -258479.40521         9.000           0.313
  23620296.753    15636288.689 4  12182549.02621         6.250           0.219
 91  6 27 18 38 14.9990000  0  4G13G 2G15G19
  23095382.487    -3668011.138 5  -2548779.39721        10.000           0.125
  20190362.300    -3957142.291 7  -3043863.58222        25.250           2.344
  23721662.511     -515758.770 5   -277759.47021         9.000           0.281
  23627965.948    15676657.095 3  12214004.80221         5.750           0.250
 91  6 27 18 38 29.9990000  0  4G13G 2G15G19
  23083106.980    -3732560.130 5  -2599077.13721        11.750           0.219
  20190627.456    -3955759.547 7  -3042786.13122        25.750           2.313
  23716975.597     -540387.722 5   -296950.82621         8.250           0.344
  23635666.222    15717062.982 3  12245489.82821         5.500           0.250
 91  6 27 18 38 44.9990000  0  4G13G 2G15G19
  23070831.261    -3797068.847 5  -2649343.49921        11.750           0.156
  20190903.487    -3954310.184 7  -3041656.76622        26.500           2.375
  23712317.917     -564904.845 5   -316055.05221         9.250           0.281
  23643360.831    15757504.280 3  12277002.38721         5.000           0.156
 91  6 27 18 38 59.9990000  0  4G13G 2G15G19
  23058564.964    -3861536.174 5  -2699577.65121        11.500           0.156
  20191192.917    -3952793.439 7  -3040474.89322        27.000           2.375
  23707665.401     -589308.768 5   -335071.05721         9.750           0.344
  23651066.675    15797981.572 2  12308543.02521         4.500           0.250
 91  6 27 18 39 14.9990000  0  4G13G 2G15G19
  23046302.995    -3925961.465 5  -2749778.98921        11.750           0.219
  20191494.706    -3951209.238 7  -3039240.46122        27.000           2.438
  23703042.800     -613599.057 5   -353998.52721         9.250           0.313
  23658780.245    15838494.875 2                         4.000
 91  6 27 18 39 29.9990000  0  3G13G 2G15
  23034053.948    -3990348.079 6  -2799950.22421        12.500           0.250
  20191807.542    -3949561.125 7  -3037956.22222        26.250           2.438
  23698438.690     -637779.215 5   -372840.18921         8.750           0.313
 91  6 27 18 39 44.9990000  0  3G13G 2G15
  23021808.581    -4054691.637 6  -2850087.89721        12.000           0.281
  20192134.956    -3947845.467 7  -3036619.35422        26.250           2.344
  23693864.433     -661845.007 5   -391592.72021         8.000           0.313
 91  6 27 18 39 59.9990000  0  3G13G 2G15
  23009567.542    -4118992.926 5  -2900192.62121        10.750           0.188
  20192474.964    -3946063.345 7  -3035230.69922        26.750           2.438
  23689305.855     -685797.237 5   -410256.76721         8.000           0.313
 91  6 27 18 40 14.9990000  0  3G13G 2G15
  22997345.269    -4183250.546 5  -2950263.33921        10.250           0.188
  20192823.964    -3944213.931 7  -3033789.60823        27.000           2.531
  23684763.269     -709634.774 5   -428831.45621         9.000           0.500
 91  6 27 18 40 29.9990000  0  3G13G 2G15
  22985118.581    -4247466.207 5  -3000301.33821         9.500           0.250
  20193190.980    -3942299.155 8  -3032297.57723        28.250           2.594
  23680252.144     -733359.283 5   -447318.07521         9.000           0.281
 91  6 27 18 40 44.9990000  0  3G13G 2G15
  22972903.308    -4311636.209 5  -3050303.78821         9.500           0.219
  20193567.042    -3940315.836 7  -3030752.13923        27.500           2.563
  23675763.026     -756967.401 5   -465713.99021         9.500           0.188
 91  6 27 18 40 59.9990000  0  3G13G 2G15
  22960708.714    -4375759.562 5  -3100269.87421        11.250           0.250
  20193956.011    -3938263.507 7  -3029152.94022        26.000           2.438
  23671293.245     -780458.062 5   -484018.40621         9.500           0.281
 91  6 27 18 41 14.9990000  0  3G13G 2G15
  22948516.605    -4439839.737 6  -3150202.34821        12.000           0.156
  20194358.433    -3936146.393 7  -3027503.25522        26.250           2.438
  23666840.128     -803835.019 5   -502234.17821         8.500           0.281
 91  6 27 18 41 29.9990000  0  3G13G 2G15
  22936326.730    -4503874.276 5  -3200099.24021        11.000           0.156
  20194775.847    -3933962.075 7  -3025801.19822        27.000           2.344
  23662418.081     -827095.727 5   -520359.37721         9.750           0.281
 91  6 27 18 41 44.9990000  0  3G13G 2G15
  22924150.823    -4567863.044 5  -3249960.47921        10.750           0.219
  20195205.003    -3931710.880 7  -3024047.02222        27.750           2.313
  23658013.690     -850240.293 5   -538394.10621         9.000           0.219
 91  6 27 18 41 59.9990000  0  3G13G 2G15
  22911988.386    -4631806.032 5  -3299786.03821        11.250           0.250
  20195644.659    -3929393.562 7  -3022241.31822        27.500           2.438
  23653622.589     -873268.892 5   -556338.42421         8.750           0.344
 91  6 27 18 42 14.9990000  0  3G13G 2G15
  22899825.128    -4695701.548 5  -3349574.59521        11.250           0.188
  20196100.651    -3927008.493 7  -3020382.84122        27.000           2.375
  23649269.667     -896179.696 5   -574190.96121        10.250           0.281
 91  6 27 18 42 29.9990000  0  3G13G 2G15
  22887672.456    -4759552.319 6  -3399328.30821        12.000           0.313
  20196565.339    -3924559.074 7  -3018474.21223        26.750           2.563
  23644933.245     -918975.896 5   -591954.25421        10.000           0.156
 91  6 27 18 42 44.9990000  0  3G13G 2G15
  22875530.815    -4823356.170 5  -3449045.47621        11.750           0.281
  20197043.300    -3922043.609 7  -3016514.11722        27.500           2.406
  23640614.776     -941655.358 5   -609626.52121         9.250           0.188
 91  6 27 18 42 59.9990000  0  3G13G 2G15
  22863400.058    -4887113.487 6  -3498726.36921        12.000           0.156
  20197535.690    -3919462.747 7  -3014503.06522        27.750           2.406
  23636321.769     -964218.568 5   -627208.25021         8.250           0.188
 91  6 27 18 43 14.9990000  0  3G13G 2G15
  22851274.894    -4950823.994 5  -3548370.79821        11.500           0.281
  20198040.901    -3916816.588 7  -3012441.13222        27.750           2.375
  23632053.558     -986665.313 5   -644699.20921         9.000           0.188
 91  6 27 18 43 29.9990000  0  3G13G 2G15
  22839165.894    -5014485.496 6  -3597977.01321        12.000           0.250
  20198554.456    -3914103.493 7  -3010327.04122        27.500           2.438
  23627804.636    -1008993.401 5   -662097.67621         8.500           0.250
 91  6 27 18 43 44.9990000  0  3G13G 2G15
  22827055.855    -5078100.155 6  -3647546.74221        12.000           0.281
  20199082.815    -3911326.046 7  -3008162.80822        27.000           2.313
  23623575.237    -1031205.194 5   -679405.59021         8.000           0.250
 91  6 27 18 43 59.9980000  0  3G13G 2G15
  22814961.928    -5141660.469 6  -3697074.15621        12.250           0.219
  20199626.318    -3908481.701 8  -3005946.44222        28.000           2.375
  23619368.272    -1053296.232 4   -696619.33821         7.250           0.281
 91  6 27 18 44 14.9980000  0  3G13G 2G15
  22802873.639    -5205175.262 5  -3746566.07021        11.500           0.250
  20200179.701    -3905571.112 8  -3003678.45822        28.500           2.469
  23615189.522    -1075269.917 5   -713741.68521         7.500           0.344
 91  6 27 18 44 29.9980000  0  3G13G 2G15
  22790794.912    -5268638.710 5  -3796017.98621        11.250           0.094
  20200746.725    -3902593.326 8  -3001358.11422        28.500           2.469
  23611032.889    -1097123.473 5   -730770.40121         8.500           0.188
 91  6 27 18 44 44.9980000  0  3G13G 2G15
  22778730.631    -5332051.559 5  -3845430.51521        11.250           0.219
  20201326.092    -3899549.243 8  -2998986.11123        28.500           2.500
  23606898.818    -1118857.751 5   -747706.17621         9.250           0.156
 91  6 27 18 44 59.9980000  0  3G13G 2G15
  22766674.522    -5395415.263 6  -3894804.70721        12.000           0.281
  20201917.061    -3896440.877 8  -2996564.01523        28.250           2.531
  23602777.170    -1140474.362 5   -764550.27521         9.000           0.219
 91  6 27 18 45 14.9980000  0  3G13G 2G15
  22754623.201    -5458727.127 6  -3944138.54321        12.000           0.188
  20202521.818    -3893266.093 8  -2994090.16722        28.500           2.438
  23598689.732    -1161970.728 5   -781300.64321         9.000           0.281
 91  6 27 18 45 29.9980000  0  3G13G 2G15
  22742585.529    -5521991.263 6  -3993435.16621        12.000           0.188
  20203138.654    -3890029.134 8  -2991567.87423        29.250           2.500
  23594622.857    -1183350.912 5   -797960.54621         9.250           0.219
 91  6 27 18 45 44.9980000  0  3G13G 2G15
  22730557.951    -5585203.565 6  -4042691.40221        12.250           0.250
  20203766.576    -3886726.449 8  -2988994.35723        29.500           2.563
  23590575.475    -1204610.921 5   -814526.76121         9.750           0.188
 91  6 27 18 45 59.9980000  0  3G13G 2G15
  22718536.076    -5648363.925 6  -4091907.18521        12.000           0.313
  20204408.420    -3883358.281 8  -2986369.82423        29.000           2.594
  23586549.475    -1225750.832 5   -830999.42821         9.750           0.156
 91  6 27 18 46 14.9980000  0  3G13G 2G15
  22706525.045    -5711474.409 5  -4141084.08021        11.750           0.344
  20205061.865    -3879927.296 8  -2983696.34123        29.000           2.594
  23582556.514    -1246772.952 5   -847380.30021        10.250           0.188
 91  6 27 18 46 29.9980000  0  3G13G 2G15
  22694529.053    -5774529.925 5  -4190218.15421        11.750           0.281
  20205726.053    -3876428.855 8  -2980970.29723        29.000           2.531
  23578576.365    -1267672.338 5   -863665.51721        10.000           0.188
 91  6 27 18 46 44.9980000  0  3G13G 2G15
  22682541.912    -5837531.710 6  -4239310.35221        12.250           0.281
  20206402.389    -3872864.792 8  -2978193.11022        28.750           2.469
  23574618.537    -1288450.520 5   -879856.28421         9.750           0.313
 91  6 27 18 46 59.9980000  0  3G13G 2G15
  22670564.514    -5900479.445 6  -4288360.44621        12.250           0.250
  20207095.748    -3869234.882 8  -2975364.61422        28.750           2.406
  23570695.311    -1309106.971 5   -895952.21021        10.500           0.250
 91  6 27 18 47 14.9980000  0  3G13G 2G15
  22658595.678    -5963375.637 6  -4337370.38821        12.500           0.250
  20207795.662    -3865542.199 8  -2972487.20923        28.000           2.531
  23566784.232    -1329644.433 5   -911955.39921        10.250           0.313
 91  6 27 18 47 29.9980000  0  3G13G 2G15
  22646635.217    -6026219.081 6  -4386339.20121        12.500           0.156
  20208510.365    -3861786.030 8  -2969560.33323        28.250           2.594
  23562898.920    -1350062.098 5   -927865.28421        10.000           0.344
 91  6 27 18 47 44.9980000  0  3G13G 2G15
  22634676.732    -6089004.631 5  -4435262.93721        11.500           0.250
  20209240.100    -3857961.784 8  -2966580.41023        28.500           2.594
  23559033.779    -1370354.973 5   -943677.86921        10.250           0.375
 91  6 27 18 47 59.9980000  0  3G13G 2G15
  22622746.943    -6151737.139 6  -4484145.31521        12.500           0.250
  20209979.826    -3854074.291 8  -2963551.21223        28.250           2.563
  23555196.193    -1390527.636 5   -959396.79921        10.750           0.250
 91  6 27 18 48 14.9980000  0  3G13G 2G15
  22610824.014    -6214416.383 6  -4532986.21321        13.750           0.219
  20210731.803    -3850124.260 8  -2960473.27423        28.000           2.500
  23551383.029    -1410580.436 5   -975022.37121        11.500           0.281
 91  6 27 18 48 29.9980000  0  3G13G 2G15
  22598902.412    -6277040.660 6  -4581784.25921        13.000           0.281
  20211493.240    -3846110.306 8  -2957345.52523        28.000           2.563
  23547589.107    -1430511.625 5   -990553.14721        10.750           0.344
 91  6 27 18 48 44.9980000  0  3G13G 2G15
  22586991.186    -6339608.354 6  -4630538.22821        12.500           0.281
  20212268.842    -3842031.082 8  -2954166.92323        28.250           2.719
  23543818.092    -1450319.425 5  -1005987.80321        10.250           0.469
 91  6 27 18 48 59.9980000  0  3G13G 2G15
  22575099.404    -6402119.993 6  -4679248.51121        13.250           0.313
  20213056.834    -3837887.810 8  -2950938.41523        28.000           2.688
  23540069.998    -1470004.784 5  -1021327.01921         9.750           0.406
 91  6 27 18 49 14.9980000  0  3G13G 2G15
  22563220.584    -6464573.588 6  -4727913.55721        14.250           0.313
  20213860.436    -3833678.763 8  -2947658.65323        28.750           2.656
  23536354.982    -1489566.057 5  -1036569.52321         9.750           0.375
 91  6 27 18 49 29.9980000  0  3G13G 2G15
  22551341.092    -6526970.838 6  -4776534.70721        13.500           0.313
  20214673.029    -3829406.450 8  -2944329.58923        29.000           2.750
  23532651.787    -1509005.231 5  -1051716.91321        10.500           0.313
 91  6 27 18 49 44.9980000  0  3G13G 2G15
  22539479.717    -6589313.469 6  -4825113.28021        14.500           0.219
  20215494.662    -3825072.865 7  -2940952.77923        27.750           2.781
  23528980.264    -1528323.975 5  -1066770.44521        10.750           0.469
 91  6 27 18 49 59.9980000  0  3G13G 2G15
  22527626.725    -6651599.302 6  -4873647.61821        13.750           0.313
  20216333.850    -3820676.208 8  -2937526.82923        28.500           2.656
  23525323.217    -1547520.273 5  -1081728.60121        10.000           0.500
 91  6 27 18 50 14.9980000  0  3G13G 2G15
  22515783.334    -6713825.437 6  -4922135.41221        13.000           0.219
  20217184.217    -3816213.789 8  -2934049.62923        29.500           2.750
  23521686.787    -1566591.121 5  -1096588.97321         9.750           0.438
 91  6 27 18 50 29.9980000  0  3G13G 2G15
  22503950.772    -6775993.001 6  -4970577.58121        13.000           0.250
  20218045.381    -3811687.448 8  -2930522.62323        29.000           2.781
  23518089.975    -1585538.096 5  -1111352.80921         9.750           0.531
 91  6 27 18 50 44.9980000  0  3G13G 2G15
  22492137.803    -6838102.130 6  -5018974.23121        14.000           0.281
  20218916.998    -3807097.953 7  -2926946.40623        27.750           2.625
  23514512.115    -1604361.459 5  -1126020.36721        10.000           0.469
 91  6 27 18 50 59.9980000  0  3G13G 2G15
  22480334.920    -6900153.407 6  -5067325.75921        14.250           0.344
  20219802.584    -3802446.131 7  -2923321.62123        27.500           2.719
  23510947.412    -1623061.696 5  -1140591.95421        11.000           0.438
 91  6 27 18 51 14.9980000  0  3G13G 2G15
  22468533.779    -6962144.981 6  -5115630.78521        13.750           0.313
  20220700.350    -3797730.328 7  -2919646.97623        27.500           2.750
  23507413.264    -1641637.392 5  -1155066.48521        10.250           0.500
 91  6 27 18 51 29.9980000  0  3G13G 2G15
  22456747.373    -7024072.006 6  -5163885.50621        14.000           0.344
  20221610.803    -3792946.359 8  -2915919.22023        28.000           2.656
  23503905.365    -1660084.009 5  -1169440.44221        11.000           0.406
 91  6 27 18 51 44.9980000  0  3G13G 2G15
  22444974.209    -7085940.192 6  -5212094.40421        14.250           0.281
  20222532.342    -3788100.356 8  -2912143.12423        28.250           2.656
  23500410.342    -1678407.123 5  -1183718.14921        10.000           0.594
 91  6 27 18 51 59.9980000  0  3G13G 2G15
  22433212.084    -7147748.218 6  -5260256.37121        13.750           0.375
  20223466.678    -3783191.466 7  -2908318.02923        27.500           2.750
  23496954.982    -1696605.647 5  -1197898.78921        11.000           0.500
 91  6 27 18 52 14.9980000  0  3G13G 2G15
  22421462.498    -7209496.073 6  -5308371.48321        13.500           0.313
  20224410.631    -3778220.009 7  -2904444.18223        27.250           2.625
  23493514.279    -1714679.771 5  -1211982.52621        11.750           0.500
 91  6 27 18 52 29.9980000  0  3G13G 2G15
  22409727.514    -7271181.165 6  -5356437.66321        13.500           0.281
  20225373.631    -3773183.871 8  -2900519.92223        28.500           2.719
  23490097.764    -1732627.125 5  -1225967.45821        11.500           0.531
 91  6 27 18 52 44.9980000  0  3G13G 2G15
  22397999.678    -7332803.190 6  -5404454.71121        14.500           0.281
  20226343.006    -3768083.246 8  -2896545.41523        28.500           2.781
  23486707.818    -1750447.601 5  -1239853.52621        10.750           0.406
 91  6 27 18 52 59.9980000  0  3G13G 2G15
  22386284.232    -7394363.284 6  -5452423.52421        14.250           0.281
  20227324.311    -3762919.641 8  -2892521.83923        28.250           2.750
  23483338.498    -1768142.592 5  -1253641.79121        11.000           0.313
 91  6 27 18 53 14.9980000  0  3G13G 2G15
  22374579.420    -7455860.703 6  -5500343.48021        13.500           0.281
  20228319.154    -3757692.796 8  -2888448.97923        28.250           2.875
  23479994.873    -1785711.199 5  -1267331.59021        11.000           0.375
 91  6 27 18 53 29.9980000  0  3G13G 2G15
  22362886.561    -7517294.531 6  -5548213.89921        13.000           0.250
  20229326.529    -3752402.120 8  -2884326.38723        28.250           2.875
  23476677.342    -1803152.531 6  -1280922.21721        12.000           0.375
 91  6 27 18 53 44.9980000  0  3G13G 2G15
  22351209.725    -7578664.605 6  -5596034.60221        12.750           0.344
  20230345.818    -3747047.929 8  -2880154.30323        29.000           2.906
  23473379.178    -1820467.173 6  -1294414.12221        12.250           0.406
 91  6 27 18 53 59.9980000  0  3G13G 2G15
  22339541.912    -7639970.020 6  -5643804.93721        13.000           0.281
  20231376.412    -3741630.039 8  -2875932.58123        28.000           2.813
  23470109.732    -1837654.297 6  -1307806.67621        12.750           0.438
 91  6 27 18 54 14.9980000  0  3G13G 2G15
  22327894.068    -7701211.980 6  -5691525.82221        13.250           0.375
  20232419.686    -3736149.825 7  -2871662.29223        27.500           2.781
  23466869.092    -1854714.901 6  -1321100.63621        13.750           0.563
 91  6 27 18 54 29.9980000  0  3G13G 2G15
  22316249.693    -7762390.332 6  -5739197.16521        13.000           0.344
  20233472.889    -3730607.589 7  -2867343.67723        27.000           2.781
  23463641.467    -1871649.661 6  -1334296.53421        12.750           0.531
 91  6 27 18 54 44.9980000  0  3G13G 2G15
  22304612.975    -7823503.176 6  -5786817.45421        12.250           0.406
  20234541.225    -3725001.658 7  -2862975.43423        27.500           2.906
  23460446.295    -1888456.508 6  -1347392.76021        13.250           0.500
 91  6 27 18 54 59.9980000  0  3G13G 2G15
  22293005.772    -7884548.460 6  -5834385.08221        13.000           0.313
  20235620.920    -3719330.541 7  -2858556.39023        27.750           2.844
  23457274.045    -1905133.506 6  -1360387.82121        12.500           0.469
 91  6 27 18 55 14.9980000  0  3G13G 2G15
  22281400.061    -7945532.806 6  -5881905.23421        13.750           0.406
  20236709.514    -3713601.317 7  -2854092.07823        27.500           2.875
  23454115.990    -1921687.228 5  -1373286.79521        11.750           0.531
 91  6 27 18 55 29.9980000  0  3G13G 2G15
  22269805.818    -8006453.507 6  -5929375.80321        14.000           0.281
  20237810.287    -3707811.839 7  -2849580.81223        27.000           2.906
  23450992.631    -1938115.626 5  -1386088.13121        11.500           0.500
 91  6 27 18 55 44.9980000  0  3G13G 2G15
  22258223.662    -8067308.565 6  -5976795.24121        14.250           0.250
  20238925.006    -3701960.743 7  -2845021.52323        27.250           2.813
  23447892.772    -1954416.803 5  -1398790.33621        11.500           0.594
 91  6 27 18 55 59.9980000  0  3G13G 2G15
  22246656.943    -8128096.926 6  -6024162.68921        13.250           0.344
  20240051.553    -3696047.147 8  -2840413.54223        28.000           2.844
  23444812.076    -1970589.722 5  -1411392.57921        10.250           0.563
 91  6 27 18 56 14.9980000  0  3G13G 2G15
  22235099.990    -8188813.639 6  -6071474.32621        12.750           0.438
  20241188.365    -3690066.620 8  -2835753.40423        28.000           2.844
  23441758.795    -1986629.728 5  -1423891.27221         9.750           0.563
 91  6 27 18 56 29.9980000  0  3G13G 2G15
  22223564.467    -8249464.998 6  -6118734.99221        13.750           0.313
  20242337.397    -3684025.622 8  -2831046.14923        28.250           2.844
  23438734.990    -2002543.000 5  -1436291.21421         9.750           0.594
 91  6 27 18 56 44.9980000  0  3G13G 2G15
  22212032.787    -8310046.770 6  -6165941.45321        14.500           0.406
  20243499.014    -3677920.579 8  -2826288.97723        28.000           2.813
  23435726.576    -2018325.583 5  -1448589.32521         9.500           0.531
 91  6 27 18 56 59.9980000  0  3G13G 2G15
  22200512.443    -8370560.001 6  -6213094.53321        14.000           0.344
  20244674.287    -3671752.847 8  -2821482.96423        28.000           2.906
  23432756.779    -2033978.817 5  -1460786.60821        10.250           0.594
 91  6 27 18 57 14.9980000  0  3G13G 2G15
  22189016.850    -8431004.099 6  -6260193.72921        14.500           0.438
  20245859.889    -3665522.377 7  -2816628.07023        27.500           2.781
  23429797.256    -2049502.428 5  -1472882.90021        10.250           0.688
 91  6 27 18 57 29.9980000  0  3G13G 2G15
  22177529.248    -8491378.495 6  -6307238.62421        14.750           0.344
  20247056.436    -3659228.845 7  -2811724.03323        27.000           2.781
  23426868.404    -2064895.775 5  -1484877.69721         9.500           0.719
 91  6 27 18 57 44.9980000  0  3G13G 2G15
  22166051.225    -8551684.123 6  -6354229.93421        15.000           0.313
  20248265.537    -3652873.534 7  -2806771.85923        27.000           2.750
  23423965.889    -2080159.979 5  -1496771.85721         9.750           0.656
 91  6 27 18 57 59.9980000  0  3G13G 2G15
  22154590.201    -8611916.963 6  -6401164.53021        15.250           0.344
  20249488.076    -3646452.759 7  -2801768.67023        27.000           2.656
  23421088.678    -2095291.068 5  -1508562.32721         9.500           0.531
 91  6 27 18 58 14.9980000  0  3G13G 2G15
  22143138.506    -8672079.045 6  -6448043.98321        14.000           0.313
  20250720.248    -3639969.505 7  -2796716.79923        26.500           2.750
  23418233.818    -2110291.654 5  -1520251.07221        10.500           0.531
 91  6 27 18 58 29.9980000  0  3G13G 2G15
  22131702.006    -8732172.152 6  -6494869.68921        14.250           0.469
  20251965.936    -3633426.067 7  -2791618.03223        26.250           2.688
  23415398.826    -2125163.797 5  -1531839.74021        10.000           0.813
 91  6 27 18 58 44.9980000  0  3G13G 2G15
  22120281.811    -8792193.834 6  -6541639.73021        15.250           0.406
  20253224.334    -3626820.252 7  -2786470.65823        27.000           2.656
  23412593.303    -2139905.030 5  -1543326.40121         9.500           0.781
 91  6 27 18 58 59.9980000  0  3G13G 2G15
  22108873.123    -8852144.945 6  -6588354.82521        15.250           0.344
  20254494.318    -3620153.176 7  -2781275.54923        27.500           2.563
  23409815.209    -2154516.490 5  -1554711.92321         9.500           0.844
 91  6 27 18 59 14.9980000  0  3G13G 2G15
  22097481.076    -8912024.242 6  -6635013.92221        15.500           0.500
  20255773.717    -3613424.049 7  -2776032.08723        27.750           2.625
  23407055.803    -2168997.158 5  -1565995.54121         9.250           0.781
 91  6 27 18 59 29.9980000  0  3G13G 2G15
  22086097.678    -8971831.448 6  -6681616.87621        15.000           0.406
  20257066.764    -3606633.053 7  -2770740.41223        27.500           2.750
  23404324.576    -2183346.985 5  -1577177.20821         9.750           0.750
 91  6 27 18 59 44.9980000  0  3G13G 2G15
  22074730.592    -9031565.647 6  -6728162.90921        15.250           0.406
  20258367.857    -3599779.656 7  -2765400.11523        26.750           2.688
  23401622.326    -2197565.120 5  -1588256.27421        10.500           0.625
 91  6 27 18 59 59.9980000  0  3G13G 2G15
  22063376.842    -9091230.907 6  -6774655.26721        15.500           0.438
  20259685.818    -3592868.266 7  -2760014.63423        27.750           2.625
  23398943.389    -2211655.943 5  -1599236.12021        11.000           0.625
 91  6 27 19  0 14.9980000  0  3G13G 2G15
  22052036.178    -9150823.789 6  -6821091.21021        14.750           0.406
  20261010.459    -3585895.884 7  -2754581.61023        27.500           2.531
  23396284.865    -2225616.054 5  -1610114.10621        11.000           0.656
 91  6 27 19  0 29.9980000  0  3G13G 2G15
  22040710.303    -9210342.522 6  -6867469.38521        15.000           0.469
  20262351.107    -3578861.285 7  -2749100.11523        27.500           2.625
  23393651.615    -2239443.760 5  -1620888.93321        10.250           0.656
 91  6 27 19  0 44.9980000  0  3G13G 2G15
  22029397.795    -9269788.024 6  -6913790.47221        15.000           0.375
  20263700.787    -3571765.913 7  -2743571.27323        27.250           2.719
  23391049.326    -2253140.573 5  -1631561.75021        10.500           0.594
 91  6 27 19  0 59.9980000  0  3G13G 2G15
  22018101.022    -9329157.162 6  -6960052.07721        15.500           0.406
  20265062.881    -3564606.939 7  -2737992.86723        26.750           2.656
  23388465.740    -2266703.416 5  -1642130.19421        11.000           0.656
 91  6 27 19  1 14.9980000  0  3G13G 2G15
  22006818.514    -9388449.829 6  -7006254.07721        16.250           0.375
  20266435.053    -3557384.802 7  -2732365.23823        26.250           2.781
  23385912.709    -2280132.472 5  -1652594.40221        11.250           0.688
 91  6 27 19  1 29.9980000  0  3G13G 2G15
  21995548.459    -9447668.018 6  -7052398.06521        15.750           0.406
  20267823.451    -3550101.593 7  -2726690.02023        26.500           2.625
  23383380.818    -2293429.802 5  -1662955.93221        10.250           0.531
 91  6 27 19  1 44.9980000  0  3G13G 2G15
  21984294.592    -9506814.834 6  -7098486.44121        15.750           0.406
  20269219.029    -3542760.933 7  -2720970.04123        26.500           2.719
  23380869.389    -2306598.603 5  -1673217.31721         9.500           0.438
 91  6 27 19  1 59.9980000  0  3G13G 2G15
  21973052.943    -9565884.985 6  -7144515.06121        14.750           0.375
  20270629.350    -3535358.025 7  -2715201.55223        26.500           2.563
  23378396.201    -2319634.047 5  -1683374.79021        10.500           0.438
 91  6 27 19  2 14.9980000  0  3G13G 2G15
  21961828.990    -9624879.187 6  -7190484.50321        16.000           0.500
  20272048.795    -3527894.085 7  -2709385.50423        26.000           2.719
  23375931.240    -2332537.205 5  -1693429.20621         9.000           0.594
 91  6 27 19  2 29.9980000  0  3G13G 2G15
  21950618.740    -9683798.950 6  -7236395.93921        16.500           0.406
  20273481.818    -3520370.773 7  -2703523.19523        26.250           2.656
  23373500.404    -2345309.562 5  -1703381.65821         8.250           0.625
 91  6 27 19  2 44.9980000  0  3G13G 2G15
  21939414.920    -9742641.346 6  -7282247.09021        15.500           0.438
  20274923.889    -3512785.613 7  -2697612.69323        26.500           2.656
  23371102.256    -2357948.291 5  -1713230.01521         8.500           0.719
 91  6 27 19  2 59.9980000  0  3G13G 2G15
  21928236.639    -9801404.512 6  -7328036.52521        15.500           0.500
  20276380.451    -3505137.238 7  -2691652.92423        26.750           2.563
  23368723.912    -2370451.640 5  -1722972.87221        10.250           0.500
 91  6 27 19  3 14.9980000  0  3G13G 2G15
  21917066.115    -9860094.208 6  -7373768.68521        15.250           0.344
  20277846.279    -3497432.075 7  -2685648.91223        26.750           2.688
  23366366.990    -2382825.772 5  -1732615.04021        10.250           0.531
 91  6 27 19  3 29.9980000  0  3G13G 2G15
  21905915.303    -9918705.615 6  -7419439.84521        15.750           0.438
  20279322.850    -3489665.370 7  -2679596.95123        25.750           2.656
  23364039.865    -2395065.892 5  -1742152.78221        10.250           0.531
 91  6 27 19  3 44.9980000  0  3G13G 2G15
  21894776.412    -9977243.229 6  -7465053.52921        16.000           0.438
  20280811.803    -3481842.380 7  -2673501.12923        26.000           2.625
  23361733.717    -2407176.957 5  -1751589.96221        10.250           0.469
 91  6 27 19  3 59.9980000  0  3G13G 2G15
  21883647.686   -10035700.149 6  -7510604.31121        15.750           0.438
  20282315.029    -3473956.406 7  -2667356.22523        27.000           2.656
  23359454.287    -2419152.235 5  -1760921.35321        10.750           0.469
 91  6 27 19  4 14.9980000  0  3G13G 2G15
  21872542.373   -10094081.025 6  -7556095.84521        16.000           0.469
  20283826.100    -3466012.399 7  -2661166.09123        26.750           2.625
  23357203.311    -2430996.483 6  -1770150.64821        12.250           0.406
 91  6 27 19  4 29.9980000  0  3G13G 2G15
  21861446.420   -10152382.413 6  -7601525.44121        16.000           0.531
  20285349.943    -3458007.475 7  -2654928.50223        26.500           2.625
  23354972.717    -2442706.703 6  -1779275.48821        12.500           0.406
 91  6 27 19  4 44.9980000  0  3G13G 2G15
  21850366.303   -10210607.293 6  -7646895.42121        15.500           0.438
  20286881.811    -3449945.187 7  -2648646.21723        26.250           2.719
  23352766.014    -2454285.660 6  -1788298.05621        12.250           0.375
 91  6 27 19  4 59.9980000  0  3G13G 2G15
  21839301.756   -10268754.234 6  -7692204.67521        15.750           0.531
  20288427.350    -3441824.355 7  -2642318.30723        26.500           2.688
  23350597.897    -2465732.367 6  -1797217.58621        14.000           0.469
 91  6 27 19  5 14.9980000  0  3G13G 2G15
  21828255.576   -10326813.207 6  -7737445.37621        16.750           0.531
  20289984.904    -3433635.381 7  -2635937.29223        26.250           2.594
  23348438.561    -2477037.222 6  -1806026.54921        12.750           0.469
 91  6 27 19  5 29.9980000  0  3G13G 2G15
  21817221.787   -10384794.581 6  -7782625.58921        17.250           0.469
  20291555.225    -3425389.030 7  -2629511.57423        26.250           2.719
  23346312.404    -2488210.875 6  -1814733.30021        12.000           0.438
 91  6 27 19  5 44.9980000  0  3G13G 2G15
  21806200.092   -10442696.951 6  -7827744.25421        16.500           0.469
  20293137.193    -3417084.299 7  -2623040.36423        26.500           2.688
  23344210.732    -2499251.711 6  -1823336.54221        12.000           0.406
 91  6 27 19  5 59.9980000  0  3G13G 2G15
  21795199.186   -10500520.871 6  -7872801.80721        16.750           0.531
  20294725.209    -3408722.300 7  -2616524.53123        26.250           2.750
  23342137.022    -2510160.931 6  -1831837.24621        12.750           0.438
 91  6 27 19  6 14.9980000  0  3G13G 2G15
  21784211.014   -10558263.995 6  -7917796.39621        17.000           0.531
  20296330.115    -3400300.846 7  -2609962.36623        26.750           2.563
  23340085.373    -2520936.279 6  -1840233.64421        13.250           0.406
 91  6 27 19  6 29.9980000  0  3G13G 2G15
  21773234.740   -10615924.505 6  -7962726.59021        15.750           0.500
  20297943.389    -3391818.912 7  -2603353.07823        27.250           2.594
  23338061.037    -2531576.398 6  -1848524.64921        13.000           0.313
 91  6 27 19  6 44.9980000  0  3G13G 2G15
  21762279.037   -10673500.054 6  -8007590.60021        15.750           0.531
  20299570.178    -3383274.439 7  -2596695.06523        27.250           2.750
  23336064.397    -2542079.005 6  -1856708.49021        13.500           0.500
 91  6 27 19  6 59.9980000  0  3G13G 2G15
  21751335.881   -10730996.349 6  -8052392.84021        16.500           0.469
  20301204.607    -3374673.407 7  -2589992.97323        26.500           2.656
  23334093.912    -2552449.866 6  -1864789.67521        12.500           0.406
 91  6 27 19  7 14.9980000  0  3G13G 2G15
  21740414.998   -10788410.305 6  -8097130.91921        17.250           0.469
  20302854.928    -3366012.993 7  -2583244.60723        27.250           2.719
  23332138.264    -2562685.961 5  -1872765.85921        11.750           0.500
 91  6 27 19  7 29.9980000  0  3G13G 2G15
  21729499.912   -10845741.551 6  -8141804.55121        16.250           0.500
  20304512.772    -3357293.281 8  -2576450.03823        28.500           2.719
  23330222.412    -2572787.300 5  -1880637.02821        11.500           0.594
 91  6 27 19  7 44.9980000  0  3G13G 2G15
  21718611.389   -10902990.346 6  -8186413.93621        16.500           0.438
  20306182.600    -3348515.051 7  -2569609.87123        27.750           2.813
  23328324.568    -2582754.570 5  -1888403.71621        11.000           0.531
 91  6 27 19  7 59.9980000  0  3G13G 2G15
  21707731.748   -10960156.205 6  -8230958.68321        16.500           0.469
  20307864.404    -3339678.220 7  -2562724.03823        27.000           2.813
  23326451.889    -2592587.538 6  -1896065.76621        12.000           0.688
 91  6 27 19  8 14.9980000  0  3G13G 2G15
  21696866.975   -11017236.185 6  -8275436.52221        16.750           0.438
  20309559.279    -3330780.214 7  -2555790.53923        27.750           2.750
  23324606.686    -2602283.307 6  -1903620.90321        12.000           0.625
 91  6 27 19  8 29.9980000  0  3G13G 2G15
  21686024.865   -11074230.532 6  -8319847.62321        17.500           0.469
  20311264.381    -3321821.594 8  -2548809.80523        28.000           2.750
  23322789.693    -2611842.410 5  -1911069.55821        11.500           0.594
 91  6 27 19  8 44.9980000  0  3G13G 2G15
  21675193.264   -11131140.460 6  -8364192.93921        17.000           0.563
  20312980.701    -3312804.038 8  -2541783.14723        28.250           2.844
  23320997.412    -2621266.090 6  -1918412.69821        12.000           0.594
 91  6 27 19  8 59.9980000  0  3G13G 2G15
  21664378.826   -11187961.576 6  -8408469.05121        16.500           0.594
  20314706.928    -3303723.577 8  -2534707.47223        28.250           2.844
  23319227.272    -2630550.467 6  -1925647.25321        12.250           0.656
 91  6 27 19  9 14.9980000  0  3G13G 2G15
  21653585.522   -11244693.823 6  -8452675.92221        16.750           0.500
  20316447.092    -3294580.585 7  -2527583.07123        27.500           2.781
  23317490.826    -2639695.562 6  -1932773.29621        12.250           0.719
 91  6 27 19  9 29.9980000  0  3G13G 2G15
  21642803.647   -11301340.997 6  -8496816.48221        16.250           0.563
  20318199.506    -3285379.310 8  -2520413.26423        28.250           2.875
  23315769.803    -2648705.716 6  -1939794.17721        12.000           0.781
 91  6 27 19  9 44.9980000  0  3G13G 2G15
  21632041.350   -11357903.093 6  -8540890.75721        16.250           0.563
  20319961.670    -3276120.222 8  -2513198.40423        28.500           2.813
  23314087.350    -2657581.078 6  -1946710.05821        12.250           0.656
 91  6 27 19  9 59.9980000  0  3G13G 2G15
  21621293.943   -11414377.505 6  -8584896.72121        16.750           0.688
  20321733.904    -3266801.007 7  -2505936.68323        27.750           2.781
  23312421.576    -2666319.157 5  -1953518.93921        11.500           0.656
 91  6 27 19 10 14.9980000  0  3G13G 2G15
  21610563.818   -11470763.916 6  -8628834.08621        16.500           0.594
  20323517.217    -3257421.608 7  -2498628.07123        27.750           2.844
  23310785.928    -2674919.721 5  -1960220.66221        10.750           0.656
 91  6 27 19 10 29.9980000  0  3G13G 2G15
  21599853.248   -11527060.458 6  -8672701.42921        17.750           0.594
  20325314.600    -3247980.703 8  -2491271.53123        28.000           2.719
  23309172.990    -2683381.189 5  -1966813.99221         9.750           0.656
